     2.10           OBSERVATION DATA    G (GPS)             RINEX VERSION / TYPE
teqc 2005May6 SOPAC 20050707 00:16:17UTC                    PGM / RUN BY / DATE
Linux 2.4.20-8|Pentium IV|gcc|Linux|486/DX+                 COMMENT
BIT 2 OF LLI FLAGS DATA COLLECTED UNDER A/S CONDITION       COMMENT
Z 935                                                       MARKER NAME
Z935                                                        MARKER NUMBER
Joel Dickson                                                OBSERVER / AGENCY
0440100991 TRIMBLE 5700 2.01                                REC # / TYPE / VERS
12214366 TRM41249.00 NONE                                   ANT # / TYPE
 -2606042.0000 -4285788.0000  3926461.0000                  APPROX POSITION XYZ
        2.0000        0.0000        0.0000                  ANTENNA: DELTA H/E/N
     1     1                                                WAVELENGTH FACT L1/2
     6    L1    L2    C1    P2    P1    D1                  # / TYPES OF OBSERV
    15.0000                                                 INTERVAL
Northern California Height Modernization 2004               COMMENT
                                                            COMMENT
SOPAC - Scripps Orbit and Permanent Array Center            COMMENT
IGPP - Institute of Geophysics and Planetary Physics        COMMENT
SIO - Scripps Institution of Oceanography                   COMMENT
UCSD - University of California, San Diego                  COMMENT
                                                            COMMENT
email: archive@gpsmail.ucsd.edu                             COMMENT
ftp://garner.ucsd.edu                                       COMMENT
http://sopac.ucsd.edu                                       COMMENT
                                                            COMMENT
                                                            COMMENT
Approximate Lat, Lon : 38.241, -121.302                     COMMENT
                                                            COMMENT
SNR is mapped to RINEX snr flag value [0-9]                 COMMENT
L1 & L2: 2-19 dBHz = 1, 20-27 dBHz = 2, 28-31 dBHz = 3      COMMENT
32-35 dBHz = 4, 36-38 dBHz = 5, 39-41 dBHz = 6              COMMENT
42-44 dBHz = 7, 45-48 dBHz = 8, >= 49 dBHz = 9              COMMENT
  2004     9     1    14    42    0.0000000     GPS         TIME OF FIRST OBS
                                                            END OF HEADER
 04  9  1 14 42  0.0000000  0  7G 3G11G14G15G19G22G25
     32431.45358     17188.57453  23193888.7504   23193886.6094

   -184717.32856   -109724.03152  23735495.8284   23735491.3754
    -56470.17258
    -43060.09856                  20148472.9304   20148469.2584
     15050.48059
      5416.07056                  20891868.5004   20891865.9104
    -38895.12158
    -30383.78954                  22165297.7424   22165292.5904
    -12670.84459
    -11491.16856                  21435933.6024   21435929.2544

   -197799.42657   -137175.25452  23701248.3134   23701246.6214

 04  9  1 14 42 15.0000000  0  7G 3G11G14G15G19G22G25
     44784.93448     26814.63343  23196238.6724   23196237.4264
      -823.5654
   -260676.53147   -168913.00842  23721040.8444   23721037.1604
      5063.9474
    -78852.13748    -60500.59446  20144213.7734   20144209.8324
      1492.1314
     21748.80149     10635.51646  20893142.8364   20893140.6524
      -446.5554
    -54364.57048    -42437.91444  22162353.8364   22162348.7114
      1031.2974
    -18126.82049    -15742.59845  21434895.4144   21434890.6724
       363.7324
   -276605.27347   -198582.43042  23686252.2034   23686250.3674
      5253.7234
 04  9  1 14 42 30.0000000  0  8G 3G11G14G15G19G22G25G18
     57099.97748     36410.73443  23198582.0704   23198581.3914
      -821.0034
   -336681.88746   -228137.98042  23706577.8754   23706573.1884
      5067.0244
   -101199.48848    -77914.13346  20139961.3054   20139957.5864
      1489.8234
     28467.58649     15870.91046  20894421.5704   20894419.6414
      -447.9194
    -69787.07448    -54455.48845  22159419.5944   22159413.6374
      1028.1674
    -23630.13349    -20030.91046  21433848.4694   21433843.3284
       366.8884
   -355483.32447   -260045.87142  23671242.5554   23671240.3284
      5258.5374
     23688.67655     11991.26251  23684141.2814   23684138.9534

 04  9  1 14 42 45.0000000  0  8G 3G11G14G15G19G22G25G18
     69413.89548     46005.96543  23200926.0004   23200924.3204
      -820.9284
   -412695.60547   -287369.46542  23692112.6564   23692108.1374
      5067.5814
   -123474.68449    -95271.43746  20135722.6254   20135718.8484
      1485.0134
     35244.53949     21151.61746  20895711.0864   20895709.3594
      -451.7974
    -85125.15248    -66407.25044  22156500.6804   22156495.4304
      1022.5394
    -29143.10549    -24326.75045  21432799.2504   21432794.2074
       367.5324
   -434395.54747   -321535.90642  23656225.5004   23656223.2584
      5260.8154
     32936.99645     19197.67641  23685902.1094   23685897.9414
      -616.5554
 04  9  1 14 43  0.0000000  0  8G 3G11G14G15G19G22G25G18
     81743.42248     55613.34443  23203271.9694   23203271.2034
      -821.9684
   -488700.27047   -346593.89142  23677649.4774   23677644.7734
      5066.9784
   -145660.74648   -112559.28546  20131500.5234   20131496.6054
      1479.0714
     42096.61349     26490.86346  20897015.0944   20897013.3834
      -456.8054
   -100361.94148    -78280.08244  22153601.2814   22153596.3324
      1015.7864
    -34648.62949    -28616.78545  21431751.3134   21431746.7774
       367.0354
   -513324.41847   -383038.90642  23641205.4614   23641203.7544
      5261.9254
     42172.00845     26393.75441  23687659.2114   23687654.8754
      -615.6674
 04  9  1 14 43 15.0000000  0  8G 3G11G14G15G19G22G25G18
     94099.66848     65241.54743  23205623.8134   23205622.5664
      -823.7504
   -564684.07446   -405802.06242  23663190.3594   23663185.6644
      5065.5874
   -167746.32448   -129768.83646  20127297.7664   20127294.1174
      1472.3724
     49035.16449     31897.49246  20898335.6954   20898333.2504
      -462.5704
   -115486.08249    -90065.16444  22150723.2664   22150718.3874
      1008.2764
    -40135.23449    -32892.08645  21430707.6484   21430702.6764
       365.7744
   -592258.07047   -444545.66042  23626185.1644   23626183.8244
      5262.2434
     51405.31646     33588.51641  23689416.4614   23689412.4694
      -615.5544
 04  9  1 14 43 30.0000000  0  8G 3G11G14G15G19G22G25G18
    106486.32848     74893.46143  23207980.8754   23207979.2114
      -825.7774
   -640642.68746   -464990.61342  23648736.1804   23648731.5124
      5063.9084
   -189727.68048   -146897.17246  20123114.8754   20123111.0554
      1465.4244
     56064.01249     37374.49246  20899673.0704   20899670.5944
      -468.5904
   -130493.62948   -101759.37545  22147867.1804   22147862.8554
      1000.5034
    -45598.86749    -37149.46945  21429667.8524   21429662.8164
       364.2424
   -671192.29347   -506052.85542  23611164.6954   23611162.7384
      5262.2824
     60640.86745     40784.98841  23691173.1954   23691169.6914
      -615.7034
 04  9  1 14 43 45.0000000  0  8G 3G11G14G15G19G22G25G18
    118906.77048     84571.70343  23210344.5234   23210342.6604
      -828.0294
   -716571.97346   -524156.29342  23634287.6024   23634282.4884
      5061.9524
   -211601.07848   -163941.39546  20118952.5864   20118948.5354
      1458.2274
     63186.85549     42924.72746  20901028.7344   20901026.0204
      -474.8564
   -145381.07848   -113360.01645  22145034.1954   22145029.4144
       992.4974
    -51035.78949    -41386.03546  21428633.3524   21428628.1134
       362.4614
   -750122.88747   -567557.23842  23596144.7584   23596142.2194
      5262.0404
     69882.38346     47986.15241  23692931.8364   23692928.1804
      -616.1014
 04  9  1 14 43 59.9990000  0  8G 3G11G14G15G19G22G25G18
    131362.50048     94277.44543  23212713.7764   23212712.7764
      -830.3824
   -792463.98847   -583292.89542  23619845.7374   23619841.7184
      5059.4684
   -233362.50848   -180898.35546  20114811.3944   20114807.7534
      1450.7624
     70405.69949     48549.77745  20902402.3154   20902400.0624
      -481.2564
   -160144.94949   -124864.35244  22142224.6984   22142220.2574
       984.2584
    -56442.92249    -45599.39845  21427604.1204   21427599.2224
       360.4764
   -829041.46147   -629052.25842  23581127.1054   23581125.1514
      5261.2384
     79132.15245     55193.72741  23694691.8554   23694689.2574
      -616.6514
 04  9  1 14 44 14.9990000  0  8G 3G11G14G15G19G22G25G18
    143855.69147    104012.35243  23215091.6984   23215090.8944
      -832.8794
   -868327.70747   -642407.52042  23605409.1204   23605404.7924
      5057.5814
   -255014.25049   -197769.85546  20110691.1594   20110687.3394
      1443.4494
     77722.25049     54250.95346  20903794.7764   20903792.1944
      -487.7704
   -174786.49248   -136273.35944  22139438.8624   22139433.9374
       976.1034
    -61820.32449    -49789.60545  21426580.9874   21426575.9564
       358.4934
   -907957.34847   -690545.17242  23566110.1444   23566108.4804
      5261.0594
     88392.09844     62409.22741  23696453.6124   23696451.3784
      -617.3304
 04  9  1 14 44 29.9990000  0  8G 3G11G14G15G19G22G25G18
    156384.98047    113775.40643  23217475.3314   23217474.4804
      -835.2864
   -944157.82448   -701495.92242  23590979.8394   23590975.3274
      5055.3414
   -276555.05148   -214554.90646  20106592.3314   20106588.3704
      1436.0534
     85135.80949     60027.73046  20905204.8784   20905202.4174
      -494.2374
   -189304.94548   -147586.46144  22136676.0424   22136671.0504
       967.8974
    -67167.60549    -53956.32446  21425563.3864   21425558.7764
       356.4854
   -986865.10247   -752031.73042  23551094.5974   23551092.9214
      5260.5174
     97661.44545     69631.99241  23698218.5504   23698216.4684
      -617.9574
 04  9  1 14 44 44.9990000  0  8G 3G11G14G15G19G22G25G18
    168950.14548    123566.41843  23219867.1834   23219865.6014
      -837.6784
  -1019953.95348   -760557.82842  23576556.5034   23576551.8864
      5053.0754
   -297985.09448   -231253.64146  20102514.3314   20102510.3554
      1428.6704
     92646.32049     65880.05145  20906634.3704   20906632.0654
      -500.7014
   -203700.53948   -158803.83245  22133936.8004   22133932.2264
       959.7064
    -72484.74249    -58099.56245  21424551.3784   21424546.7884
       354.4764
  -1065764.23447   -813511.57442  23536080.1674   23536078.3704
      5259.9424
    106940.25846     76862.19942  23699985.4724   23699981.2764
      -618.5874
 04  9  1 14 44 59.9990000  0  8G 3G11G14G15G19G22G25G18
    181552.66048    133386.52043  23222265.2844   23222263.7304
      -840.1684
  -1095714.03947   -819591.67242  23562139.1124   23562135.1364
      5050.6724
   -319302.60548   -247864.70746  20098457.6984   20098454.0654
      1421.1674
    100255.47749     71809.23445  20908082.4564   20908079.9954
      -507.2774
   -217971.53548   -169924.10944  22131220.8864   22131216.1014
       951.4004
    -77769.91849    -62217.89846  21423546.2844   21423541.9094
       352.3454
  -1144652.46947   -874982.92642  23521068.1444   23521065.9834
      5259.2164
    116230.52045     84101.28141  23701752.7374   23701748.1444
      -619.3514
 04  9  1 14 45 14.9990000  0  8G 3G11G14G15G19G22G25G18
    194191.32048    143234.78943  23224670.5654   23224668.7494
      -842.5774
  -1171438.73447   -878597.93742  23547729.4404   23547725.7574
      5048.3134
   -340508.71948   -264388.96146  20094422.3944   20094418.5774
      1413.7414
    107962.15649     77814.41045  20909549.2844   20909546.2144
      -513.7794
   -232119.00848   -180948.12944  22128528.4014   22128524.0934
       943.1654
    -83024.08249    -66312.07446  21422546.1124   21422542.5304
       350.2784
  -1223530.47747   -936446.32442  23506057.4874   23506056.3194
      5258.5344
    125531.27045     91348.62541  23703522.1984   23703518.5544
      -620.0504
 04  9  1 14 45 29.9990000  0  8G 3G11G14G15G19G22G25G18
    206864.81647    153110.21943  23227081.8154   23227080.4174
      -844.9004
  -1247128.73847   -937577.16842  23533325.5584   23533322.0774
      5046.0004
   -361604.50848   -280827.23846  20090408.0654   20090404.2264
      1406.3864
    115765.32049     83894.76645  20911033.7374   20911031.2264
      -520.2114
   -246144.18749   -191876.86344  22125860.1834   22125854.8624
       935.0124
    -88248.09049    -70382.75445  21421551.8784   21421547.9214
       348.2674
  -1302398.71147   -997902.10242  23491050.5894   23491047.9094
      5257.8824
    134841.50845     98603.30142  23705293.5504   23705290.7964
      -620.6834
 04  9  1 14 45 44.9990000  0  8G 3G11G14G15G19G22G25G18
    219573.64848    163013.16443  23229500.5734   23229498.9054
      -847.2554
  -1322782.89147   -996528.45742  23518928.9644   23518925.9994
      5043.6104
   -382589.20748   -297178.96546  20086414.8784   20086410.5894
      1398.9804
    123665.71549     90050.89845  20912537.2764   20912534.7654
      -526.6934
   -260046.32448   -202709.73044  22123214.3394   22123209.5974
       926.8094
    -93441.07449    -74429.24646  21420564.0194   21420559.0264
       346.1994
  -1381255.98447  -1059349.34042  23476043.6364   23476042.1834
      5257.1524
    144162.14146    105866.07842  23707067.9564   23707064.6554
      -621.3764
 04  9  1 14 45 59.9990000  0  8G 3G11G14G15G19G22G25G18
    232318.06647    172943.84043  23231925.4174   23231924.0624
      -849.6284
  -1398400.21547  -1055451.05942  23504539.6834   23504536.0424
      5041.1554
   -403462.45348   -313443.83646  20082442.4334   20082438.7804
      1391.5504
    131663.78949     96283.12945  20914059.6514   20914056.2574
      -533.2054
   -273825.01248   -213446.37944  22120592.3394   22120587.6084
       918.5794
    -98602.51249    -78451.14845  21419581.4724   21419577.2764
       344.0964
  -1460101.44547  -1120787.35942  23461039.6754   23461038.3554
      5256.3644
    153493.76245    113137.43042  23708843.8234   23708840.1444
      -622.1084
 04  9  1 14 46 14.9990000  0  8G 3G11G14G15G19G22G25G18
    245098.40248    182902.52043  23234358.4174   23234356.0194
      -852.0224
  -1473979.68447  -1114344.16442  23490157.4874   23490153.9404
      5038.6314
   -424223.61748   -329621.37946  20078491.9724   20078488.1794
      1384.0784
    139760.20349    102591.99645  20915600.2304   20915597.3974
      -539.7614
   -287479.73448   -224086.44544  22117994.2614   22117989.2534
       910.3154
   -103731.76648    -82447.98845  21418605.7844   21418600.6124
       341.9504
  -1538933.80147  -1182215.19142  23446038.7694   23446036.9954
      5255.4904
    162837.10245    120417.91842  23710621.1204   23710618.3554
      -622.8894
 04  9  1 14 46 29.9990000  0  8G 3G11G14G15G19G22G25G18
    257914.33648    192888.93443  23236796.1204   23236794.7924
      -854.3964
  -1549520.83247  -1173207.39842  23475782.7144   23475778.5974
      5036.0774
   -444872.81648   -345711.67246  20074562.3084   20074559.0194
      1376.6134
    147954.88749    108977.43845  20917159.7304   20917156.9334
      -546.3124
   -301010.57448   -234629.97744  22115419.4644   22115414.2764
       902.0564
   -108828.50449    -86419.49646  21417635.8864   21417630.9954
       339.7834
  -1617752.74247  -1243632.57042  23431039.8944   23431038.2414
      5254.5964
    172192.23445    127707.58642  23712401.1444   23712398.6514
      -623.6764
 04  9  1 14 46 44.9990000  0  8G 3G11G14G15G19G22G25G18
    270765.07448    202902.44543  23239241.9254   23239239.7884
      -856.7164
  -1625023.96947  -1232041.00842  23461414.6204   23461410.0034
      5033.5424
   -465410.76248   -361715.27346  20070654.2454   20070650.5424
      1369.1964
    156247.06349    115438.84445  20918738.0424   20918735.0624
      -552.8124
   -314418.25848   -245077.54344  22112867.4014   22112862.6674
       893.8464
   -113893.40249    -90366.18446  21416672.0734   21416667.3394
       337.6604
  -1696558.39847  -1305039.57042  23416043.9954   23416042.2414
      5253.7104
    181558.55945    135005.95742  23714184.5654   23714180.9524
      -624.4224
 04  9  1 14 46 59.9990000  0  8G 3G11G14G15G19G22G25G18
    283649.23848    212942.03542  23241693.8004   23241691.3904
      -858.9444
  -1700489.83647  -1290845.57442  23447054.5264   23447049.7574
      5031.0584
   -485838.44948   -377632.95746  20066766.7144   20066763.1444
      1361.8464
    164635.69549    121975.41845  20920333.7764   20920331.0934
      -559.2424
   -327703.89148   -255430.00844  22110340.1594   22110334.6984
       885.7094
   -118927.38749    -94288.78146  21415714.0034   21415709.0034
       335.5994
  -1775351.38747  -1366436.70342  23401050.1904   23401048.5974
      5252.8664
    190935.10944    142312.34441  23715968.6834   23715965.5074
      -625.1034
 04  9  1 14 47 14.9990000  0  8G 3G11G14G15G19G22G25G18
    296567.78948    223008.39842  23244152.3314   23244150.4524
      -861.2374
  -1775916.97747  -1349619.98442  23432700.6284   23432696.6124
      5028.4764
   -506154.90648   -393463.97346  20062900.9404   20062897.3554
      1354.4304
    173121.81649    128587.95745  20921948.8474   20921946.2764
      -565.7414
   -340866.53948   -265686.64544  22107834.9954   22107829.8944
       877.5104
   -123929.35249    -98186.43445  21414762.2224   21414757.0734
       333.4644
  -1854130.14847  -1427822.76642  23386059.4334   23386057.7614
      5251.9174
    200323.09444    149627.62541  23717754.1284   23717752.7264
      -625.8664
 04  9  1 14 47 29.9990000  0  8G 3G11G14G15G19G22G25G18
    309520.17648    233101.15243  23246617.1124   23246614.6554
      -863.4924
  -1851304.98847  -1408363.89142  23418355.1834   23418350.8514
      5025.8674
   -526360.39848   -409208.52746  20059055.8004   20059052.2534
      1347.0334
    181705.23049    135276.29745  20923581.9724   20923579.8784
      -572.2284
   -353906.48448   -275847.65244  22105353.1674   22105348.6554
       869.3304
   -128899.40649   -102059.21945  21413816.5654   21413810.9014
       331.3374
  -1932894.46947  -1489197.56642  23371070.7844   23371068.6674
      5250.9554
                                  23719542.7534   23719541.0814
      -626.6284
 04  9  1 14 47 44.9990000  0  8G 3G11G14G15G19G22G25G18
    322506.80148    243220.58642  23249088.7764   23249086.0114
      -865.7754
  -1926653.05947  -1467076.68042  23404015.7694   23404012.8514
      5023.2054
   -546454.58248   -424866.33246  20055231.8234   20055228.4954
      1339.6124
    190386.36749    142040.79745  20925234.0344   20925231.8784
      -578.7424
   -366823.30148   -285912.72344  22102895.5194   22102890.7264
       861.1214
   -133836.88349   -105906.60945  21412876.8394   21412871.3194
       329.1654
  -2011643.21947  -1550560.25042  23356086.1204   23356082.6634
      5249.9174
    219134.16044    164285.56641  23721334.6514   23721331.2454
      -627.4294
 04  9  1 14 47 59.9990000  0  8G 3G11G14G15G19G22G25G18
    335526.22748    253365.57042  23251566.1984   23251563.3394
      -867.9624
  -2001961.85547  -1525758.82842  23389685.4874   23389681.8744
      5020.5864
   -566438.49649   -440438.21946  20051429.4014   20051425.7654
      1332.2614
    199164.08249    148880.54745  20926904.1444   20926901.8744
      -585.1814
   -379618.10548   -295882.71544  22100460.5424   22100455.8194
       852.9874
   -138742.73449   -109729.36345  21411943.1444   21411938.5224
       327.0574
  -2090377.10547  -1611911.33242  23341103.0974   23341101.1514
      5248.9264
    228556.74644    171627.76241  23723126.9804   23723124.4294
      -628.1724
 04  9  1 14 48 14.9990000  0  8G 3G11G14G15G19G22G25G18
    348580.14548    263537.42242  23254050.1054   23254047.3944
      -870.2614
  -2077229.05147  -1584408.58642  23375362.3624   23375358.5624
      5017.8134
   -586310.25448   -455922.71546  20047647.6284   20047644.8514
      1324.7844
    208040.21949    155796.98846  20928593.7454   20928591.3944
      -591.7424
   -392289.09848   -305756.23444  22098049.3704   22098044.6324
       844.7334
   -143615.01249   -113525.95745  21411016.1904   21411010.6754
       324.8184
  -2169093.83647  -1673249.04742  23326123.8624   23326121.8394
      5247.7824
    237992.31644    178980.10241  23724923.2064   23724920.0074
      -629.0384
 04  9  1 14 48 29.9990000  0  8G 3G11G14G15G19G22G25G18
    361668.05948    273735.77742  23256541.0504   23256538.4724
      -872.5284
  -2152454.48847  -1643025.82042  23361047.4564   23361043.8394
      5015.0294
   -606070.16048   -471320.05146  20043887.5424   20043883.7764
      1317.3274
    217014.53149    162789.93046  20930301.4404   20930299.4094
      -598.2874
   -404836.70748   -315533.62144  22095661.8474   22095657.1554
       836.5074
   -148453.87549   -117296.51245  21410095.4094   21410090.2494
       322.5914
  -2247793.00846  -1734573.07842  23311147.6904   23311146.2494
      5246.6114
    247440.91844    186342.60941  23726720.6984   23726718.2304
      -629.9074
 04  9  1 14 48 44.9990000  0  8G 3G11G14G15G19G22G25G18
    374788.61748    283959.56343  23259037.3084   23259034.7964
      -874.7044
  -2227638.94548  -1701611.12542  23346740.6124   23346737.2574
      5012.2974
   -625719.47749   -486631.21146  20040148.4644   20040144.6514
      1309.9544
    226085.98449    169858.56345  20932027.5264   20932025.5544
      -604.7644
   -417262.12148   -325215.78544  22093297.3314   22093292.5624
       828.3614
   -153260.19949   -121041.71946  21409180.7844   21409175.8974
       320.4224
  -2326475.20746  -1795883.87142  23296175.0584   23296173.1164
      5245.4804
    256901.40644    193714.37941  23728521.4644   23728519.0114
      -630.6994
 04  9  1 14 48 59.9990000  0  8G 3G11G14G15G19G22G25G18
    387942.04348    294208.95743  23261540.4254   23261538.1474
      -876.8954
  -2302781.52048  -1760163.77742  23332441.8234   23332438.0774
      5009.5054
   -645257.71948   -501855.82446  20036430.3864   20036426.8514
      1302.5494
    235254.90649    177003.15245  20933772.6364   20933770.7454
      -611.2614
   -429564.89148   -334802.37144  22090956.2144   22090951.3234
       820.1854
   -158033.58649   -124761.25446  21408272.3704   21408267.6124
       318.2264
  -2405139.69147  -1857180.89142  23281205.3154   23281203.5034
      5244.2994
    266374.41444    201095.86741  23730324.3314   23730321.6514
      -631.5344
 04  9  1 14 49 14.9990000  0  8G 3G11G14G15G19G22G25G18
    401128.11748    304483.78943  23264049.8554   23264047.4444
      -879.0724
  -2377881.84848  -1818683.50442  23318150.5734   23318146.6874
      5006.6894
   -664684.96948   -516993.94946  20032733.6124   20032729.5734
      1295.1504
    244521.23448    184223.63745  20935535.6904   20935534.0344
      -617.7554
   -441745.17248   -344293.52344  22088638.1124   22088633.5194
       812.0194
   -162773.88349   -128455.01245  21407370.4724   21407365.4724
       316.0204
  -2483785.87547  -1918463.62542  23266239.7304   23266238.0344
      5243.0794
    275859.89144    208487.14541  23732128.7694   23732126.3514
      -632.3654
 04  9  1 14 49 29.9990000  0  8G 3G11G14G15G19G22G25G18
    414346.35948    314783.70342  23266564.8234   23266562.5224
      -881.2164
  -2452939.65648  -1877170.12142  23303868.2844   23303863.8474
      5003.8544
   -684001.49648   -532045.79346  20029057.8084   20029054.2924
      1287.7684
    253884.71548    191519.83245  20937317.4954   20937315.8354
      -624.2324
   -453803.18048   -353689.39144  22086343.8944   22086338.4374
       803.8674
   -167481.12549   -132123.01645  21406474.9404   21406469.6554
       313.8164
  -2562413.57847  -1979731.96143  23251277.8394   23251275.4644
      5241.8474
    285357.98845    215888.18441  23733936.5894   23733934.2064
      -633.2074
 04  9  1 14 49 44.9990000  0  8G 3G11G14G15G19G22G25G18
    427596.55547    325108.48842  23269086.4174   23269084.1944
      -883.3464
  -2527954.49648  -1935623.26242  23289592.8394   23289589.3044
      5000.9894
   -703207.35948   -547011.41046  20025403.0034   20025399.0464
      1280.3914
    263345.40648    198891.76246  20939118.2064   20939116.1984
      -630.7134
   -465738.96948   -362990.02344  22084072.7064   22084067.5114
       795.7194
   -172155.26248   -135765.21145  21405585.3784   21405580.2304
       311.6094
  -2641022.30546  -2040985.54742  23236318.6984   23236316.7764
      5240.5824
    294868.84845    223299.18042  23735746.8624   23735744.4684
      -634.0574
 04  9  1 14 49 59.9990000  0  8G 3G11G14G15G19G22G25G18
    440878.61747    335458.11742  23271613.9484   23271611.7304
      -885.4714
  -2602925.83648  -1994042.49242  23275326.0654   23275322.0814
      4998.0894
   -722302.38748   -561890.65246  20021769.5504   20021765.5654
      1273.0024
    272903.39848    206339.52346  20940936.8314   20940935.0304
      -637.1994
   -477552.59448   -372195.46945  22081824.6444   22081819.6324
       787.5754
   -176795.94948   -139381.33645  21404702.3554   21404697.7104
       309.3794
  -2719611.37946  -2102223.76642  23221363.8704   23221361.8314
      5239.2724
    304392.52744    230720.20342  23737559.1984   23737556.9834
      -634.9124
 04  9  1 14 50 14.9990000  0  8G 3G11G14G15G19G22G25G18
    454192.41447    345832.46543  23274147.2534   23274145.5154
      -887.5864
  -2677853.15648  -2052427.44942  23261068.1444   23261063.7534
      4995.1554
   -741286.42648   -576683.41446  20018157.0654   20018153.0074
      1265.6034
    282558.78948    213863.17645  20942774.1444   20942772.1084
      -643.6934
   -489243.90648   -381305.60544  22079599.3944   22079594.8194
       779.4214
   -181402.84848   -142971.15246  21403825.4954   21403820.7654
       307.1274
  -2798180.17646  -2163446.18742  23206412.5264   23206411.0384
      5237.9204
    313929.49644    238151.55541  23739372.9724   23739370.7964
      -635.7984
 04  9  1 14 50 29.9990000  0  8G 3G11G14G15G19G22G25G18
    467538.27747    356231.81643  23276686.9804   23276685.2224
      -889.7244
  -2752735.59048  -2110777.40242  23246818.2454   23246813.8624
      4992.1624
   -760159.24248   -591389.51247  20014565.4334   20014561.8314
      1258.1884
    292312.03948    221463.08645  20944629.7924   20944627.9094
      -650.2174
   -500812.58648   -390320.18044  22077397.8864   22077393.1474
       771.2454
   -185975.55949   -146534.31646  21402955.3704   21402950.6014
       304.8474
  -2876727.59046  -2224651.97342  23191465.4954   23191464.0694
      5236.4944
    323480.31644    245593.71141  23741191.3704   23741187.8474
      -636.7214
 04  9  1 14 50 44.9990000  0  8G 3G11G14G15G19G22G25G18
    480915.17647    366655.34042  23279232.8704   23279230.8554
      -891.7934
  -2827573.41848  -2169092.59442  23232577.4564   23232572.2224
      4989.1894
   -778921.65248   -606009.57846  20010995.1754   20010991.2224
      1250.8274
    302162.28548    229138.57845  20946504.5584   20946502.6754
      -656.6834
   -512259.44948   -399239.83644  22075219.8314   22075215.2724
       763.1244
   -190514.56649   -150071.22345  21402091.6514   21402086.6514
       302.6014
  -2955254.00446  -2285841.38742  23176522.1054   23176520.4644
      5235.0944
    333044.31644    253046.10941  23743011.0734   23743007.5304
      -637.6004
 04  9  1 14 50 59.9990000  0  8G 3G11G14G15G19G22G25G18
    494323.34847    377103.22743  23281784.7924   23281782.2804
      -893.8784
  -2902365.73448  -2227372.32442  23218345.2534   23218340.7454
      4986.1544
   -797573.07448   -620543.16846  20007446.0654   20007442.0504
      1243.4284
    312109.94948    236889.97345  20948397.2534   20948395.1054
      -663.1784
   -523584.12548   -408064.27744  22073064.9014   22073060.2884
       754.9784
   -195019.30549   -153581.40645  21401234.6054   21401229.3194
       300.3164
  -3033758.46147  -2347013.68442  23161583.5734   23161581.8784
      5233.6304
    342622.07044    260509.27041  23744833.4644   23744830.7024
      -638.5174
 04  9  1 14 51 14.9990000  0  8G 3G11G14G15G19G22G25G18
    507762.47347    387575.24243  23284341.9724   23284340.4254
      -895.9424
  -2977112.23048  -2285616.34442  23204120.7454   23204116.8194
      4983.1004
   -816113.73448   -634990.43746  20003918.1674   20003913.7024
      1236.0444
    322155.07848    244717.31345  20950309.1834   20950306.8704
      -669.6754
   -534786.78148   -416793.63744  22070933.0034   22070928.4294
       746.8444
   -199489.71948   -157064.85945  21400383.4094   21400378.6714
       298.0284
  -3112240.61346  -2408168.59842  23146648.4334   23146646.5464
      5232.1434
    352213.48444    267983.05141  23746658.6594   23746655.5304
      -639.4284
 04  9  1 14 51 29.9990000  0  8G 3G11G14G15G19G22G25G18
    521231.66848    398070.69543  23286905.2844   23286903.2494
      -897.9464
  -3051813.20348  -2343824.89842  23189905.4254   23189902.0694
      4980.0654
   -834544.50848   -649352.08246  20000410.2844   20000406.8434
      1228.7184
    332296.76648    252619.89545  20952238.9804   20952236.7144
      -676.1124
   -545868.34048   -425428.64844  22068824.4254   22068819.9134
       738.7714
   -203926.56648   -160522.15645  21399539.1124   21399534.4954
       295.7904
  -3190700.66046  -2469306.29742  23131718.1984   23131716.3084
      5230.6704
    361818.04744    275467.01641  23748485.3554   23748483.0624
      -640.3044
 04  9  1 14 51 44.9990000  0  8G 3G11G14G15G19G22G25G18
    534731.17648    408589.75443  23289473.8004   23289472.5344
      -899.9674
  -3126467.71947  -2401997.25442  23175699.3554   23175695.6164
      4976.9684
   -852864.79348   -663627.64146  19996924.3944   19996920.6834
      1221.3524
    342535.51649    260598.10945  20954187.4564   20954185.1944
      -682.5834
   -556828.36348   -433968.94144  22066739.0194   22066734.1444
       730.6684
   -208329.12949   -163952.74645  21398701.8864   21398696.8744
       293.5044
  -3269137.66446  -2530426.05142  23116791.9404   23116790.6674
      5229.1344
    371436.40244    282961.81341  23750316.8784   23750313.7494
      -641.2244
 04  9  1 14 51 59.9990000  0  8G 3G11G14G15G19G22G25G18
    548260.78548    419132.28143  23292048.7694   23292046.8474
      -901.9744
  -3201075.33647  -2460133.05942  23161501.7614   23161498.2334
      4973.8414
   -871074.67248   -677817.15647  19993458.9174   19993455.7334
      1213.9924
    352871.32848    268651.96945  20956154.2374   20956151.7724
      -689.0544
   -567666.92249   -442414.59044  22064676.3944   22064672.3864
       722.5714
   -212697.34849   -167356.57845  21397870.3554   21397865.8044
       291.2154
  -3347550.96146  -2591527.30542  23101870.3314   23101869.0814
      5227.5534
    381068.69143    290467.41841  23752149.1594   23752146.7534
      -642.1534
 04  9  1 14 52 14.9990000  0  8G 3G11G14G15G19G22G25G18
    561820.54348    429698.31643  23294628.7454   23294627.0734
      -903.9844
  -3275635.27747  -2518231.71943  23147313.7764   23147309.8234
      4970.6634
   -889173.84049   -691920.41446  19990015.2304   19990010.9094
      1206.6114
    363304.43848    276781.62945  20958139.5264   20958137.9604
      -695.5414
   -578383.67248   -450765.32445  22062637.0114   22062632.6634
       714.4504
   -217030.64149   -170733.18745  21397045.6054   21397041.0304
       288.8864
  -3425939.76646  -2652609.47342  23086953.9404   23086952.1834
      5225.9204
    390715.32444    297984.29341  23753986.1834   23753981.9014
      -643.1094
 04  9  1 14 52 29.9990000  0  8G 3G11G14G15G19G22G25G18
    575410.16047    440287.59443  23297214.2844   23297213.6284
      -905.9744
  -3350147.33248  -2576293.05143  23133134.9564   23133130.9764
      4967.4704
   -907162.42649   -705937.49646  19986591.8234   19986587.9524
      1199.2394
    373834.83249    284987.10245  20960143.6284   20960141.2844
      -702.0264
   -588978.76249   -459021.26244  22060621.0734   22060616.6634
       706.3394
   -221329.03149   -174082.60945  21396228.1124   21396223.0074
       286.5594
  -3504303.66447  -2713672.25442  23072041.0504   23072039.7224
      5224.2604
    400376.32845    305512.23441  23755824.0584   23755822.0194
      -644.0674
 04  9  1 14 52 44.9990000  0  8G 3G11G14G15G19G22G25G18
    589029.34447    450899.91442  23299806.5734   23299804.8474
      -907.9464
  -3424611.07447  -2634316.75443  23118964.5264   23118961.3744
      4964.2494
   -925040.66448   -719868.59846  19983189.6674   19983186.0264
      1191.8834
    384462.30149    293268.21945  20962166.0734   20962163.6014
      -708.4984
   -599452.49249   -467182.63744  22058627.8394   22058623.3434
       698.2494
   -225592.45349   -177404.77045  21395416.9724   21395411.5544
       284.2284
  -3582642.36746  -2774715.37143  23057134.3944   23057132.9054
      5222.5804
    410051.94145    313051.64541  23757666.1124   23757662.6794
      -645.0414
 04  9  1 14 52 59.9990000  0  7G 3G11G14G15G19G22G25
    602677.02747    461534.43442  23302402.8554   23302401.9644
      -909.8464
  -3499026.96947  -2692303.16042  23104803.5974   23104800.1474
      4961.0604
   -942809.41449   -733714.38746  19979808.5034   19979805.0154
      1184.5834
    395185.97349    301624.30945  20964206.7064   20964204.3624
      -714.9114
   -609805.69949   -475250.09044  22056657.8004   22056652.8084
       690.2144
   -229821.65649   -180700.25845  21394611.9874   21394607.1364
       281.9474
  -3660956.30546  -2835739.21943  23042231.3394   23042230.0654
      5220.9294
 04  9  1 14 53 14.9990000  0  7G 3G11G14G15G19G22G25
    616353.37948    472191.30542  23305005.6514   23305004.7184
      -911.7574
  -3573393.94948  -2750251.46543  23090652.1364   23090648.3394
      4957.7994
   -960468.27349   -747474.54346  19976448.0734   19976444.5424
      1177.2574
    406006.34448    310055.73445  20966265.4334   20966262.8784
      -721.3584
   -620038.16048   -483223.46144  22054710.8864   22054706.2304
       682.1644
   -234016.13349   -183968.69945  21393813.6674   21393809.0114
       279.6324
  -3739244.37546  -2896742.88743  23027333.5654   23027332.7454
      5219.2054
 04  9  1 14 53 29.9990000  0  7G 3G11G14G15G19G22G25
    630058.61347    482870.66842  23307613.3154   23307612.5224
      -913.6824
  -3647711.25848  -2808161.03943  23076510.1514   23076506.6904
      4954.4874
   -978016.88349   -761148.78546  19973108.6364   19973105.0304
      1169.9074
    416923.66849    318562.71545  20968343.4254   20968340.5694
      -727.8224
   -630149.56248   -491102.48844  22052786.4644   22052782.0544
       674.0934
   -238175.27749   -187209.60545  21393022.4564   21393017.3554
       277.2764
  -3817505.79347  -2957725.77742  23012440.9174   23012439.6284
      5217.4284
 04  9  1 14 53 44.9990000  0  7G 3G11G14G15G19G22G25
    643792.32447    493572.21943  23310227.1904   23310226.4524
      -915.5814
  -3721978.73048  -2866031.81643  23062377.1594   23062374.1674
      4951.1654
   -995455.50449   -774737.33246  19969790.3154   19969786.1124
      1162.5754
    427937.66048    327145.02345  20970439.0344   20970436.5154
      -734.2664
   -640140.14149   -498887.37144  22050885.3474   22050880.9404
       666.0394
   -242299.14849   -190423.01646  21392237.8084   21392232.1474
       274.9254
  -3895740.19146  -3018687.63342  22997553.1444   22997551.7924
      5215.6274
 04  9  1 14 53 59.9990000  0  7G 3G11G14G15G19G22G25
    657556.48447    504297.50042  23312846.3314   23312845.2144
      -917.6114
  -3796193.78148  -2923861.73042  23048254.9254   23048251.0074
      4947.6704
  -1012781.89149   -788238.41047  19966492.9254   19966489.1164
      1155.0924
    439050.56348    335804.39845  20972553.8004   20972551.4874
      -740.8604
   -650007.72749   -506576.41044  22049007.8004   22049002.9444
       657.8394
   -246385.28549   -193607.02745  21391460.1204   21391454.9254
       272.4094
  -3973944.80547  -3079626.27742  22982671.3944   22982670.2844
      5213.6414
 04  9  1 14 54 14.9990000  0  7G 3G11G14G15G19G22G25
    671351.12947    515046.53543  23315471.7374   23315470.5584
      -919.6434
  -3870355.78548  -2981650.30142  23034142.0734   23034138.5304
      4944.1344
  -1029995.93749   -801651.96546  19963217.5584   19963214.1244
      1147.6034
    450262.53548    344540.97745  20974687.5264   20974685.2764
      -747.4654
   -659752.29348   -514169.59444  22047153.0194   22047148.4294
       649.6384
   -250433.48049   -196761.48445  21390689.7304   21390684.2414
       269.8804
  -4052118.95346  -3140541.21142  22967795.6204   22967794.1404
      5211.6104
 04  9  1 14 54 29.9990000  0  7G 3G11G14G15G19G22G25
    685175.02747    525818.37942  23318102.5344   23318101.1514
      -921.5934
  -3944465.29747  -3039397.96942  23020040.0584   23020036.5974
      4940.6344
  -1047098.84449   -814978.90646  19959962.4954   19959958.9564
      1140.1944
    461572.50048    353353.90645  20976840.0264   20976837.6944
      -753.9984
   -669374.99648   -521667.83244  22045321.8554   22045317.2724
       641.5144
   -254444.51648   -199886.98045  21389926.2764   21389921.2304
       267.4024
  -4130263.04747  -3201432.71143  22952925.2064   22952923.7144
      5209.6064
 04  9  1 14 54 44.9990000  0  7G 3G11G14G15G19G22G25
    699027.19147    536612.25442  23320738.3474   23320737.3194
      -923.4784
  -4018522.44547  -3097104.83643  23005947.2064   23005943.6984
      4937.1434
  -1064091.16849   -828219.69146  19956729.3704   19956725.8154
      1132.8224
    472979.87548    362242.73845  20979010.5034   20979007.9054
      -760.4924
   -678876.52048   -529071.63744  22043514.0504   22043509.4834
       633.4354
   -258419.08248   -202984.07045  21389170.1984   21389165.2724
       264.9714
  -4208377.39847  -3262301.01243  22938061.0814   22938059.2534
      5207.6234
 04  9  1 14 54 59.9990000  0  7G 3G11G14G15G19G22G25
    712907.14547    547427.76642  23323379.6834   23323377.9724
      -925.3304
  -4092527.21148  -3154770.89542  22991864.0894   22991860.6904
      4933.6514
  -1080973.32849   -841374.62146  19953516.6444   19953513.0734
      1125.4774
    484484.26248    371207.17245  20981199.8554   20981197.2224
      -766.9594
   -688257.24648   -536381.31244  22041728.9564   22041724.5194
       625.3824
   -262357.39849   -206052.90645  21388420.8784   21388415.8434
       262.5544
  -4286461.88347  -3323146.04742  22923201.9094   22923200.0194
      5205.6324
 04  9  1 14 55 14.9990000  0  7G 3G11G14G15G19G22G25
    726815.58647    558265.49642  23326026.5344   23326024.7924
      -927.2294
  -4166478.36748  -3212395.18042  22977791.6364   22977788.0504
      4930.0774
  -1097744.42249   -854443.01646  19950325.0264   19950321.5464
      1118.0734
    496086.48048    380247.83645  20983407.4874   20983405.2534
      -773.4814
   -697516.31648   -543596.19944  22039967.3554   22039961.9014
       617.2714
   -266258.25849   -209092.54745  21387678.3314   21387673.4564
       260.0574
  -4364515.07047  -3383966.69942  22908348.6594   22908347.0814
      5203.5464
 04  9  1 14 55 29.9990000  0  7G 3G11G14G15G19G22G25
    740750.85947    569124.12142  23328678.0734   23328676.4684
      -929.0184
  -4240376.68448  -3269978.28942  22963729.4564   22963725.6754
      4926.5544
  -1114405.94949   -867426.03146  19947154.7764   19947150.9524
      1110.7684
    507785.11348    389363.62545  20985633.6284   20985631.6014
      -779.9094
   -706655.45348   -550717.62144  22038227.8784   22038222.6984
       609.2764
   -270123.01648   -212104.07045  21386943.1514   21386938.4174
       257.6514
  -4442537.80147  -3444763.59443  22893501.3944   22893499.4214
      5201.5154
 04  9  1 14 55 44.9990000  0  7G 3G11G14G15G19G22G25
    754714.60246    580004.93842  23331335.2614   23331333.7494
      -930.9164
  -4314219.98448  -3327518.52342  22949677.7144   22949673.7494
      4922.8874
  -1130956.15649   -880322.30546  19944005.2764   19944001.3474
      1103.3474
    519581.83648    398555.85245  20987878.5264   20987876.4484
      -786.4484
   -715672.92648   -557744.24644  22036512.1204   22036507.0074
       601.1654
   -273949.69548   -215085.91045  21386214.6834   21386210.3974
       255.1124
  -4520527.71147  -3505534.95343  22878660.6124   22878658.4914
      5199.3274
 04  9  1 14 55 59.9990000  0  7G 3G11G14G15G19G22G25
    768705.19946    590906.65642  23333998.0974   23333996.2494
      -932.7074
  -4388009.17248  -3385016.59042  22935636.1984   22935632.5074
      4919.2794
  -1147396.62149   -893133.06246  19940876.8944   19940873.1904
      1096.0314
    531475.18049    407823.36345  20990141.9484   20990139.9294
      -792.8904
   -724570.25048   -564677.25044  22034819.1054   22034813.8154
       593.1554
   -277739.54749   -218039.06245  21385493.7534   21385489.0114
       252.6574
  -4598485.78147  -3566281.50443  22863825.2764   22863824.2024
      5197.2054
 04  9  1 14 56 14.9990000  0  7G 3G11G14G15G19G22G25
    782722.44947    601829.18042  23336664.8864   23336663.3234
      -934.4834
  -4461743.94948  -3442472.27743  22921604.5194   22921601.0814
      4915.6524
  -1163727.35549   -905858.31246  19937769.3234   19937765.3624
      1088.7164
    543465.23448    417166.23445  20992423.7064   20992421.1634
      -799.3374
   -733347.46948   -571516.66044  22033148.8784   22033144.0034
       585.1484
   -281492.39149   -220963.37945  21384779.4174   21384774.4094
       250.1904
  -4676411.47347  -3627002.80943  22848996.3474   22848994.6014
      5195.0464
 04  9  1 14 56 29.9990000  0  7G 3G11G14G15G19G22G25
    796764.94946    612771.35242  23339337.6754   23339335.3044
      -936.1674
  -4535424.88348  -3499886.00043  22907582.8864   22907580.0694
      4912.0624
  -1179949.52349   -918498.96546  19934682.3154   19934678.2654
      1081.4784
    555550.81649    426583.54345  20994723.1904   20994720.3974
      -805.7054
   -742005.83648   -578263.45744  22031500.5814   22031496.2374
       577.2244
   -285209.36749   -223859.74246  21384072.3864   21384067.1554
       247.7984
  -4754305.54747  -3687699.48043  22834173.5264   22834172.3274
      5192.9384
 04  9  1 14 56 44.9990000  0  7G 3G11G14G15G19G22G25
    810832.36747    623732.96142  23342014.3394   23342011.5814
      -937.8284
  -4609051.74248  -3557257.55942  22893573.0194   22893569.8124
      4908.4574
  -1196063.15249   -931055.05546  19931615.7844   19931611.9684
      1074.2424
    567731.77748    436075.16845  20997041.3704   20997039.0974
      -812.0644
   -750545.47348   -584917.74644  22029876.0584   22029871.0624
       569.3094
   -288890.39149   -226728.09445  21383371.6514   21383367.0624
       245.4024
  -4832167.53947  -3748371.16842  22819357.0504   22819355.3234
      5190.7994
 04  9  1 14 56 59.9990000  0  7G 3G11G14G15G19G22G25
    824924.71947    634714.00042  23344696.1904   23344693.2804
      -939.4904
  -4682623.81248  -3614586.43743  22879572.7764   22879569.5304
      4904.8054
  -1212068.25449   -943526.56646  19928570.4014   19928566.2844
      1067.0074
    580008.33649    445641.28945  20999377.7844   20999374.9834
      -818.4374
   -758966.35548   -591479.50844  22028273.3474   22028268.9444
       561.3924
   -292535.09449   -229568.13745  21382677.9644   21382674.1324
       242.9804
  -4909996.57847  -3809017.16042  22804546.9334   22804544.8554
      5188.6034
 04  9  1 14 57 14.9990000  0  7G 3G11G14G15G19G22G25
    839041.82847    645714.32042  23347383.3314   23347379.6014
      -941.1414
  -4756140.60248  -3671872.25442  22865582.8784   22865579.1164
      4901.1194
  -1227964.72749   -955913.43046  19925544.9014   19925541.7884
      1059.7654
    592380.46948    455281.89145  21001731.9804   21001729.5624
      -824.8094
   -767268.45348   -597948.68444  22026693.8394   22026688.8234
       553.4734
   -296143.35249   -232379.78145  21381991.5114   21381986.7804
       240.5514
  -4987792.34047  -3869637.21943  22789742.2694   22789741.1514
      5186.3844
 04  9  1 14 57 29.9980000  0  7G 3G11G14G15G19G22G25
    853182.03547    656732.64142  23350072.8654   23350070.6004
      -942.6804
  -4829597.18748  -3729111.15642  22851604.5224   22851600.9634
      4897.1064
  -1243751.99249   -968215.20746  19922540.8974   19922537.6824
      1052.4844
    604846.82848    464995.90645  21004104.3344   21004102.3854
      -831.0914
   -775451.85248   -604325.38344  22025136.5924   22025131.5454
       545.5604
   -299715.10949   -235162.99245  21381312.0294   21381306.6354
       238.1174
  -5065549.48447  -3930227.18043  22774946.2324   22774944.4204
      5183.8104
 04  9  1 14 57 44.9980000  0  7G 3G11G14G15G19G22G25
    867346.20746    667769.64142  23352768.7724   23352766.1194
      -944.2784
  -4903003.95348  -3786311.23442  22837635.9044   22837632.1434
      4893.7844
  -1259433.21549   -980434.34846  19919556.7484   19919553.4474
      1045.4154
    617408.09849    474783.87545  21006494.5454   21006492.2364
      -837.4184
   -783518.68748   -610611.25444  22023601.4594   22023596.6744
       537.7894
   -303251.69949   -237918.78545  21380638.4674   21380633.7484
       235.7734
  -5143278.87547  -3990795.53142  22760154.9124   22760153.0254
      5181.9594
 04  9  1 14 57 59.9980000  0  7G 3G11G14G15G19G22G25
    881533.31647    678824.48842  23355468.2174   23355465.9084
      -945.8074
  -4976355.35948  -3843468.18443  22823677.5924   22823673.8854
      4890.0944
  -1275007.18049   -992569.91046  19916593.4044   19916589.8544
      1038.2644
    630063.68449    484645.34445  21008902.6234   21008900.7754
      -843.7064
   -791468.30948   -616805.78944  22022088.6234   22022083.8934
       529.9754
   -306752.58649   -240646.76245  21379972.7644   21379967.6004
       233.3924
  -5220974.56247  -4051337.62543  22745369.4824   22745368.5494
      5179.7124
 04  9  1 14 58 14.9980000  0  7G 3G11G14G15G19G22G25
    895744.12946    689897.83242  23358172.8184   23358170.6624
      -947.3874
  -5049650.05148  -3900580.93442  22809729.9754   22809726.2054
      4886.3134
  -1290472.99248  -1004621.19946  19913650.1004   19913646.2684
      1031.0544
    642814.35948    494580.91045  21011328.8034   21011327.1934
      -850.0454
   -799299.89548   -622908.33644  22020598.4124   22020594.0684
       522.1064
   -310216.63349   -243346.04345  21379313.4674   21379308.2914
       230.9364
  -5298635.05947  -4111852.30542  22730591.2404   22730589.3034
      5177.3664
 04  9  1 14 58 29.9980000  0  7G 3G11G14G15G19G22G25
    909978.09447    700989.20742  23360881.4754   23360879.3854
      -948.9314
  -5122887.74248  -3957649.26243  22795793.4124   22795789.6864
      4882.5134
  -1305831.05949  -1016588.53546  19910727.7724   19910723.8184
      1023.8714
    655659.82048    504590.33245  21013773.6624   21013771.5724
      -856.3644
   -807013.89848   -628919.26644  22019130.6234   22019125.9944
       514.2674
   -313643.98449   -246016.72345  21378661.3344   21378656.2254
       228.4904
  -5376260.20747  -4172339.41843  22715819.5144   22715818.7364
      5175.0104
 04  9  1 14 58 44.9980000  0  7G 3G11G14G15G19G22G25
    924234.43447    712097.99642  23363594.6074   23363592.3774
      -950.4234
  -5196068.71148  -4014673.39543  22781867.2564   22781863.0494
      4878.7314
  -1321082.08649  -1028472.45346  19907825.5534   19907821.9594
      1016.7354
    668599.33249    514673.03945  21016235.9754   21016233.5334
      -862.6344
   -814611.16048   -634839.24244  22017685.0224   22017680.2404
       506.4844
   -317035.18449   -248659.23045  21378016.0374   21378010.7834
       226.0804
  -5453850.00046  -4232798.98443  22701054.7564   22701053.6544
      5172.6534
 04  9  1 14 58 59.9980000  0  8G 3G 1G11G14G15G19G22G25
    938512.61746    723223.83642  23366311.1704   23366309.3344
      -951.8794
   -186080.39856   -141225.90652  23532476.9754   23532474.4754

  -5269192.87948  -4071653.26643  22767952.8574   22767948.1194
      4874.9454
  -1336226.37548  -1040273.20746  19904943.4204   19904940.2254
      1009.6194
    681632.61349    524828.81345  21018716.4984   21018713.9204
      -868.8854
   -822091.95748   -640668.45744  22016261.5224   22016256.6394
       498.7204
   -320390.40249   -251273.69945  21377377.2404   21377372.1074
       223.6814
  -5531404.42247  -4293230.99643  22686296.6784   22686295.4084
      5170.2954
 04  9  1 14 59 14.9980000  0  8G 3G 1G11G14G15G19G22G25
    952813.37546    734367.24242  23369033.3654   23369031.4164
      -953.3844
   -263539.73046   -201583.85942  23517736.8344   23517734.2094
      5163.9554
  -5342258.89848  -4128587.83643  22754048.5374   22754044.4674
      4871.0684
  -1351263.08249  -1051990.12946  19902082.1704   19902078.8544
      1002.4474
    694760.58248    535058.37145  21021214.4674   21021211.6624
      -875.1984
   -829455.39148   -646406.21944  22014860.4824   22014855.8774
       490.8964
   -323708.54349   -253859.28545  21376746.3034   21376741.1074
       221.2094
  -5608922.07447  -4353634.34443  22671545.5924   22671544.5884
      5167.8434
 04  9  1 14 59 29.9980000  0  8G 3G 1G11G14G15G19G22G25
    967134.03946    745526.17242  23371757.7484   23371756.6544
      -954.7114
   -340955.86346   -261908.15242  23503005.1474   23503002.0294
      5161.0764
  -5415268.64148  -4185478.55543  22740155.2254   22740151.6824
      4867.3164
  -1366194.74249  -1063625.19146  19899240.6934   19899237.5254
       995.4444
    707980.71148    545359.74645  21023729.9904   21023727.7484
      -881.3424
   -836704.10948   -652054.60244  22013481.0224   22013476.9124
       483.2484
   -326991.87149   -256417.73845  21376121.6154   21376116.5224
       218.8894
  -5686404.75847  -4414010.45343  22656800.7954   22656799.2724
      5165.5124
 04  9  1 14 59 44.9980000  0  8G 3G 1G11G14G15G19G22G25
    981472.96147    756699.30143  23374487.1704   23374484.9324
      -955.9284
   -418329.96546   -322199.64842  23488281.5064   23488278.2214
      5158.2734
  -5488223.27048  -4242326.31643  22726272.5224   22726268.4794
      4863.6424
  -1381022.81249  -1075179.54746  19896419.1704   19896415.5144
       988.5384
    721291.39149    555731.66845  21026262.7174   21026261.4794
      -887.3794
   -843839.77048   -657614.87944  22012122.9284   22012118.7684
       475.7114
   -330241.77749   -258950.15245  21375502.9204   21375497.9204
       216.6604
  -5763853.59047  -4474360.19942  22642063.6154   22642061.0184
      5163.2554
 04  9  1 14 59 59.9980000  0  8G 3G 1G11G14G15G19G22G25
    995831.75847    767887.96942  23377218.7874   23377217.5334
      -957.2534
   -495659.80546   -382456.68042  23473565.3114   23473563.2174
      5155.3234
  -5561120.31648  -4299129.21943  22712400.7724   22712396.7644
      4859.8034
  -1395745.45749  -1086651.74646  19893617.8424   19893614.0374
       981.5104
    734694.50849    566175.61745  21028813.2254   21028811.9284
      -893.5414
   -850860.49248   -663085.58644  22010786.8264   22010782.7604
       468.0484
   -333456.21149   -261454.92245  21374891.0534   21374886.5224
       214.2964
  -5841265.99647  -4534681.56643  22627332.3974   22627329.9474
      5160.8274
 04  9  1 15  0 14.9980000  0  8G 3G 1G11G14G15G19G22G25
   1010208.53147    779090.60543  23379954.8654   23379953.6744
      -958.4524
   -572946.84046   -442680.37542  23458858.2644   23458855.6194
      5152.4694
  -5633961.14548  -4355888.31643  22698539.3344   22698536.2014
      4856.0554
  -1410364.56249  -1098043.25846  19890835.8344   19890832.1474
       974.6074
    748188.40649    576690.30945  21031380.9754   21031379.5764
      -899.5934
   -857768.03948   -668468.11344  22009472.3974   22009468.1314
       460.5034
   -336636.81649   -263933.33245  21374285.7484   21374281.3654
       212.0404
  -5918643.48447  -4594975.70343  22612607.9984   22612605.8504
      5158.4994
 04  9  1 15  0 29.9980000  0  8G 3G 1G11G14G15G19G22G25
   1024605.35547    790308.88343  23382694.4364   23382693.5494
      -959.7884
   -650188.39146   -502868.60542  23444159.5924   23444157.0224
      5149.4374
  -5706742.96148  -4412601.41443  22684689.5144   22684685.7834
      4852.1214
  -1424877.83649  -1109352.31247  19888073.7954   19888070.4754
       967.5524
    761775.30949    587277.48045  21033966.9594   21033965.1784
      -905.7934
   -864560.34048   -673760.84844  22008179.9824   22008175.7604
       452.8204
   -339781.01649   -266383.38345  21373687.8424   21373683.1504
       209.6134
  -5995982.95347  -4655240.19543  22597890.6004   22597889.1704
      5155.9654
 04  9  1 15  0 44.9980000  0  8G 3G 1G11G14G15G19G22G25
   1039021.62947    801542.29743  23385438.1074   23385436.9474
      -961.0854
   -727384.61346   -563021.52042  23429469.7324   23429467.3384
      5146.4154
  -5779465.78148  -4469268.55143  22670850.9204   22670847.3344
      4848.1884
  -1439285.66049  -1120579.19146  19885331.9284   19885328.6434
       960.5224
    775454.67649    597936.68045  21036570.1544   21036568.3654
      -911.9584
   -871237.99648   -678964.23044  22006909.4124   22006904.9514
       445.1774
   -342889.14849   -268805.32045  21373096.3734   21373091.1044
       207.2094
  -6073284.36747  -4715475.07043  22583180.5844   22583178.7754
      5153.4284
 04  9  1 15  0 59.9980000  0  8G 3G 1G11G14G15G19G22G25
   1053456.61347    812790.33243  23388184.9594   23388183.4634
      -962.3324
   -804535.71146   -623139.25042  23414787.8734   23414786.4164
      5143.4074
  -5852129.65648  -4525889.75443  22657023.3344   22657020.1194
      4844.2584
  -1453588.73049  -1131724.45347  19882610.3974   19882606.9904
       953.5384
    789225.87949    608667.46945  21039190.9044   21039188.5964
      -918.0804
   -877801.62548   -684078.77044  22005660.4514   22005655.9754
       437.5754
   -345961.58249   -271199.43745  21372511.8264   21372506.7914
       204.8294
  -6150547.75047  -4775680.30543  22568477.6074   22568475.8304
      5150.8924
 04  9  1 15  1 14.9980000  0  8G 3G 1G11G14G15G19G22G25
   1067909.10947    824051.96542  23390934.7954   23390934.0924
      -963.5004
   -881642.34046   -683222.32842  23400115.5534   23400113.8974
      5140.4424
  -5924735.00048  -4582465.34843  22643207.0144   22643203.3654
      4840.3564
  -1467788.02049  -1142788.83646  19879908.5844   19879904.8144
       946.6194
    803088.02749    619469.11345  21041828.9904   21041826.4984
      -924.1434
   -884252.30148   -689105.29344  22004432.6154   22004428.9284
       430.0454
   -348999.15249   -273566.39145  21371933.7644   21371929.1004
       202.5054
  -6227773.55947  -4835856.25443  22553782.2874   22553780.1744
      5148.3874
 04  9  1 15  1 29.9980000  0  8G 3G 1G11G14G15G19G22G25
   1082379.88347    835327.87142  23393688.6474   23393687.8974
      -964.7184
   -958703.10946   -743269.66842  23385451.4514   23385449.7914
      5137.3854
  -5997280.52748  -4638994.32843  22629401.9434   22629398.3114
      4836.3684
  -1481882.71149  -1153771.71946  19877226.0144   19877222.8114
       939.6464
    817042.05549    630342.34845  21044484.2484   21044481.8074
      -930.2684
   -890589.19548   -694043.15644  22003226.7014   22003222.6394
       422.4604
   -352000.75449   -275905.31645  21371362.3814   21371357.9594
       200.1074
  -6304960.47747  -4896001.88743  22539093.8654   22539091.6704
      5145.7954
 04  9  1 15  1 44.9980000  0  8G 3G 1G11G14G15G19G22G25
   1096868.70346    846617.83242  23396445.6864   23396444.6894
      -965.9214
  -1035717.74246   -803281.08642  23370795.8734   23370794.4984
      5134.3094
  -6069765.96948  -4695476.49643  22615608.4514   22615605.1314
      4832.3634
  -1495872.91449  -1164673.18046  19874563.8814   19874560.8264
       932.6804
    831087.78148    641287.04345  21047156.6474   21047154.5804
      -936.3824
   -896812.46548   -698892.47344  22002043.0684   22002038.5144
       414.8854
   -354966.19149   -278216.07845  21370798.0224   21370793.6584
       197.6964
  -6382107.85247  -4956116.71943  22524413.0684   22524411.4514
      5143.1584
 04  9  1 15  1 59.9980000  0  8G 3G 1G11G14G15G19G22G25
   1111375.02046    857921.41442  23399206.3114   23399204.6504
      -967.0884
  -1112686.24646   -863256.53142  23356149.2794   23356148.0254
      5131.2344
  -6142191.00848  -4751911.59443  22601826.2254   22601822.9004
      4828.3364
  -1509758.85949  -1175493.41047  19871921.5144   19871918.3504
       925.7304
    845224.87548    652302.94145  21049846.6074   21049844.9794
      -942.4734
   -902922.52348   -703653.59444  22000880.0924   22000875.9824
       407.3374
   -357895.69149   -280498.82445  21370240.8034   21370236.1624
       195.3004
  -6459215.41447  -5016200.53143  22509740.1624   22509738.0804
      5140.5044
 04  9  1 15  2 14.9980000  0  8G 3G 1G11G14G15G19G22G25
   1125898.75846    869238.60942  23401969.8574   23401968.7014
      -968.2494
  -1189608.34046   -923195.82042  23341511.5764   23341510.5644
      5128.1404
  -6214555.12948  -4808299.21943  22588055.6474   22588052.4554
      4824.2754
  -1523540.57049  -1186232.41046  19869299.1004   19869295.5924
       918.7814
    859453.37548    663390.05945  21052554.2564   21052552.4394
      -948.5674
   -908919.39848   -708326.50844  21999739.0224   21999734.3264
       399.7924
   -360789.10949   -282753.45345  21369690.0764   21369685.3384
       192.8954
  -6536282.70347  -5076252.96943  22495074.9984   22495072.4044
      5137.8194
 04  9  1 15  2 29.9980000  0  8G 3G 1G11G14G15G19G22G25
   1140440.05946    880569.45742  23404737.2564   23404735.8384
      -969.4204
  -1266483.12546   -983098.25842  23326882.5294   23326881.4514
      5124.9864
  -6286857.47348  -4864638.70743  22574297.0534   22574293.8934
      4820.1564
  -1537217.70349  -1196889.91846  19866696.3034   19866692.7444
       911.8094
    873773.64548    674548.67645  21055280.0144   21055277.6394
      -954.6854
   -914802.78948   -712910.99244  21998619.3344   21998615.0024
       392.2264
   -363645.80149   -284979.46145  21369146.6234   21369141.9594
       190.4464
  -6613308.84447  -5136273.32443  22480416.7094   22480415.2174
      5135.0764
 04  9  1 15  2 44.9980000  0  8G 3G 1G11G14G15G19G22G25
   1154998.35547    891913.55542  23407508.1624   23407505.9364
      -970.5534
  -1343310.73847  -1042963.91842  23312262.7014   23312261.9634
      5121.8414
  -6359097.97348  -4920929.98443  22560550.7564   22560546.9284
      4816.0334
  -1550790.68049  -1207466.27746  19864113.5844   19864110.0104
       904.8654
    888185.27748    685778.49644  21058021.7874   21058020.5104
      -960.7764
   -920573.19548   -717407.42644  21997521.1864   21997516.6354
       384.6944
   -366465.93049   -287176.98445  21368609.7954   21368605.2914
       188.0094
  -6690293.70748  -5196261.52043  22465767.5684   22465765.2364
      5132.3244
 04  9  1 15  2 59.9980000  0  8G 3G 1G11G14G15G19G22G25
   1169573.47346    903270.75842  23410281.3264   23410279.4754
      -971.6744
  -1420090.92647  -1102792.62142  23297652.4984   23297650.9434
      5118.6794
  -6431276.26648  -4977172.81243  22546814.3344   22546811.6504
      4811.8864
  -1564259.64549  -1217961.57847  19861550.5224   19861546.9514
       897.9314
    902688.19548    697079.43845  21060781.8344   21060780.1394
      -966.8614
   -926230.80148   -721815.98844  21996444.7014   21996440.3544
       377.1744
   -369249.40249   -289345.94545  21368080.1314   21368075.7054
       185.5654
  -6767236.75048  -5256217.12943  22451126.0844   22451123.5294
      5129.5364
 04  9  1 15  3 14.9980000  0  8G 3G 1G11G14G15G19G22G25
   1184164.63346    914640.46142  23413057.7564   23413055.8574
      -972.7444
  -1496823.80547  -1162584.50042  23283050.5064   23283049.5924
      5115.5254
  -6503392.54748  -5033367.32443  22533091.8184   22533088.4824
      4807.7524
  -1577625.13749  -1228376.24646  19859007.2404   19859003.4474
       891.0334
    917281.79748    708451.04345  21063558.6074   21063556.9084
      -972.9074
   -931776.26648   -726137.15644  21995389.5684   21995385.2094
       369.6984
   -371996.57849   -291486.61345  21367557.3114   21367552.8814
       183.1454
  -6844138.14147  -5316140.28143  22436491.5064   22436489.5964
      5126.7594
 04  9  1 15  3 29.9980000  0  8G 3G 1G11G14G15G19G22G25
   1198772.46146    926023.16842  23415837.2174   23415835.5064
      -973.8554
  -1573508.30147  -1222338.64542  23268457.9514   23268456.8654
      5112.3004
  -6575445.44548  -5089512.43443  22519380.7404   22519377.4284
      4803.5274
  -1590886.45349  -1238709.74246  19856483.3344   19856479.9474
       884.0884
    931966.91048    719893.96544  21066353.2174   21066351.6474
      -979.0084
   -937208.85948   -730370.36344  21994355.8034   21994350.9634
       362.1734
   -374706.50449   -293598.26245  21367041.9044   21367036.8854
       180.6624
  -6920996.43747  -5376029.86343  22421866.0534   22421863.9244
      5123.8864
 04  9  1 15  3 44.9980000  0  8G 3G 1G11G14G15G19G22G25
   1213396.74646    937418.67242  23418620.3424   23418618.6784
      -974.9524
  -1650144.23047  -1282054.96142  23253874.6394   23253873.5844
      5109.0624
  -6647434.54348  -5145607.84843  22505681.6544   22505678.0804
      4799.2734
  -1604043.70749  -1248962.17246  19853979.9984   19853975.9594
       877.1504
    946743.27748    731407.98445  21069165.0454   21069163.5844
      -985.0914
   -942528.89548   -734515.87544  21993343.4904   21993338.4794
       354.6694
   -377379.11749   -295680.83245  21366533.1234   21366527.8774
       178.1744
  -6997811.17247  -5435885.48443  22407248.8344   22407246.4904
      5120.9824
 04  9  1 15  3 59.9980000  0  8G 3G 1G11G14G15G19G22G25
   1228035.87945    948825.73842  23421406.5224   23421405.1394
      -975.9424
  -1726732.49247  -1341734.14542  23239300.4594   23239298.7484
      5105.8844
  -6719360.71548  -5201654.21943  22491994.4594   22491990.8734
      4795.0784
  -1617098.36749  -1259134.62946  19851495.5534   19851492.2604
       870.3114
    961609.48848    742992.01645  21071994.4514   21071992.5764
      -991.0814
   -947737.79748   -738574.79344  21992352.1934   21992347.0064
       347.2604
   -380015.69549   -297735.32445  21366031.4434   21366026.9674
       175.7724
  -7074583.25447  -5495707.88743  22392639.2564   22392637.5764
      5118.1394
 04  9  1 15  4 14.9980000  0  8G 3G 1G11G14G15G19G22G25
   1242691.28545    960245.50842  23424194.3654   23424193.3934
      -977.0274
  -1803271.25447  -1401374.74242  23224735.6234   23224733.9124
      5102.5844
  -6791222.00448  -5257650.03143  22478320.1154   22478316.0964
      4790.7534
  -1630048.81649  -1269225.89546  19849031.0924   19849027.7094
       863.3634
    976567.19548    754647.34445  21074840.5224   21074839.4284
      -997.1804
   -952834.03148   -742545.89844  21991382.6154   21991377.7684
       339.7494
   -382614.55149   -299760.41445  21365536.6784   21365532.3694
       173.2574
  -7151310.44147  -5555495.28143  22378038.8654   22378036.7604
      5115.1464
 04  9  1 15  4 29.9980000  0  8G 3G 1G11G14G15G19G22G25
   1257362.12545    971677.27742  23426986.7254   23426985.1274
      -978.0564
  -1879760.69947  -1460976.92642  23210180.2564   23210178.0764
      5099.2964
  -6863018.22348  -5313595.13343  22464658.2014   22464653.6864
      4786.4154
  -1642895.59449  -1279236.37946  19846586.5374   19846583.2994
       856.4524
    991615.77348    766373.48444  21077704.4284   21077702.8734
     -1003.2394
   -957818.28148   -746429.75444  21990434.0294   21990429.1434
       332.2834
   -385175.82049   -301756.23445  21365049.1154   21365045.0534
       170.7514
  -7227992.80947  -5615247.75443  22363446.3654   22363444.7254
      5112.1584
 04  9  1 15  4 44.9980000  0  8G 3G 1G11G14G15G19G22G25
   1272047.09846    983120.11742  23429781.2014   23429779.7294
      -978.9984
  -1956201.69946  -1520541.34442  23195633.7874   23195631.7954
      5096.0674
  -6934750.21548  -5369490.19943  22451007.6864   22451003.4984
      4782.1334
  -1655640.11349  -1289167.18746  19844161.4284   19844157.3654
       849.6354
   1006754.01648    778169.48844  21080585.3734   21080583.2174
     -1009.2164
   -962691.96148   -750227.44944  21989506.9984   21989502.0184
       324.9124
   -387700.66849   -303723.67245  21364569.0294   21364564.6784
       168.3234
  -7304631.09847  -5674965.88743  22348862.3344   22348860.9634
      5109.2194
 04  9  1 15  4 59.9980000  0  8G 3G 1G11G14G15G19G22G25
   1286745.80147    994573.60542  23432578.4204   23432576.6704
      -979.9144
  -2032594.09847  -1580067.89842  23181097.3034   23181094.4514
      5092.8274
  -7006418.06248  -5425335.28143  22437369.5614   22437365.8814
      4777.8574
  -1668282.58649  -1299018.47346  19841755.5224   19841751.7444
       842.8324
   1021981.55949    790035.07044  21083482.8974   21083480.4514
     -1015.1704
   -967455.36748   -753939.22744  21988600.5374   21988595.6584
       317.5604
   -390189.17649   -305662.78145  21364095.5224   21364091.3074
       165.9014
  -7381224.94147  -5734649.39843  22334287.6624   22334285.3544
      5106.2564
 04  9  1 15  5 14.9980000  0  8G 3G 1G11G14G15G19G22G25
   1301458.88347   1006038.31642  23435378.5374   23435376.7914
      -980.8724
  -2108936.77047  -1639555.68742  23166569.6784   23166566.8344
      5089.5114
  -7078020.35248  -5481129.26643  22423743.7874   22423740.4394
      4773.4864
  -1680822.23449  -1308789.62146  19839369.6544   19839365.5924
       835.9774
   1037299.21949    801970.89144  21086397.6394   21086395.6974
     -1021.1774
   -972107.75048   -757564.47344  21987715.1074   21987710.1074
       310.1594
   -392640.24649   -307572.72345  21363629.4824   21363624.5334
       163.4054
  -7457772.93047  -5794297.17243  22319720.7254   22319718.5964
      5103.1994
 04  9  1 15  5 29.9980000  0  8G 3G 1G11G14G15G19G22G25
   1316184.30547   1017512.64542  23438180.4674   23438178.7174
      -981.6954
  -2185231.24246  -1699005.94942  23152051.2324   23152049.3304
      5086.2984
  -7149558.39148  -5536873.20343  22410130.7954   22410127.0684
      4769.2034
  -1693260.91049  -1318482.10246  19837002.2174   19836998.6114
       829.2454
   1052705.10948    813975.44545  21089329.1314   21089327.2644
     -1027.0594
   -976651.15648   -761104.81644  21986850.3814   21986845.8504
       302.8944
   -395055.62949   -309454.84845  21363169.3814   21363164.7014
       161.0264
  -7534276.50047  -5853910.32843  22305162.8574   22305160.8384
      5100.2384
 04  9  1 15  5 44.9980000  0  8G 3G 1G11G14G15G19G22G25
   1330922.77747   1028997.14142  23440985.4514   23440983.3074
      -982.5654
  -2261476.20346  -1758417.61342  23137541.9434   23137540.0644
      5082.9974
  -7221030.75448  -5592565.94143  22396530.2954   22396526.6314
      4764.8244
  -1705597.72349  -1328095.21546  19834654.6004   19834651.2914
       822.4544
   1068200.17648    826049.49644  21092277.8814   21092276.1864
     -1033.0044
   -981084.77748   -764559.61344  21986006.4824   21986002.1194
       295.5754
   -397434.24649   -311308.34045  21362716.9514   21362712.3114
       158.5744
  -7610734.27347  -5913487.80943  22290612.9364   22290610.9794
      5097.1854
 04  9  1 15  5 59.9980000  0  8G 3G 1G11G14G15G19G22G25
   1345673.01247   1040490.80142  23443792.1004   23443790.0724
      -983.3494
  -2337672.45746  -1817791.32042  23123042.2174   23123040.4044
      5079.7504
  -7292438.06248  -5648207.99243  22382942.1154   22382938.2404
      4760.4874
  -1717833.93049  -1337629.92646  19832326.3034   19832322.6974
       815.7474
   1083783.21948    838192.09444  21095243.0374   21095241.4824
     -1038.8704
   -985409.79748   -767929.77344  21985183.4514   21985178.4124
       288.3354
   -399777.14149   -313134.00045  21362271.2254   21362266.1274
       156.1934
  -7687146.73047  -5973029.98443  22276072.3574   22276070.8974
      5094.1644
 04  9  1 15  6 14.9980000  0  8G 3G 1G11G14G15G19G22G25
   1360434.24647   1051993.04742  23446601.1784   23446599.7994
      -984.0824
  -2413820.42246  -1877127.38342  23108551.8574   23108549.8464
      5076.5314
  -7363780.71948  -5703799.68043  22369365.7874   22369361.5804
      4756.1774
  -1729970.23849  -1347086.80546  19830017.1314   19830013.0454
       809.0874
   1099453.48848    850402.66444  21098224.8894   21098223.8814
     -1044.6854
   -989627.02348   -771215.94944  21984381.0764   21984375.9754
       281.1484
   -402084.71149   -314932.10945  21361832.0534   21361826.6274
       153.8384
  -7763514.05148  -6032536.96943  22261540.3894   22261538.8384
      5091.1554
 04  9  1 15  6 29.9980000  0  8G 3G 1G11G14G15G19G22G25
   1375207.67247   1063504.76642  23449412.4754   23449410.8734
      -984.8954
  -2489918.32847  -1936424.48442  23094071.1234   23094068.4434
      5073.1944
  -7435056.73048  -5759339.43443  22355802.0294   22355797.8694
      4751.7344
  -1742005.39849  -1356464.85246  19827726.3894   19827722.8114
       802.3444
   1115212.31348    862682.23444  21101224.1004   21101222.9634
     -1050.5884
   -993735.15648   -774417.12144  21983598.9434   21983594.2644
       273.8764
   -404355.35949   -316701.45345  21361399.4824   21361394.6114
       151.3774
  -7839834.39147  -6092007.36343  22247017.1394   22247014.8894
      5088.0234
 04  9  1 15  6 44.9980000  0  8G 3G 1G11G14G15G19G22G25
   1389992.39147   1075025.28542  23452226.1544   23452224.5374
      -985.6484
  -2565966.43046  -1995682.73042  23079599.3034   23079597.7834
      5069.8734
  -7506266.30548  -5814827.43043  22342251.8504   22342247.5064
      4747.3054
  -1753939.99649  -1365764.54346  19825455.3114   19825451.6934
       795.6404
   1131059.09448    875030.34044  21104239.8504   21104238.4754
     -1056.4524
   -997735.00048   -777533.89844  21982838.0924   21982833.3384
       266.6564
   -406589.57849   -318442.43045  21360974.7254   21360969.6394
       148.9484
  -7916107.65248  -6151441.07443  22232502.3654   22232500.6624
      5084.8844
 04  9  1 15  6 59.9980000  0  8G 3G 1G11G14G15G19G22G25
   1404788.14147   1086554.39842  23455041.7954   23455040.6504
      -986.3834
  -2641964.41846  -2054901.95742  23065137.4594   23065135.7644
      5066.5334
  -7577408.90248  -5870263.22743  22328713.6474   22328709.3264
      4742.8404
  -1765774.07849  -1374985.92246  19823203.7254   19823199.8774
       788.9394
   1146993.73048    887446.91044  21107271.7794   21107270.3934
     -1062.3094
  -1001626.68448   -780566.40644  21982097.3034   21982092.9944
       259.4464
   -408787.32049   -320154.97345  21360556.4364   21360551.8734
       146.5164
  -7992333.41048  -6210837.73843  22217996.8344   22217995.5374
      5081.7174
 04  9  1 15  7 14.9980000  0  8G 3G 1G11G14G15G19G22G25
   1419595.44947   1098092.55142  23457859.0454   23457857.8574
      -987.1544
  -2717911.40646  -2114081.44542  23050685.0534   23050683.8974
      5063.1334
  -7648483.50448  -5925646.02743  22315188.3504   22315184.7644
      4738.3074
  -1777507.05949  -1384128.50846  19820971.0144   19820967.1434
       782.1994
   1163016.81348    899932.39844  21110320.9124   21110319.1394
     -1068.2054
  -1005409.66048   -783514.21544  21981377.8894   21981373.1664
       252.1984
   -410947.60249   -321838.33245  21360145.3814   21360141.0804
       144.0194
  -8068510.64547  -6270196.60543  22203501.1394   22203499.3304
      5078.4824
 04  9  1 15  7 29.9980000  0  8G 3G 1G11G14G15G19G22G25
   1434413.12547   1109638.77042  23460679.1544   23460677.9244
      -987.8454
  -2793807.99646  -2173221.62142  23036242.3974   23036241.0144
      5059.7734
  -7719490.71148  -5980976.30943  22301676.3894   22301672.8574
      4733.8144
  -1789139.98449  -1393193.13346  19818757.5374   19818753.1274
       775.5284
   1179127.32049    912486.00844  21113387.0294   21113384.8894
     -1074.0344
  -1009085.10248   -786378.21144  21980678.4044   21980674.0884
       245.0294
   -413071.33249   -323493.20345  21359741.3034   21359737.0064
       141.5824
  -8144639.84047  -6329518.06243  22189014.4904   22189011.9824
      5075.2804
 04  9  1 15  7 44.9980000  0  8G 3G 1G11G14G15G19G22G25
   1449240.73847   1121192.70342  23463501.0064   23463499.1314
      -988.5084
  -2869654.11746  -2232322.50442  23021808.8974   23021808.0224
      5056.4084
  -7790430.26248  -6036253.87943  22288176.4674   22288173.4044
      4729.3034
  -1800673.24249  -1402180.09446  19816562.6154   19816558.7094
       768.8844
   1195324.92249    925107.49244  21116469.1074   21116466.9364
     -1079.8404
  -1012653.31648   -789158.66444  21979999.7644   21979995.1584
       237.8814
   -415158.52349   -325119.59845  21359344.0064   21359339.3614
       139.1464
  -8220720.57447  -6388801.75443  22174537.0764   22174535.0224
      5072.0494
 04  9  1 15  7 59.9980000  0  8G 3G 1G11G14G15G19G22G25
   1464079.30947   1132755.20342  23466324.4594   23466323.4794
      -989.2384
  -2945448.27347  -2291382.87942  23007386.0224   23007385.4084
      5052.9444
  -7861300.39148  -6091477.34843  22274690.9514   22274686.8424
      4724.6754
  -1812105.62949  -1411088.44946  19814386.9754   19814383.6584
       762.1594
   1211610.81349    937797.77344  21119568.4904   21119566.4244
     -1085.7264
  -1016113.35548   -791854.82844  21979340.9204   21979336.8974
       230.6694
   -417207.96149   -326716.58645  21358954.4754   21358949.5294
       136.6294
  -8296751.23048  -6448046.39843  22160068.0374   22160067.1114
      5068.7104
 04  9  1 15  8 14.9980000  0  8G 3G 1G11G14G15G19G22G25
   1478927.44947   1144325.14542  23469149.6784   23469148.6744
      -989.8764
  -3021191.35947  -2350403.48442  22992973.0374   22992972.0184
      5049.5394
  -7932101.94548  -6146647.38743  22261217.6784   22261214.2014
      4720.1044
  -1823438.51249  -1419919.27746  19812230.6784   19812227.2604
       755.5264
   1227983.65249    950555.80144  21122683.8264   21122681.8544
     -1091.5234
  -1019466.54348   -794467.73044  21978703.1544   21978698.9944
       223.5464
   -419220.69149   -328284.95745  21358571.3184   21358566.5534
       134.1824
  -8372732.44948  -6507252.51243  22145609.8654   22145608.5964
      5065.4154
 04  9  1 15  8 29.9980000  0  8G 3G 1G11G14G15G19G22G25
   1493785.75447   1155903.01642  23471977.5144   23471975.9394
      -990.5544
  -3096882.21147  -2409383.35542  22978569.0224   22978568.5534
      5046.0574
  -8002833.54348  -6201762.91843  22247757.8504   22247754.0534
      4715.4404
  -1834671.07049  -1428671.93046  19810093.4514   19810089.4944
       748.8374
   1244444.23449    963382.19544  21125816.3574   21125814.6274
     -1097.3724
  -1022712.19948   -796996.83244  21978085.2254   21978081.4394
       216.3774
   -421195.58649   -329823.86345  21358195.8814   21358190.2014
       131.6604
  -8448662.85247  -6566419.07443  22131160.7174   22131159.2834
      5062.0274
 04  9  1 15  8 44.9980000  0  8G 3G 1G11G14G15G19G22G25
   1508653.41846   1167488.17242  23474806.0144   23474805.5454
      -991.1784
  -3172521.03547  -2468322.72342  22964176.0764   22964174.5964
      5042.5884
  -8073495.50048  -6256824.18043  22234311.5534   22234307.6584
      4710.7974
  -1845803.84049  -1437346.82446  19807974.4904   19807970.7294
       742.1854
   1260991.91848    976276.47744  21128965.1154   21128963.4434
     -1103.1794
  -1025851.02748   -799442.69944  21977487.7174   21977484.2404
       209.2554
   -423133.12549   -331333.64145  21357826.6864   21357821.9554
       129.1694
  -8524542.48847  -6625546.05943  22116721.7324   22116719.8774
      5058.6424
 04  9  1 15  8 59.9980000  0  8G 3G 1G11G14G15G19G22G25
   1523529.85946   1179080.17242  23477636.9754   23477635.8464
      -991.7634
  -3248108.03946  -2527221.66843  22949792.3424   22949791.0374
      5039.1344
  -8144087.81248  -6311831.18043  22220877.9044   22220874.6824
      4706.1544
  -1856837.45749  -1445944.45346  19805874.9904   19805870.9824
       735.5744
   1277626.12948    989238.16844  21132130.4514   21132128.7094
     -1108.9474
  -1028883.63348   -801805.79344  21976910.9594   21976907.5614
       202.1744
   -425033.61749   -332814.56245  21357464.8894   21357460.6704
       126.6994
  -8600371.44147  -6684633.53943  22102291.3424   22102289.6504
      5055.2644
 04  9  1 15  9 14.9980000  0  8G 3G 1G11G14G15G19G22G25
   1538414.59846   1190678.62542  23480470.0294   23480468.7294
      -992.3164
  -3323643.21547  -2586080.25042  22935418.3184   22935417.3034
      5035.6784
  -8214610.25048  -6366783.74243  22207458.2874   22207454.4514
      4701.4964
  -1867772.35949  -1454465.15646  19803794.1934   19803790.2484
       728.9934
   1294346.53149   1002267.02744  21135312.6234   21135310.4044
     -1114.6934
  -1031810.57048   -804086.55944  21976353.8974   21976349.5644
       195.1294
   -426897.25449   -334266.77045  21357110.5374   21357105.7054
       124.2424
  -8676149.44148  -6743681.33643  22087871.6864   22087869.6114
      5051.8674
 04  9  1 15  9 29.9980000  0  8G 3G 1G11G14G15G19G22G25
   1553308.12146   1202283.93842  23483303.7874   23483303.1004
      -992.9024
  -3399125.51647  -2644897.62142  22921054.6074   22921053.5184
      5032.1534
  -8285061.63748  -6421680.91843  22194051.9044   22194048.2014
      4696.7594
  -1878607.82449  -1462908.38746  19801732.3504   19801728.8424
       722.3644
   1311153.72749   1015363.50044  21138510.9514   21138508.9754
     -1120.4804
  -1034631.18748   -806284.47344  21975817.0764   21975812.9244
       188.0414
   -428723.16849   -335689.56645  21356762.8814   21356758.2404
       121.7284
  -8751875.35548  -6802688.54744  22073461.4434   22073459.6864
      5048.3944
 04  9  1 15  9 44.9980000  0  8G 3G 1G11G14G15G19G22G25
   1568208.88346   1213894.89142  23486139.0454   23486138.4794
      -993.3844
  -3474555.98447  -2703674.62142  22906700.5294   22906699.5884
      5028.6984
  -8355442.96548  -6476523.52743  22180658.3654   22180654.6314
      4692.0894
  -1889345.29349  -1471275.25046  19799688.8894   19799685.4864
       715.8314
   1328046.29748   1028526.50044  21141725.5224   21141723.7404
     -1126.1714
  -1037347.02748   -808400.75444  21975300.4514   21975295.8614
       181.0564
   -430512.58249   -337083.94145  21356422.3974   21356417.6864
       119.2944
  -8827550.03148  -6861655.82843  22059061.1234   22059059.0534
      5044.9784
 04  9  1 15  9 59.9980000  0  8G 3G 1G11G14G15G19G22G25
   1583117.85946   1225512.23842  23488976.5064   23488975.4474
      -993.9324
  -3549933.18747  -2762410.10242  22892356.7874   22892355.9674
      5025.1474
  -8425752.58648  -6531310.24243  22167278.9514   22167275.5684
      4687.3084
  -1899983.76249  -1479564.96946  19797664.5454   19797660.8814
       709.2314
   1345025.39148   1041756.93444  21144956.5144   21144954.3894
     -1131.9404
  -1039957.04748   -810434.55944  21974803.7564   21974799.4004
       174.0014
   -432264.15249   -338448.82045  21356089.1544   21356084.5844
       116.7714
  -8903171.63748  -6920581.74643  22044670.6784   22044668.8974
      5041.4404
 04  9  1 15 10 14.9980000  0  8G 3G 1G11G14G15G19G22G25
   1598034.15646   1237135.30942  23491814.8574   23491813.7094
      -994.4204
  -3625257.39546  -2821104.27342  22878022.9514   22878022.4204
      5021.6144
  -8495990.68448  -6586041.22743  22153912.7174   22153909.4434
      4682.5404
  -1910523.86349  -1487778.04746  19795658.9984   19795655.0454
       702.6734
   1362090.31648   1055054.25444  21148203.5844   21148202.5614
     -1137.6624
  -1042462.01648   -812386.51244  21974327.4044   21974323.1314
       166.9984
   -433978.30949   -339784.53945  21355762.9204   21355758.1664
       114.2774
  -8978740.40648  -6979466.50043  22030290.3504   22030288.7524
      5037.9184
 04  9  1 15 10 29.9980000  0  8G 3G 1G11G14G15G19G22G25
   1612957.82846   1248764.09042  23494654.1234   23494653.4554
      -994.9114
  -3700528.06247  -2879756.75042  22863699.0614   22863698.4794
      5018.0454
  -8566156.59448  -6640715.94943  22140561.4904   22140557.6394
      4677.7274
  -1920965.39549  -1495914.30546  19793671.9124   19793668.3694
       696.1024
   1379241.13748   1068418.49644  21151467.4124   21151466.2564
     -1143.3884
  -1044861.86748   -814256.54344  21973870.2724   21973866.1314
       159.9904
   -435654.67649   -341090.81645  21355443.7794   21355439.4434
       111.7584
  -9054255.63348  -7038309.53143  22015920.5844   22015918.7014
      5034.3484
 04  9  1 15 10 44.9980000  0  8G 3G 1G11G14G15G19G22G25
   1627887.67246   1260397.70742  23497495.8264   23497494.3424
      -995.3234
  -3775746.01247  -2938368.11342  22849386.2794   22849384.5724
      5014.5304
  -8636250.89848  -6695334.88343  22127222.3504   22127218.8034
      4672.9544
  -1931309.58649  -1503974.71946  19791703.3894   19791699.4434
       689.6134
   1396476.82048   1081848.87144  21154747.5224   21154745.8184
     -1149.0464
  -1047157.82448   -816045.64144  21973433.6544   21973429.5494
       153.0644
   -437294.19949   -342368.40245  21355132.2174   21355127.8344
       109.3024
  -9129717.81648  -7097111.22343  22001560.5534   22001558.6624
      5030.8124
 04  9  1 15 10 59.9980000  0  8G 3G 1G11G14G15G19G22G25
   1642823.45746   1272035.93042  23500337.8424   23500336.9594
      -995.7194
  -3850910.97747  -2996938.21542  22835082.5454   22835080.7524
      5010.9984
  -8706273.22748  -6749897.73443  22113897.3814   22113894.3184
      4668.1554
  -1941556.52349  -1511959.35946  19789753.4514   19789749.4864
       683.1294
   1413797.21948   1095345.26244  21158043.2094   21158041.5144
     -1154.6934
  -1049350.04747   -817753.87944  21973016.7564   21973012.1154
       146.1484
   -438896.75849   -343617.16845  21354827.3504   21354822.7994
       106.8374
  -9205126.46948  -7155871.20343  21987210.7564   21987208.4754
      5027.2434
 04  9  1 15 11 14.9970000  0  8G 3G 1G11G14G15G19G22G25
   1657764.85946   1283678.51642  23503181.3294   23503180.0364
      -996.0934
  -3926016.77347  -3055462.21942  22820789.8214   22820788.7864
      5007.0534
  -8776217.56248  -6804399.81243  22100588.0014   22100584.3564
      4662.9564
  -1951704.70349  -1519867.03146  19787822.2204   19787818.6494
       676.5454
   1431201.91448   1108907.34044  21161355.0564   21161353.4234
     -1160.3134
  -1051437.74247   -819380.68444  21972619.4234   21972615.1144
       139.1804
   -440461.23848   -344836.26245  21354529.4624   21354525.2244
       104.2994
  -9280475.21548  -7214584.51243  21972872.3374   21972870.1144
      5023.2504
 04  9  1 15 11 29.9970000  0  8G 3G 1G11G14G15G19G22G25
   1672712.62147   1295326.10942  23506026.3064   23506025.1734
      -996.5174
  -4001074.16847  -3113948.49242  22806507.9854   22806505.0604
      5003.8264
  -8846093.73048  -6858848.78943  22087290.6344   22087287.0794
      4658.4114
  -1961756.56649  -1527699.66446  19785909.8764   19785906.0914
       670.1244
   1448692.12948   1122536.03544  21164683.5714   21164682.0954
     -1166.0144
  -1053422.37147   -820927.16444  21972241.8374   21972237.3884
       132.3094
   -441988.71548   -346026.53145  21354238.7044   21354234.6574
       101.8324
  -9355774.71148  -7273259.43444  21958543.3994   21958541.8684
      5019.9664
 04  9  1 15 11 44.9970000  0  8G 3G 1G11G14G15G19G22G25
   1687665.23447   1306977.47342  23508872.2514   23508869.6734
      -996.8414
  -4076078.12547  -3172393.14542  22792234.4464   22792232.5364
      5000.2644
  -8915897.09048  -6913241.01643  22074007.7984   22074003.7044
      4653.5574
  -1971711.94949  -1535457.10546  19784015.3994   19784011.4784
       663.6924
   1466266.32048   1136230.17244  21168027.6964   21168026.1464
     -1171.6134
  -1055304.33248   -822393.66844  21971883.5244   21971879.2904
       125.4644
   -443479.25449   -347188.00445  21353955.4544   21353950.7084
        99.3694
  -9431019.81248  -7331891.97743  21944224.5014   21944222.3214
      5016.3404
 04  9  1 15 11 59.9970000  0  8G 3G 1G11G14G15G19G22G25
   1702622.68447   1318632.60242  23511717.5954   23511715.7244
      -997.1634
  -4151028.17247  -3230795.77742  22777971.5244   22777970.3414
      4996.6704
  -8985626.96548  -6967575.97743  22060738.2124   22060734.1814
      4648.6584
  -1981570.65249  -1543139.21946  19782139.1494   19782135.3764
       657.2474
   1483924.53148   1149989.78944  21171388.0794   21171386.6184
     -1177.2144
  -1057083.60248   -823780.14544  21971545.7044   21971541.0324
       118.6184
   -444932.58649   -348320.48845  21353678.7984   21353674.2824
        96.8894
  -9506209.62948  -7390481.43743  21929916.2204   21929914.8764
      5012.6544
 04  9  1 15 12 14.9970000  0  8G 3G 1G11G14G15G19G22G25
   1717584.80147   1330291.38742  23514564.9544   23514563.4934
      -997.4744
  -4225923.98047  -3289156.16042  22763719.9784   22763717.6854
      4993.0544
  -9055282.96148  -7021853.37543  22047483.6884   22047479.6574
      4643.7334
  -1991332.72749  -1550746.03946  19780280.8994   19780277.6774
       650.8054
   1501666.88748   1163814.95344  21174764.4234   21174762.6774
     -1182.8244
  -1058760.17648   -825086.58244  21971226.2284   21971221.8844
       111.7724
   -446348.34848   -349423.70745  21353408.7984   21353404.5564
        94.3844
  -9581343.65248  -7449027.42644  21915618.7124   21915617.3494
      5008.9354
 04  9  1 15 12 29.9970000  0  8G 3G 1G11G14G15G19G22G25
   1732553.09446   1341954.96542  23517413.6424   23517412.2394
      -997.8864
  -4300763.45347  -3347472.62542  22749478.0874   22749476.4314
      4989.2984
  -9124862.72347  -7076071.37943  22034242.6344   22034238.9154
      4638.6514
  -2000996.57449  -1558276.30946  19778442.4784   19778438.9854
       644.2574
   1519494.98848   1177706.95744  21178157.6104   21178155.6184
     -1188.5404
  -1060332.58648   -826311.86744  21970927.3374   21970922.5284
       104.8274
   -447724.78148   -350496.28145  21353147.1494   21353142.9934
        91.7624
  -9656419.73848  -7507528.25043  21901331.5714   21901330.4624
      5005.0724
 04  9  1 15 12 44.9970000  0  8G 3G 1G11G14G15G19G22G25
   1747524.78147   1353621.19942  23520262.6814   23520260.9704
      -998.1124
  -4375548.93747  -3405747.03542  22735246.9314   22735245.7124
      4985.6994
  -9194368.55148  -7130231.75043  22021016.3534   22021012.5674
      4633.7224
  -2010564.80949  -1565732.08246  19776621.3844   19776618.2084
       637.8824
   1537406.20349   1191663.72344  21181565.8994   21181564.1184
     -1194.0814
  -1061803.51248   -827458.07044  21970647.3454   21970642.7164
        98.0624
   -449064.34448   -351540.11345  21352892.2674   21352887.1734
        89.3044
  -9731439.92648  -7565985.52744  21887055.9624   21887054.6264
      5001.3464
 04  9  1 15 12 59.9970000  0  8G 3G 1G11G14G15G19G22G25
   1762500.27347   1365290.38342  23523112.4154   23523111.1694
      -998.3664
  -4450279.58247  -3463978.71542  22721026.7434   22721024.8884
      4982.0434
  -9263799.49648  -7184333.79343  22007803.7744   22007799.7314
      4628.7304
  -2020037.05549  -1573113.06646  19774819.0244   19774816.0244
       631.4834
   1555400.88749   1205685.52344  21184990.0564   21184988.2984
     -1199.6464
  -1063172.78548   -828525.06244  21970386.6034   21970382.3454
        91.2854
   -450366.27049   -352554.62145  21352644.5484   21352639.5564
        86.7954
  -9806403.09048  -7624398.39544  21872791.4704   21872789.9584
      4997.5444
 04  9  1 15 13 14.9970000  0  8G 3G 1G11G14G15G19G22G25
   1777478.60547   1376961.77742  23525962.9624   23525961.4974
      -998.5554
  -4524955.85247  -3522168.02742  22706816.0954   22706814.2004
      4978.4184
  -9333155.73448  -7238377.61743  21994605.1884   21994601.9974
      4623.7494
  -2029414.00849  -1580419.79346  19773034.6884   19773031.3964
       625.1304
   1573478.21948   1219771.72344  21188429.6734   21188428.0634
     -1205.1554
  -1064441.06248   -829513.36744  21970145.3134   21970141.0754
        84.5524
   -451631.13349   -353540.26645  21352403.9784   21352399.1464
        84.3244
  -9881309.62948  -7682767.10944  21858537.5874   21858535.6574
      4993.7694
 04  9  1 15 13 29.9970000  0  7G 1G11G14G15G19G22G25
  -4599578.14847  -3580315.28542  22692616.0174   22692613.8134
      4974.8204
  -9402437.61748  -7292363.48843  21981422.0014   21981418.0484
      4618.7924
  -2038696.48449  -1587652.89846  19771268.4624   19771264.9194
       618.8324
   1591637.42648   1233921.71944  21191885.4464   21191883.7354
     -1210.6144
  -1065609.33648   -830423.72744  21969922.7824   21969918.5674
        77.8854
   -452859.52748   -354497.48445  21352170.1264   21352165.2594
        81.8934
  -9956159.69948  -7741091.83244  21844293.3294   21844291.6494
      4990.0054
 04  9  1 15 13 44.9970000  0  7G 1G11G14G15G19G22G25
  -4674145.05148  -3638419.37542  22678426.7284   22678424.5324
      4971.1274
  -9471643.59048  -7346290.22343  21968253.2124   21968248.6614
      4613.7324
  -2047883.55549  -1594811.66046  19769519.8844   19769516.2084
       612.4714
   1609879.46148   1248136.25844  21195357.3214   21195354.8924
     -1216.1364
  -1066676.67648   -831255.46144  21969719.8294   21969715.5014
        71.1564
   -454050.21548   -355425.30545  21351943.9784   21351938.9624
        79.3794
 -10030951.74248  -7799371.34043  21830060.9314   21830059.5714
      4986.1364
 04  9  1 15 13 59.9970000  0  7G 1G11G14G15G19G22G25
  -4748655.71547  -3696479.64542  22664247.3374   22664245.7744
      4967.3784
  -9540772.55548  -7400156.96543  21955097.8924   21955093.3414
      4608.5984
  -2056974.74649  -1601895.71946  19767790.2354   19767786.5524
       606.0794
   1628204.90648   1262415.80544  21198843.6654   21198842.3454
     -1221.6964
  -1067642.63748   -832008.19144  21969535.8604   21969531.7784
        64.3974
   -455202.43048   -356323.16445  21351724.5174   21351719.3214
        76.8144
 -10105684.56648  -7857604.71143  21815839.9784   21815838.0634
      4982.1884
 04  9  1 15 14 14.9970000  0  7G 1G11G14G15G19G22G25
  -4823109.98047  -3754495.95342  22650079.3844   22650077.9584
      4963.6184
  -9609824.15248  -7453963.40243  21941957.7044   21941954.0524
      4603.4404
  -2065970.16049  -1608905.14146  19766078.1884   19766075.0954
       599.6944
   1646613.55548   1276760.16444  21202347.2124   21202345.4814
     -1227.2434
  -1068507.67248   -832682.27344  21969371.3064   21969367.4854
        57.6694
   -456316.20349   -357191.05545  21351512.4384   21351508.1964
        74.2524
 -10180358.03948  -7915791.82043  21801629.6814   21801628.2634
      4978.2324
 04  9  1 15 14 29.9970000  0  7G 1G11G14G15G19G22G25
  -4897507.36747  -3812467.93742  22635921.4934   22635920.7554
      4959.8264
  -9678797.88348  -7507709.16843  21928832.4784   21928828.6964
      4598.2494
  -2074869.66449  -1615839.82846  19764384.9464   19764381.3134
       593.3004
   1665105.44948   1291169.39544  21205866.0714   21205864.8134
     -1232.7934
  -1069271.68748   -833277.62944  21969226.0244   21969221.9154
        50.9344
   -457391.15649   -358028.70745  21351307.9934   21351303.3494
        71.6644
 -10254971.20348  -7973931.94543  21787431.7514   21787430.1064
      4974.2114
 04  9  1 15 14 44.9970000  0  7G 1G11G14G15G19G22G25
  -4971847.39147  -3870395.23042  22621775.9544   22621774.3534
      4956.0024
  -9747693.11348  -7561393.76643  21915721.9464   21915718.1344
      4593.0154
  -2083673.40249  -1622699.89146  19762709.5714   19762706.0364
       586.9164
   1683680.69148   1305643.56344  21209400.8454   21209399.5564
     -1238.3494
  -1069934.66847   -833794.27044  21969100.0794   21969095.7634
        44.1994
   -458426.98049   -358835.86745  21351110.8134   21351106.8414
        69.0554
 -10329523.60948  -8032024.72744  21773244.7514   21773243.2284
      4970.1604
 04  9  1 15 14 59.9970000  0  7G 1G11G14G15G19G22G25
  -5046130.14847  -3928277.89543  22607640.5874   22607639.1264
      4952.1844
  -9816509.88748  -7615017.21943  21902626.5244   21902622.7474
      4587.7854
  -2092381.72749  -1629485.60246  19761052.5324   19761048.9664
       580.5554
   1702338.73048   1320182.26244  21212951.3924   21212950.1144
     -1243.8694
  -1070497.21546   -834232.65244  21968992.6494   21968988.5444
        37.5034
   -459424.01248   -359612.78545  21350921.4854   21350916.5444
        66.4694
 -10404015.09048  -8090070.03144  21759069.6344   21759067.0994
      4966.0994
 04  9  1 15 15 14.9970000  0  7G 1G11G14G15G19G22G25
  -5120356.96547  -3986116.98043  22593515.6734   22593513.9664
      4948.4544
  -9885249.24248  -7668580.34843  21889546.3994   21889542.0834
      4582.6244
  -2100996.39149  -1636198.33246  19759412.9234   19759409.5054
       574.3114
   1721077.92249   1334784.18444  21216517.8764   21216515.9314
     -1249.2794
  -1070961.05947   -834594.12944  21968904.4384   21968900.2004
        30.9234
   -460383.53948   -360360.47745  21350738.3374   21350734.0284
        63.9684
 -10478446.81648  -8148068.76643  21744905.4934   21744903.4744
      4962.1154
 04  9  1 15 15 29.9970000  0  7G 1G11G14G15G19G22G25
  -5194525.16847  -4043910.38342  22579401.4704   22579400.5714
      4944.5474
  -9953908.35548  -7722080.95743  21876480.5244   21876476.8334
      4577.2744
  -2109515.09049  -1642836.28946  19757792.0404   19757788.4894
       567.9134
   1739900.58648   1349451.16444  21220099.1964   21220097.7004
     -1254.8444
  -1071324.05548   -834877.01644  21968835.6344   21968831.8684
        24.2004
   -461303.13349   -361077.07845  21350563.8294   21350559.0364
        61.3064
 -10552815.79348  -8206018.62144  21730753.8604   21730751.9664
      4957.9324
 04  9  1 15 15 44.9970000  0  7G 1G11G14G15G19G22G25
  -5268635.96548  -4101659.04343  22565298.2744   22565297.2474
      4940.7204
 -10022488.45348  -7775519.99244  21863430.5484   21863426.5094
      4572.0074
  -2117939.43449  -1649400.72346  19756189.0484   19756185.5444
       561.6234
   1758805.05948   1364181.89144  21223697.1034   21223694.9424
     -1260.2984
  -1071587.81248   -835082.57044  21968785.0324   21968781.2714
        17.5844
   -462184.11349   -361763.57845  21350396.1494   21350391.6384
        58.7324
 -10627123.04348  -8263920.37544  21716613.4704   21716612.1064
      4953.8174
 04  9  1 15 15 59.9970000  0  7G 1G11G14G15G19G22G25
  -5342690.76647  -4159364.07843  22551206.2984   22551205.0324
      4936.9874
 -10090990.66048  -7828898.33243  21850394.7434   21850390.8214
      4566.8144
  -2126271.13349  -1655892.96946  19754603.3994   19754600.2594
       555.4474
   1777789.56348   1378974.97744  21227309.2744   21227307.9034
     -1265.6344
  -1071754.30548   -835212.34444  21968753.5484   21968749.6424
        11.0994
   -463028.07849   -362421.22745  21350235.3294   21350231.3254
        56.2644
 -10701369.82448  -8321775.00044  21702484.8534   21702482.6964
      4949.7854
 04  9  1 15 16 14.9970000  0  7G 1G11G14G15G19G22G25
  -5416689.00447  -4217025.05142  22537125.1264   22537123.8134
      4933.2164
 -10159414.27748  -7882215.44143  21837373.7354   21837370.0564
      4561.5744
  -2134509.85949  -1662312.76246  19753035.8454   19753032.5444
       549.2484
   1796854.32048   1393830.57844  21230937.6494   21230935.5054
     -1270.9844
  -1071823.35948   -835266.18044  21968741.0714   21968736.2204
         4.6044
   -463834.57049   -363049.68745  21350081.8534   21350077.6814
        53.7664
 -10775555.38348  -8379581.91844  21688367.5404   21688365.2824
      4945.7044
 04  9  1 15 16 29.9970000  0  7G 1G11G14G15G19G22G25
  -5490630.20747  -4274641.57842  22523054.8684   22523053.3644
      4929.4144
 -10227758.70748  -7935470.85243  21824368.6654   21824364.8924
      4556.2954
  -2142655.67649  -1668660.15646  19751485.8064   19751482.1774
       543.0544
   1815999.46148   1408748.82844  21234580.4544   21234578.6264
     -1276.3434
  -1071795.00448   -835244.12144  21968746.4154   21968741.6574
        -1.8904
   -464603.26649   -363648.69545  21349935.8994   21349931.5054
        51.2464
 -10849679.14548  -8437340.69544  21674262.4704   21674260.2394
      4941.5844
 04  9  1 15 16 44.9970000  0  7G 1G11G14G15G19G22G25
  -5564513.42247  -4332212.91842  22508995.0174   22508993.6344
      4925.5484
 -10296022.91848  -7988663.73843  21811378.2204   21811374.5524
      4550.9474
  -2150708.07049  -1674934.76246  19749953.6344   19749949.5564
       536.8264
   1835225.44948   1423730.08244  21238239.0404   21238238.0404
     -1281.7334
  -1071668.79748   -835145.80944  21968770.2904   21968765.9504
        -8.4144
   -465333.40249   -364217.64544  21349796.3844   21349792.3724
        48.6764
 -10923739.76248  -8495050.25844  21660169.1264   21660166.7514
      4937.3744
 04  9  1 15 16 59.9970000  0  7G 1G11G14G15G19G22G25
  -5638339.13747  -4389739.43042  22494946.0094   22494943.9354
      4921.7144
 -10364207.07848  -8041794.25043  21798403.2824   21798399.5794
      4545.6114
  -2158667.80549  -1681137.16046  19748438.6654   19748435.3454
       530.6494
   1854531.50848   1438773.72744  21241913.3764   21241911.9974
     -1287.0714
  -1071445.65648   -834971.97344  21968812.4234   21968808.3294
       -14.8764
   -466025.50849   -364756.98044  21349665.0794   21349660.5284
        46.1404
 -10997737.51648  -8552710.84444  21646087.7744   21646086.1534
      4933.1844
 04  9  1 15 17 14.9970000  0  7G 1G11G14G15G19G22G25
  -5712108.10547  -4447221.77042  22480908.6574   22480907.1464
      4917.9314
 -10432311.88748  -8094862.93444  21785443.5874   21785440.3604
      4540.3214
  -2166536.17649  -1687268.35246  19746941.3064   19746937.9314
       524.5584
   1873916.44148   1453878.84044  21245601.8844   21245601.2904
     -1292.3294
  -1071126.82447   -834723.56644  21968874.0634   21968868.8134
       -21.2554
   -466680.55549   -365267.42244  21349540.5174   21349535.9464
        43.6704
 -11071673.18448  -8610323.03544  21632018.7904   21632016.5914
      4929.0454
 04  9  1 15 17 29.9970000  0  7G 1G11G14G15G19G22G25
  -5785819.09047  -4504658.88343  22466881.6344   22466880.3374
      4914.0664
 -10500335.96948  -8147868.72344  21772499.0014   21772495.2594
      4534.9394
  -2174312.13349  -1693327.55946  19745461.5634   19745457.8374
       518.3974
   1893381.23448   1469046.16044  21249305.8994   21249304.8964
     -1297.6534
  -1070711.50447   -834399.97344  21968952.2044   21968948.0444
       -27.6884
   -467297.40649   -365748.09844  21349423.1034   21349418.8414
        41.1234
 -11145545.03148  -8667885.50044  21617961.4234   21617959.1184
      4924.7904
 04  9  1 15 17 44.9970000  0  7G 1G11G14G15G19G22G25
  -5859472.77347  -4562051.36342  22452865.2204   22452864.2244
      4910.2464
 -10568279.90648  -8200812.04344  21759569.8064   21759565.8414
      4529.5964
  -2181996.77049  -1699315.59846  19743999.0794   19743995.7714
       512.3094
   1912924.67248   1484274.79344  21253024.8454   21253023.4034
     -1302.8964
  -1070200.91847   -834002.15644  21969049.4234   21969045.3884
       -34.0394
   -467876.70348   -366199.53944  21349312.9234   21349308.0134
        38.6204
 -11219353.66848  -8725398.70744  21603915.8764   21603914.3414
      4920.5764
 04  9  1 15 17 59.9970000  0  7G 1G11G14G15G19G22G25
  -5933069.51647  -4619399.46943  22438861.2124   22438859.8214
      4906.4494
 -10636143.84048  -8253693.02343  21746655.4704   21746651.8294
      4524.2624
  -2189590.82849  -1705233.05146  19742554.3294   19742550.4424
       506.2714
   1932546.12548   1499564.19944  21256758.6264   21256756.7474
     -1308.0974
  -1069595.88347   -833530.71944  21969164.8374   21969160.5244
       -40.3364
   -468419.20748   -366622.28944  21349209.6184   21349205.1464
        36.1674
 -11293099.23448  -8782862.77744  21589882.4934   21589880.6264
      4916.3714
 04  9  1 15 18 14.9970000  0  7G 1G11G14G15G19G22G25
  -6006608.80147  -4676702.80542  22424867.0244   22424865.6574
      4902.6194
 -10703927.01248  -8306511.07843  21733756.7124   21733753.5134
      4518.8784
  -2197094.23849  -1711079.87146  19741126.4314   19741122.7474
       500.2274
   1952245.65248   1514914.45344  21260507.3844   21260505.8134
     -1313.3024
  -1068896.19947   -832985.55144  21969297.5714   21969293.4074
       -46.6464
   -468924.41849   -367015.97344  21349113.8294   21349108.9744
        33.6814
 -11366781.06248  -8840277.17644  21575861.0324   21575858.9074
      4912.1224
 04  9  1 15 18 29.9970000  0  7G 1G11G14G15G19G22G25
  -6080090.34447  -4733961.16843  22410883.7904   22410882.1344
      4898.7704
 -10771629.02348  -8359265.89544  21720873.5174   21720870.4074
      4513.4674
  -2204506.98849  -1716856.05146  19739715.7124   19739712.3994
       494.1834
   1972023.19948   1530325.49244  21264270.8764   21264269.2864
     -1318.5034
  -1068102.22748   -832366.90644  21969449.0324   21969444.9544
       -52.9324
   -469392.20749   -367380.50444  21349024.3924   21349019.6734
        31.1864
 -11440398.57448  -8897641.46944  21561852.3374   21561850.5364
      4907.8344
 04  9  1 15 18 44.9970000  0  7G 1G11G14G15G19G22G25
  -6153513.59047  -4791174.07442  22396911.1034   22396909.9664
      4894.8834
 -10839249.25448  -8411956.98044  21708005.6814   21708002.7714
      4508.0154
  -2211828.95349  -1722561.48846  19738322.5244   19738319.1884
       488.1314
   1991878.97348   1545797.47744  21268049.2594   21268048.1264
     -1323.7184
  -1067213.74647   -831674.62144  21969617.9784   21969614.1304
       -59.2324
   -469822.09848   -367715.50044  21348942.4544   21348937.7394
        28.6594
 -11513950.98448  -8954955.02344  21547856.1034   21547853.8294
      4903.4944
 04  9  1 15 18 59.9970000  0  7G 1G11G14G15G19G22G25
  -6226879.08647  -4848342.00042  22382950.5244   22382949.2864
      4891.0334
 -10906788.11748  -8464584.65244  21695153.2594   21695150.3104
      4502.5914
  -2219061.13749  -1728196.96546  19736946.4234   19736942.6384
       482.1464
   2011811.84848   1561329.55944  21271842.4934   21271840.8064
     -1328.8584
  -1066231.86747   -830909.55944  21969804.7744   21969800.2394
       -65.4594
   -470214.90649   -368021.61744  21348868.1184   21348863.1854
        26.1874
 -11587438.77748  -9012218.23044  21533871.3454   21533870.1104
      4899.1864
 04  9  1 15 19 14.9970000  0  7G 1G11G14G15G19G22G25
  -6300187.08647  -4905465.12943  22369001.0014   22368999.2124
      4887.2004
 -10974245.63348  -8517148.95744  21682316.7824   21682313.3064
      4497.1684
  -2226204.10249  -1733762.91446  19735586.8604   19735583.5834
       476.1984
   2031821.39548   1576921.36744  21275650.7204   21275649.4194
     -1333.9704
  -1065157.40647   -830072.35244  21970009.1344   21970004.8994
       -71.6314
   -470570.86749   -368299.00445  21348800.4234   21348795.7864
        23.7314
 -11660861.85548  -9069431.01244  21519899.2984   21519897.8174
      4894.8724
 04  9  1 15 19 29.9970000  0  7G 1G11G14G15G19G22G25
  -6373437.79347  -4962543.59443  22355061.6654   22355060.2824
      4883.3804
 -11041621.82448  -8569649.89144  21669495.4234   21669492.2674
      4491.7464
  -2233258.41449  -1739259.79346  19734244.6494   19734241.1344
       470.2884
   2051907.03148   1592572.46944  21279473.1654   21279471.5914
     -1339.0424
  -1063990.89548   -829163.41844  21970230.9464   21970227.5094
       -77.7674
   -470890.32848   -368547.96145  21348739.4544   21348735.3414
        21.2974
 -11734220.32048  -9126593.42244  21505939.6884   21505937.9114
      4890.5644
 04  9  1 15 19 44.9970000  0  7G 1G11G14G15G19G22G25
  -6446631.53147  -5019577.66443  22341133.9704   22341132.3724
      4879.5834
 -11108916.94548  -8622087.63744  21656689.7434   21656686.5014
      4486.3414
  -2240224.73849  -1744688.10946  19732919.2124   19732915.2434
       464.4224
   2072067.94148   1608282.23044  21283308.7354   21283307.8064
     -1344.0614
  -1062733.12548   -828183.37544  21970470.7904   21970466.7044
       -83.8514
   -471173.81649   -368768.88345  21348685.4544   21348681.1884
        18.8994
 -11807514.25448  -9183705.57844  21491992.3214   21491990.6574
      4886.2624
 04  9  1 15 19 59.9970000  0  7G 1G11G14G15G19G22G25
  -6519767.64547  -5076566.84443  22327216.2514   22327214.5674
      4875.7414
 -11176130.13748  -8674461.55944  21643899.0484   21643895.7284
      4480.8794
  -2247102.84449  -1750047.68446  19731610.1654   19731606.5564
       458.5404
   2092304.35548   1624050.82843  21287159.6814   21287158.2984
     -1349.0944
  -1061384.04748   -827132.17644  21970727.6184   21970723.4274
       -89.9394
   -471420.78549   -368961.34845  21348638.6654   21348634.1224
        16.4654
 -11880742.74248  -9240766.72344  21478057.6264   21478055.6814
      4881.8994
 04  9  1 15 20 14.9970000  0  7G 1G11G14G15G19G22G25
  -6592847.23447  -5133512.00043  22313309.0714   22313308.3024
      4871.9734
 -11243262.50048  -8726772.48844  21631125.0014   21631120.8064
      4475.4914
  -2253894.26649  -1755339.70346  19730317.5874   19730313.9584
       452.7614
   2112614.84048   1639877.14143  21291024.7434   21291023.4894
     -1354.0324
  -1059945.19548   -826011.03544  21971001.4464   21970997.0244
       -95.9234
   -471632.44149   -369126.29744  21348598.2904   21348594.1144
        14.1104
 -11953906.72748  -9297777.60944  21464134.9854   21464132.8924
      4877.5994
 04  9  1 15 20 29.9970000  0  7G 1G11G14G15G19G22G25
  -6665871.22347  -5190413.82043  22299413.5874   22299412.1924
      4868.2664
 -11310314.55948  -8779020.85244  21618365.2434   21618361.3964
      4470.1374
  -2260600.14549  -1760565.07846  19729041.6264   19729038.3644
       447.0594
   2132998.12948   1655760.17244  21294904.1264   21294902.3174
     -1358.8864
  -1058417.95748   -824821.01244  21971291.9314   21971287.8764
      -101.8164
   -471809.84049   -369264.55945  21348564.8604   21348560.4784
        11.8274
 -12027006.90648  -9354738.78144  21450224.5174   21450222.3684
      4873.3454
 04  9  1 15 20 44.9970000  0  7G 1G11G14G15G19G22G25
  -6738839.12547  -5247271.93443  22285527.8844   22285527.1574
      4864.5274
 -11377285.68748  -8831206.15244  21605621.1424   21605617.0604
      4464.7424
  -2267220.48049  -1765723.79746  19727782.2124   19727779.0364
       441.3564
   2153454.32448   1671700.03544  21298796.9384   21298795.1924
     -1363.7464
  -1056802.16848   -823561.98044  21971599.3134   21971595.3964
      -107.7194
   -471952.65649   -369375.85945  21348537.4784   21348533.1964
         9.5214
 -12100042.60548  -9411649.70344  21436325.9544   21436324.2784
      4869.0474
 04  9  1 15 20 59.9970000  0  7G 1G11G14G15G19G22G25
  -6811750.58647  -5304086.05143  22271653.4384   22271652.1104
      4860.7644
 -11444175.54748  -8883328.12144  21592892.4154   21592888.4464
      4459.3244
  -2273755.30549  -1770815.88346  19726538.5014   19726534.9034
       435.6554
   2173983.37548   1687696.66844  21302703.1964   21302701.2394
     -1368.6034
  -1055098.14848   -822234.21544  21971923.4784   21971919.5054
      -113.6014
   -472060.68449   -369460.06244  21348517.0324   21348513.0874
         7.2024
 -12173013.22348  -9468509.89144  21422440.0324   21422437.6494
      4864.7084
 04  9  1 15 21 14.9970000  0  7G 1G11G14G15G19G22G25
  -6884605.91848  -5360856.45743  22257789.6734   22257788.7084
      4857.0224
 -11510984.21948  -8935386.82444  21580179.1264   21580175.0794
      4453.9114
  -2280205.20749  -1775841.78946  19725311.1654   19725307.4314
       429.9934
   2194584.56348   1703749.51244  21306623.5404   21306621.4974
     -1373.4124
  -1053306.66448   -820838.28944  21972264.2744   21972260.3644
      -119.4324
   -472134.34049   -369517.48045  21348502.9854   21348498.7124
         4.9104
 -12245918.84048  -9525319.44944  21408566.9384   21408564.7204
      4860.3744
 04  9  1 15 21 29.9970000  0  7G 1G11G14G15G19G22G25
  -6957403.34448  -5417581.73843  22243936.8064   22243935.6384
      4853.1624
 -11577709.80948  -8987380.79343  21567481.6734   21567477.5874
      4448.3734
  -2286568.89549  -1780800.50846  19724099.6034   19724096.3294
       424.2464
   2215259.36348   1719859.71944  21310557.7044   21310556.1464
     -1378.3204
  -1051426.32048   -819373.12144  21972622.4384   21972618.5524
      -125.3564
   -472171.95349   -369546.81645  21348496.1884   21348491.3644
         2.5084
 -12318757.66448  -9582076.96944  21394706.1184   21394704.5674
      4855.9224
 04  9  1 15 21 44.9970000  0  7G 1G11G14G15G19G22G25
  -7030141.93747  -5474261.17643  22230095.2984   22230094.5794
      4849.2404
 -11644351.21548  -9039309.16844  21554800.0244   21554796.2514
      4442.7604
  -2292845.74249  -1785691.56646  19722905.6884   19722902.1924
       418.4574
   2236008.22748   1736027.64544  21314506.2044   21314504.9814
     -1383.2584
  -1049456.77048   -817838.44544  21972997.6104   21972993.4894
      -131.3034
   -472172.67249   -369547.37545  21348495.9234   21348491.5244
         0.0484
 -12391528.38748  -9638781.41044  21380858.2514   21380857.1264
      4851.3824
 04  9  1 15 21 59.9970000  0  7G 1G11G14G15G19G22G25
  -7102822.78547  -5530895.62143  22216265.0094   22216263.2044
      4845.3904
 -11710909.50848  -9091172.77043  21542134.2514   21542130.6264
      4437.2204
  -2299037.21549  -1790516.10546  19721727.5014   19721723.9664
       412.7654
   2256829.74648   1752252.16044  21318467.8534   21318467.6494
     -1388.1014
  -1047399.46948   -816235.38744  21973388.5564   21973384.4074
      -137.1534
   -472137.81249   -369520.23044  21348502.4624   21348498.2744
        -2.3244
 -12464231.98448  -9695433.54344  21367023.2434   21367021.9314
      4846.9074
 04  9  1 15 22 14.9970000  0  7G 1G11G14G15G19G22G25
  -7175445.80547  -5587484.99243  22202444.5244   22202443.5834
      4841.5354
 -11777384.24248  -9142971.25444  21529485.0484   21529480.8134
      4431.6494
  -2305143.55149  -1795274.30146  19720565.6494   19720562.4624
       407.0894
   2277723.66448   1768533.09044  21322444.0174   21322443.9074
     -1392.9284
  -1045254.88348   -814564.32044  21973797.0484   21973793.1304
      -142.9724
   -472067.45749   -369465.43445  21348515.9234   21348511.6104
        -4.6904
 -12536868.09448  -9752033.09044  21353200.7824   21353198.9504
      4842.4074
 04  9  1 15 22 29.9970000  0  7G 1G11G14G15G19G22G25
  -7248010.38347  -5644028.81643  22188635.9464   22188634.9624
      4837.6394
 -11843774.57848  -9194704.00444  21516850.9784   21516847.4664
      4426.0224
  -2311164.60549  -1799966.03546  19719419.5874   19719416.3844
       401.4044
   2298690.24648   1784870.65244  21326434.0324   21326433.6924
     -1397.7724
  -1043022.76648   -812825.05144  21974222.4544   21974218.1464
      -148.8084
   -471960.96949   -369382.48044  21348535.8454   21348531.7044
        -7.0994
 -12609435.99648  -9808579.47744  21339391.3294   21339389.2004
      4837.8604
 04  9  1 15 22 44.9970000  0  7G 1G11G14G15G19G22G25
  -7320516.54747  -5700527.13743  22174839.0324   22174837.4584
      4833.7444
 -11910080.55548  -9246371.00844  21504233.8684   21504230.3724
      4420.3984
  -2317100.73449  -1804591.59846  19718290.1654   19718286.6854
       395.7424
   2319729.03948   1801264.48044  21330437.6264   21330437.3334
     -1402.5864
  -1040703.73048   -811018.03544  21974663.3684   21974659.3844
      -154.6024
   -471818.50049   -369271.49245  21348563.2744   21348558.7284
        -9.4984
 -12681935.31648  -9865072.44944  21325595.6574   21325592.8454
      4833.2884
 04  9  1 15 22 59.9970000  0  7G 1G11G14G15G19G22G25
  -7392963.42647  -5756979.25843  22161053.0634   22161051.5994
      4829.7924
 -11976301.13348  -9297971.45744  21491632.3454   21491628.0174
      4414.7054
  -2322951.35249  -1809150.53546  19717176.3454   19717173.4274
       390.0414
   2340840.49648   1817714.92643  21334455.0874   21334454.2164
     -1407.4304
  -1038297.30948   -809142.93444  21975121.5874   21975117.2044
      -160.4284
   -471639.35949   -369131.92245  21348597.2124   21348592.7004
       -11.9434
 -12754364.91848  -9921511.09444  21311812.8454   21311810.4624
      4828.6404
 04  9  1 15 23 14.9970000  0  7G 1G11G14G15G19G22G25
  -7465350.75048  -5813384.98043  22147277.6964   22147276.5564
      4825.8224
 -12042435.71148  -9349504.89544  21479047.4704   21479043.4464
      4408.9724
  -2328716.62149  -1813642.95746  19716079.1884   19716076.7554
       384.3514
   2362024.46148   1834221.88344  21338486.4934   21338485.1774
     -1412.2644
  -1035803.80148   -807199.98044  21975595.9154   21975591.6034
      -166.2344
   -471423.36749   -368963.63344  21348637.8924   21348633.7594
       -14.3994
 -12826724.51648  -9977895.17644  21298043.1424   21298040.8994
      4823.9734
 04  9  1 15 23 29.9970000  0  7G 1G11G14G15G19G22G25
  -7537676.97748  -5869743.09043  22133514.5714   22133513.8494
      4821.7484
 -12108482.80548  -9400970.17644  21466478.6574   21466475.1064
      4403.1404
  -2334395.40249  -1818067.99646  19714999.1264   19714995.7284
       378.5854
   2383282.09048   1850786.23844  21342531.4854   21342530.1614
     -1417.1754
  -1033222.08248   -805188.27044  21976086.6264   21976083.0324
      -172.1154
   -471169.11749   -368765.53144  21348687.1494   21348682.1144
       -16.9504
 -12899012.46148 -10034223.42644  21284286.7284   21284285.5954
      4819.1964
 04  9  1 15 23 44.9970000  0  7G 1G11G14G15G19G22G25
  -7609942.77748  -5926054.10243  22119762.2354   22119762.0524
      4817.7204
 -12174442.88748  -9452367.63743  21453926.9704   21453923.2594
      4397.3394
  -2339988.82449  -1822426.51246  19713934.3294   19713931.2354
       372.8954
   2404612.30148   1867407.15644  21346590.9624   21346589.2314
     -1422.0144
  -1030553.30948   -803108.73844  21976594.7744   21976591.3644
      -177.9184
   -470877.47349   -368538.29745  21348742.7284   21348738.5834
       -19.4434
 -12971229.11348 -10090496.12944  21270544.1734   21270542.4154
      4814.4434
 04  9  1 15 23 59.9970000  0  7G 1G11G14G15G19G22G25
  -7682147.18748  -5982317.28143  22106022.7204   22106021.7084
      4813.6274
 -12240314.71548  -9503696.33644  21441392.3134   21441388.5094
      4391.4554
  -2345496.14149  -1826717.93446  19712886.6104   19712883.1224
       367.1544
   2426015.84048   1884085.20744  21350663.8294   21350662.5094
     -1426.9034
  -1027796.91048   -800960.93444  21977118.7514   21977115.5564
      -183.7604
   -470547.45749   -368281.15245  21348805.1494   21348800.8494
       -22.0014
 -13043373.21548 -10146712.29744  21256815.7904   21256814.1574
      4809.6074
 04  9  1 15 24 14.9970000  0  7G 1G11G14G15G19G22G25
  -7754290.52348  -6038532.87143  22092294.6814   22092293.7474
      4809.5564
 -12306098.64548  -9554956.53944  21428873.7984   21428870.1064
      4385.5954
  -2350918.10949  -1830942.84446  19711854.7434   19711851.3064
       361.4654
   2447491.91448   1900819.77344  21354750.8454   21354749.3064
     -1431.7384
  -1024953.81248   -798745.57044  21977660.1424   21977656.2904
      -189.5404
   -470179.64549   -367994.57844  21348874.9854   21348870.4544
       -24.5214
 -13115444.86748 -10202872.01644  21243100.7904   21243099.8884
      4804.7774
 04  9  1 15 24 29.9970000  0  7G 1G11G14G15G19G22G25
  -7826373.77048  -6094701.62943  22078577.1574   22078576.6574
      4805.5504
 -12371795.33648  -9606148.76244  21416372.0794   21416368.4234
      4379.7794
  -2356256.05949  -1835102.30146  19710839.0874   19710835.7244
       355.8634
   2469039.17648   1917609.82443  21358850.7984   21358849.0364
     -1436.4844
  -1022025.39847   -796463.71943  21978217.3454   21978213.0634
      -195.2284
   -469774.88348   -367679.19945  21348952.1184   21348947.7634
       -26.9844
 -13187444.85248 -10258975.88744  21229399.7354   21229398.1034
      4799.9994
 04  9  1 15 24 44.9960000  0  7G 1G11G14G15G19G22G25
  -7898391.82048  -6150819.59843  22064872.9494   22064871.5004
      4801.2034
 -12437399.96148  -9657269.25044  21403888.0044   21403883.8324
      4373.6424
  -2361509.81249  -1839196.14546  19709839.3164   19709835.7544
       350.2504
   2490656.07448   1934454.13743  21362964.2854   21362962.7624
     -1441.1274
  -1019012.18048   -794115.79743  21978790.7854   21978787.0354
      -200.8814
   -469333.25449   -367335.10945  21349036.5594   21349032.1024
       -29.4424
 -13259367.89548 -10315019.81244  21215713.3404   21215711.5744
      4794.8704
 04  9  1 15 24 59.9960000  0  7G 1G11G14G15G19G22G25
  -7970352.62148  -6206892.95743  22051179.3244   22051178.0234
      4797.3874
 -12502919.50848  -9708323.45744  21391419.8244   21391416.0904
      4367.9704
  -2366678.64149  -1843223.80546  19708855.8244   19708852.3834
       344.5894
   2512346.73448   1951355.91043  21367092.0664   21367091.1524
     -1446.0444
  -1015912.47748   -791700.47743  21979381.0744   21979376.8564
      -206.6474
   -468853.15248   -366961.01244  21349127.6374   21349123.4534
       -32.0074
 -13331221.74249 -10371009.81244  21202040.6214   21202038.6884
      4790.2574
 04  9  1 15 25 14.9960000  0  7G 1G11G14G15G19G22G25
  -8042253.10248  -6262919.30143  22037497.0984   22037495.9534
      4793.3654
 -12568351.30148  -9759309.25044  21378968.4964   21378964.7854
      4362.1204
  -2371764.20749  -1847186.59446  19707887.8324   19707884.4654
       339.0384
   2534107.65248   1968312.42643  21371232.9734   21371231.5784
     -1450.7284
  -1012728.61748   -789219.59043  21979987.0744   21979982.6764
      -212.2574
   -468336.44549   -366558.40244  21349225.9184   21349221.2504
       -34.4474
 -13403003.09048 -10426943.32044  21188380.6524   21188379.5084
      4785.4234
 04  9  1 15 25 29.9960000  0  7G 1G11G14G15G19G22G25
  -8114092.72348  -6318898.23443  22023825.9884   22023825.1804
      4789.3084
 -12633694.53148  -9810226.07044  21366534.6064   21366530.2234
      4356.2154
  -2376766.55149  -1851084.53146  19706936.2314   19706932.6884
       333.4904
   2555938.89848   1985323.75444  21375387.5594   21375385.5594
     -1455.4164
  -1009460.61347   -786673.12943  21980608.7854   21980604.5904
      -217.8674
   -467782.64148   -366126.88344  21349330.8484   21349327.2344
       -36.9204
 -13474711.30548 -10482819.82444  21174734.9494   21174732.9264
      4780.5484
 04  9  1 15 25 44.9960000  0  7G 1G11G14G15G19G22G25
  -8185870.60548  -6374829.05943  22010167.8094   22010166.1844
      4785.1924
 -12698947.93448  -9861072.87944  21354117.0274   21354113.2814
      4350.2274
  -2381685.07449  -1854917.16046  19706000.4734   19705997.1064
       327.9024
   2577841.10548   2002390.36743  21379555.3164   21379553.2034
     -1460.1474
  -1006107.97748   -784060.73043  21981247.1604   21981242.3204
      -223.5094
   -467190.94148   -365665.85544  21349443.7774   21349439.7154
       -39.4474
 -13546345.14549 -10538638.39144  21161103.9344   21161101.6804
      4775.5894
 04  9  1 15 25 59.9960000  0  7G 1G11G14G15G19G22G25
  -8257586.88748  -6430711.89143  21996520.3404   21996519.3754
      4781.0854
 -12764111.53948  -9911849.71144  21341717.1134   21341713.2154
      4344.2404
  -2386520.18749  -1858684.79346  19705080.0984   19705076.2464
       322.3414
   2599813.81348   2019511.91843  21383736.6764   21383734.5314
     -1464.8474
  -1002671.37148   -781382.89143  21981900.6134   21981896.7424
      -229.1074
   -466561.57848   -365175.46544  21349563.7544   21349559.3594
       -41.9584
 -13617904.60548 -10594398.99644  21147486.3324   21147484.1804
      4770.6314
 04  9  1 15 26 14.9960000  0  7G 1G11G14G15G19G22G25
  -8329240.96147  -6486546.24643  21982884.8564   21982883.4924
      4776.9384
 -12829184.77348  -9962556.14544  21329333.3874   21329330.1644
      4338.2164
  -2391271.68049  -1862387.25046  19704175.8404   19704172.2464
       316.7664
   2621857.18448   2036688.53943  21387931.3094   21387929.1334
     -1469.5584
   -999150.63748   -778639.49644  21982570.6684   21982566.9304
      -234.7164
   -465894.07848   -364655.35944  21349690.5354   21349686.2034
       -44.5004
 -13689388.80148 -10650100.96144  21133883.3404   21133881.0394
      4765.6134
 04  9  1 15 26 29.9960000  0  7G 1G11G14G15G19G22G25
  -8400832.44947  -6542331.81243  21969261.4184   21969260.1334
      4772.7664
 -12894167.00048 -10013191.63344  21316967.7934   21316964.2464
      4332.1484
  -2395939.53549  -1866024.55546  19703287.5594   19703284.3054
       311.1904
   2643971.18048   2053920.18043  21392139.1684   21392137.1884
     -1474.2664
   -995545.86748   -775830.62143  21983256.7384   21983252.9224
      -240.3184
   -465188.22748   -364105.37144  21349825.0664   21349820.4574
       -47.0574
 -13760797.05148 -10705743.74244  21120294.8874   21120292.6454
      4760.5504
 04  9  1 15 26 44.9960000  0  7G 1G11G14G15G19G22G25
  -8472361.54747  -6598068.78543  21955650.5274   21955648.7974
      4768.6074
 -12959058.34048 -10063756.32043  21304619.6374   21304615.7114
      4326.0894
  -2400524.44549  -1869597.22346  19702415.0984   19702411.8404
       305.6614
   2666155.13748   2071206.32443  21396361.5514   21396359.1884
     -1478.9304
   -991857.93448   -772956.93744  21983959.0594   21983954.8054
      -245.8624
   -464444.40248   -363525.78944  21349966.5434   21349962.0274
       -49.5884
 -13832129.59848 -10761327.53944  21106720.4264   21106718.7114
      4755.5034
 04  9  1 15 26 59.9960000  0  7G 1G11G14G15G19G22G25
  -8543829.46547  -6653758.06643  21942049.9814   21942049.0274
      4764.5284
 -13023859.78548 -10114250.95744  21292287.9884   21292284.3134
      4320.0964
  -2405027.83649  -1873106.36746  19701558.3714   19701554.9184
       300.2264
   2688407.55948   2088545.83243  21400595.5664   21400593.5744
     -1483.4954
   -988088.26648   -770019.56644  21984676.2704   21984672.1334
      -251.3114
   -463663.86748   -362917.59844  21350115.1064   21350110.5744
       -52.0364
 -13903387.36348 -10816853.05944  21093160.2624   21093159.0634
      4750.5184
 04  9  1 15 27 14.9960000  0  7G 1G11G14G15G19G22G25
  -8615234.11347  -6709398.06643  21928462.4344   21928460.7664
      4760.3104
 -13088569.16048 -10164673.83644  21279974.6764   21279970.8954
      4313.9584
  -2409448.04349  -1876550.69146  19700717.0984   19700713.3754
       294.6804
   2710730.19548   2105940.08243  21404843.3094   21404841.7424
     -1488.1764
   -984235.27348   -767017.27344  21985409.3634   21985405.0824
      -256.8664
   -462844.61749   -362279.23044  21350270.9494   21350266.3754
       -54.6174
 -13974568.00448 -10872318.47744  21079615.4344   21079613.5824
      4745.3764
 04  9  1 15 27 29.9960000  0  7G 1G11G14G15G19G22G25
  -8686575.98448  -6764989.13343  21914886.0434   21914884.6994
      4756.1254
 -13153186.69548 -10215025.18044  21267678.1764   21267675.1294
      4307.8364
  -2413785.87149  -1879930.82046  19699891.4884   19699888.3594
       289.1894
   2733122.11748   2123388.29743  21409104.4964   21409103.3134
     -1492.7954
   -980299.98848   -763950.84443  21986157.6454   21986154.1724
      -262.3524
   -461987.25049   -361611.18044  21350434.4024   21350429.6994
       -57.1584
 -14045671.81249 -10927724.03944  21066085.0824   21066083.2154
      4740.2544
 04  9  1 15 27 44.9960000  0  7G 1G11G14G15G19G22G25
  -8757854.43447  -6820530.77042  21901322.1994   21901320.5704
      4751.8974
 -13217711.75848 -10265304.44144  21255399.5044   21255396.3484
      4301.6714
  -2418041.09049  -1883246.58646  19699081.9104   19699078.6174
       283.6814
   2755583.56648   2140890.69543  21413378.7704   21413377.3134
     -1497.4304
   -976282.30948   -760820.21143  21986922.5984   21986918.7074
      -267.8454
   -461091.34449   -360913.10244  21350604.9574   21350599.9184
       -59.7274
 -14116697.99249 -10983069.10544  21052569.3014   21052567.6914
      4735.0794
 04  9  1 15 27 59.9960000  0  7G 1G11G14G15G19G22G25
  -8829070.14147  -6876023.52043  21887770.5744   21887768.8204
      4747.7144
 -13282144.65648 -10315511.90244  21243138.5434   21243134.7854
      4295.5274
  -2422214.70749  -1886498.76646  19698287.5124   19698284.4734
       278.2414
   2778113.52348   2158446.46543  21417666.0514   21417665.5434
     -1501.9974
   -972183.39847   -757626.29743  21987702.4574   21987698.6844
      -273.2614
   -460157.65249   -360185.55944  21350782.3164   21350778.3204
       -62.2464
 -14187646.97348 -11038354.02044  21039067.8634   21039066.2704
      4729.9324
 04  9  1 15 28 14.9960000  0  7G 1G11G14G15G19G22G25
  -8900222.35948  -6931466.82843  21874230.6454   21874228.9414
      4743.4814
 -13346484.73848 -10365647.05144  21230894.7384   21230891.0314
      4289.3394
  -2426306.46949  -1889687.15646  19697508.9264   19697505.5314
       272.7844
   2800712.28148   2176055.85243  21421966.6374   21421965.8444
     -1506.5844
   -968003.01648   -754368.88343  21988498.2384   21988494.2424
      -278.6924
   -459185.55549   -359428.09844  21350967.4734   21350963.4734
       -64.8074
 -14258517.79749 -11093578.03144  21025581.5274   21025579.5984
      4724.7224
 04  9  1 15 28 29.9960000  0  7G 1G11G14G15G19G22G25
  -8971310.89148  -6986860.49642  21860702.8954   21860700.7894
      4739.2354
 -13410731.40248 -10415709.37544  21218669.4654   21218665.5864
      4283.1114
  -2430316.48449  -1892811.85246  19696745.6914   19696742.5234
       267.3344
   2823379.65648   2193718.70743  21426280.0904   21426279.2194
     -1511.1584
   -963741.39548   -751048.19143  21989309.5124   21989304.8444
      -284.1084
   -458175.02749   -358640.70344  21351159.5124   21351155.5594
       -67.3684
 -14329310.04748 -11148740.80544  21012110.0824   21012108.1174
      4719.4834
 04  9  1 15 28 44.9960000  0  7G 1G11G14G15G19G22G25
  -9042340.69948  -7042208.39843  21847186.1604   21847184.6604
      4735.3214
 -13474889.55548 -10465702.75844  21206460.1764   21206456.8674
      4277.2104
  -2434250.04749  -1895876.97746  19695997.3484   19695994.0044
       262.2384
   2846110.34448   2211430.89843  21430605.4264   21430604.1724
     -1515.3794
   -959403.91848   -747668.38343  21990134.8164   21990130.1454
      -289.1654
   -457131.09848   -357827.27044  21351357.8874   21351354.8524
       -69.5954
 -14400028.46548 -11203846.06244  20998652.6684   20998650.6604
      4714.5614
 04  9  1 15 28 59.9960000  0  7G 1G11G14G15G19G22G25
  -9113302.45748  -7097503.28543  21833682.7384   21833680.9104
      4730.7844
 -13538949.67648 -10515619.72744  21194269.8094   21194266.8284
      4270.6754
  -2438098.15649  -1898875.50446  19695265.1764   19695261.5314
       256.5414
   2868913.37148   2229199.44943  21434944.5204   21434943.7274
     -1520.2024
   -954981.64848   -744222.48043  21990976.7774   21990971.5164
      -294.8184
   -456044.41048   -356980.53944  21351564.9494   21351561.8444
       -72.4464
 -14470663.51649 -11258886.35544  20985211.4574   20985209.3914
      4709.0034
 04  9  1 15 29 14.9960000  0  7G 1G11G14G15G19G22G25
  -9184197.78948  -7152746.39143  21820191.9264   21820189.9614
      4726.3554
 -13602913.13348 -10565461.37944  21182098.3404   21182094.8014
      4264.2304
  -2441862.77749  -1901808.98046  19694548.6214   19694545.3444
       250.9754
   2891786.70748   2247022.78143  21439297.4884   21439296.1604
     -1524.8894
   -950476.91448   -740712.32043  21991833.9414   21991828.5864
      -300.3164
   -454916.80549   -356101.91044  21351779.5434   21351776.0744
       -75.1744
 -14541216.53148 -11313862.72344  20971785.7854   20971783.7734
      4703.5344
 04  9  1 15 29 29.9960000  0  7G 1G11G14G15G19G22G25
  -9255028.52048  -7207939.16043  21806713.1454   21806711.9384
      4722.0494
 -13666781.62148 -10615229.04344  21169944.1134   21169941.0554
      4257.8994
  -2445546.11349  -1904679.11746  19693847.9574   19693844.6294
       245.5564
   2914728.07848   2264899.13343  21443663.4344   21443662.0824
     -1529.4254
   -945891.82848   -737139.56243  21992706.2154   21992701.7814
      -305.6724
   -453750.22348   -355192.91044  21352001.2464   21351997.4184
       -77.7724
 -14611689.23048 -11368776.51244  20958375.2074   20958372.9104
      4698.1804
 04  9  1 15 29 44.9960000  0  7G 1G11G14G15G19G22G25
  -9325794.84448  -7263081.75043  21793246.5124   21793245.2274
      4717.7554
 -13730555.33648 -10664922.82844  21157808.6294   21157804.9494
      4251.5814
  -2449148.73049  -1907486.36746  19693162.1134   19693159.1724
       240.1744
   2937736.91048   2282828.05144  21448041.5274   21448040.3984
     -1533.9224
   -941227.13348   -733504.77343  21993593.5514   21993589.4104
      -310.9804
   -452544.95348   -354253.76244  21352231.1684   21352227.4884
       -80.3514
 -14682081.57048 -11423627.67644  20944979.8324   20944978.0044
      4692.8234
 04  9  1 15 29 59.9960000  0  7G 1G11G14G15G19G22G25
  -9396497.38748  -7318174.64143  21779793.2934   21779791.0234
      4713.5034
 -13794234.65248 -10714543.09044  21145690.5514   21145687.0204
      4245.2884
  -2452671.65649  -1910231.51246  19692492.0984   19692488.4534
       234.8624
   2960812.24648   2300808.80943  21452432.4104   21452431.8794
     -1538.3564
   -936483.90247   -729808.77043  21994495.9494   21994492.0394
      -316.2154
   -451301.74249   -353285.05944  21352467.3634   21352463.7624
       -82.8814
 -14752393.94149 -11478416.52344  20931600.0354   20931598.1844
      4687.4914
 04  9  1 15 30 14.9960000  0  7G 1G11G14G15G19G22G25
  -9467134.05548  -7373216.21543  21766351.5124   21766349.5784
      4709.1114
 -13857817.30948 -10764088.00844  21133592.0124   21133588.1804
      4238.8444
  -2456113.09849  -1912913.16046  19691836.9964   19691833.6884
       229.4294
   2983955.85948   2318842.75443  21456836.5124   21456835.9224
     -1542.9084
   -931660.51248   -726050.32044  21995413.6844   21995410.5704
      -321.5594
   -450018.43049   -352285.10244  21352712.1764   21352707.9694
       -85.5544
 -14822624.07049 -11533141.28544  20918235.2854   20918233.3524
      4682.0094
 04  9  1 15 30 29.9960000  0  7G 1G11G14G15G19G22G25
  -9537705.96948  -7428207.32043  21752921.4414   21752920.4454
      4704.7944
 -13921304.21148 -10813558.34444  21121510.2624   21121506.8754
      4232.4604
  -2459474.59849  -1915532.52346  19691197.0984   19691194.1094
       224.1004
   3007166.21148   2336928.69543  21461253.5204   21461252.2704
     -1547.3574
   -926758.59448   -722230.68043  21996346.7544   21996343.0704
      -326.7954
   -448696.33649   -351254.92644  21352963.8094   21352958.7624
       -88.1404
 -14892772.83648 -11587802.65644  20904886.9024   20904884.6884
      4676.5844
 04  9  1 15 30 44.9960000  0  7G 1G11G14G15G19G22G25
  -9608214.96148  -7483149.36343  21739503.9884   21739502.8674
      4700.5994
 -13984697.15248 -10862955.43044  21109447.0204   21109443.2544
      4226.1964
  -2462758.28549  -1918091.25046  19690572.4104   19690569.0124
       218.9134
   3030440.96548   2355064.83643  21465682.8484   21465681.7114
     -1551.6504
   -921780.51648   -718351.69943  21997294.3164   21997290.5164
      -331.8724
   -447337.53549   -350196.12944  21353222.2464   21353217.1724
       -90.5874
 -14962841.94149 -11642401.94944  20891553.1844   20891551.0124
      4671.2744
 04  9  1 15 30 59.9960000  0  7G 1G11G14G15G19G22G25
  -9678658.49648  -7538040.42243  21726099.6064   21726098.4574
      4696.2364
 -14047993.23848 -10912277.05944  21097402.3244   21097398.6994
      4219.7394
  -2465961.96949  -1920587.63746  19689962.9414   19689959.4344
       213.5794
   3053782.43048   2373252.94943  21470124.3714   21470123.1094
     -1556.0984
   -916724.12948   -714411.71543  21998256.0904   21998252.9384
      -337.0924
   -445939.44949   -349106.73444  21353488.1374   21353484.2504
       -93.2064
 -15032828.44949 -11696936.87944  20878234.7314   20878233.0664
      4665.7674
 04  9  1 15 31 14.9960000  0  7G 1G11G14G15G19G22G25
  -9749037.26648  -7592881.02743  21712706.4264   21712705.4614
      4691.9184
 -14111193.14848 -10961523.75044  21085375.4964   21085372.1024
      4213.3274
  -2469086.75049  -1923022.54346  19689368.0514   19689364.7344
       208.3194
   3077189.51648   2391492.21143  21474578.7074   21474577.4814
     -1560.4724
   -911590.64548   -710411.62943  21999233.3014   21999229.8754
      -342.2324
   -444502.92249   -347987.39144  21353761.9494   21353757.2704
       -95.7684
 -15102733.11349 -11751408.02744  20864932.5824   20864930.8284
      4660.3114
 04  9  1 15 31 29.9960000  0  7G 1G11G14G15G19G22G25
  -9819350.58247  -7647670.62143  21699326.7544   21699325.8444
      4687.5544
 -14174295.91849 -11010694.73444  21073368.0824   21073364.0514
      4206.8514
  -2472132.26649  -1925395.67646  19688788.5354   19688785.6214
       203.0344
   3100662.52048   2409782.82043  21479045.0594   21479044.4844
     -1564.8674
   -906379.74648   -706351.22344  22000225.3014   22000221.9024
      -347.3934
   -443027.28949   -346837.57044  21354042.7314   21354038.2034
       -98.3764
 -15172554.91849 -11805814.61744  20851645.8794   20851643.9924
      4654.7874
 04  9  1 15 31 44.9960000  0  7G 1G11G14G15G19G22G25
  -9889598.95347  -7702409.60543  21685958.9184   21685957.6764
      4683.2254
 -14237302.01248 -11059790.41044  21061377.8874   21061374.8484
      4200.4064
  -2475099.25849  -1927707.62946  19688224.2544   19688221.1174
       197.7994
   3124200.52348   2428124.08643  21483524.9264   21483523.2704
     -1569.2004
   -901092.47747   -702231.30943  22001230.9574   22001227.6994
      -352.4854
   -441513.29749   -345657.85244  21354330.7624   21354326.4384
      -100.9334
 -15242294.08648 -11860156.82044  20838375.0984   20838373.4304
      4649.2784
 04  9  1 15 31 59.9960000  0  7G 1G11G14G15G19G22G25
  -9959782.43046  -7757098.02743  21672603.0274   21672602.1064
      4678.8984
 -14300211.25448 -11108810.59044  21049406.8564   21049403.1914
      4193.9494
  -2477988.21549  -1929958.76646  19687674.6524   19687671.0744
       192.5974
   3147803.12148   2446515.68843  21488015.9184   21488014.9494
     -1573.5074
   -895729.35247   -698052.28543  22002252.3564   22002248.4384
      -357.5424
   -439961.08649   -344448.36344  21354626.3634   21354622.1414
      -103.4814
 -15311950.51248 -11914434.55544  20825119.8094   20825117.9414
      4643.7624
 04  9  1 15 32 14.9960000  0  7G 1G11G14G15G19G22G25
 -10029901.60948  -7811736.34443  21659259.7384   21659259.0474
      4674.6124
 -14363024.24648 -11157755.79344  21037453.6764   21037450.1094
      4187.5334
  -2480800.10949  -1932149.86346  19687139.4734   19687136.0474
       187.4604
   3171469.20748   2464956.75843  21492519.3794   21492518.3984
     -1577.7394
   -890291.50448   -693815.03544  22003286.1914   22003283.0004
      -362.5234
   -438371.33649   -343209.62944  21354928.6844   21354924.5314
      -105.9834
 -15381524.58248 -11968648.09844  20811880.3794   20811878.4534
      4638.2714
 04  9  1 15 32 29.9960000  0  7G 1G11G14G15G19G22G25
 -10099955.82447  -7866324.03943  21645929.0274   21645928.0554
      4670.2814
 -14425740.02048 -11206625.21544  21025519.3324   21025515.5864
      4181.0524
  -2483534.77049  -1934280.77746  19686619.0044   19686615.7504
       182.3114
   3195199.19948   2483447.60543  21497034.9344   21497033.7734
     -1581.9994
   -884778.68448   -689519.37544  22004336.0514   22004332.6564
      -367.5214
   -436743.44949   -341941.17244  21355238.4654   21355234.2704
      -108.5264
 -15451015.40648 -12022796.78944  20798656.5204   20798654.4024
      4632.7224
 04  9  1 15 32 44.9960000  0  7G 1G11G14G15G19G22G25
 -10169943.08647  -7920859.54743  21632611.3484   21632610.4264
      4665.8174
 -14488356.26248 -11255417.09844  21013603.7384   21013600.3714
      4174.4164
  -2486190.37949  -1936350.09046  19686113.4654   19686110.1214
       177.0414
   3218994.72748   2501989.52743  21501563.0904   21501561.6334
     -1586.3684
   -879189.37147   -685164.10543  22005399.2544   22005395.9924
      -372.6214
   -435075.53949   -340641.52744  21355555.7314   21355552.0514
      -111.1944
 -15520420.66848 -12076878.79345  20785449.2704   20785446.6454
      4627.0174
 04  9  1 15 32 59.9960000  0  7G 1G11G14G15G19G22G25
 -10239863.61348  -7975343.08243  21619305.5434   21619304.6484
      4661.3684
 -14550873.21948 -11304131.60944  21001706.8874   21001703.8484
      4167.7974
  -2488767.54349  -1938358.27746  19685623.0514   19685619.7584
       171.8114
   3242855.15648   2520582.04743  21506104.1064   21506102.1454
     -1590.6954
   -873524.28148   -680749.80543  22006477.4494   22006473.8954
      -377.6734
   -433367.91849   -339310.94144  21355880.9024   21355876.5634
      -113.8414
 -15589740.53549 -12130894.25444  20772258.2624   20772256.2344
      4621.3244
 04  9  1 15 33 14.9960000  0  7G 1G11G14G15G19G22G25
 -10309717.69147  -8029774.82843  21606012.3014   21606011.6884
      4656.9394
 -14613290.83649 -11352768.72744  20989829.7074   20989825.9964
      4161.1744
  -2491266.85549  -1940305.80146  19685147.6764   19685144.6024
       166.6214
   3266779.83648   2539224.60943  21510656.8634   21510655.1294
     -1594.9794
   -867784.23047   -676277.06643  22007569.5204   22007565.8914
      -382.6704
   -431620.96549   -337949.70344  21356213.0354   21356209.4454
      -116.4644
 -15658975.02748 -12184843.20345  20759083.2234   20759080.9574
      4615.6334
 04  9  1 15 33 29.9960000  0  7G 1G11G14G15G19G22G25
 -10379505.97746  -8084155.29343  21592732.4184   21592731.3984
      4652.5524
 -14675609.75048 -11401328.92644  20977970.8794   20977967.3564
      4154.5944
  -2493689.40649  -1942193.52046  19684686.6994   19684683.3444
       161.5034
   3290767.80548   2557916.49643  21515222.4414   21515220.6254
     -1599.1984
   -861970.33647   -671746.79343  22008675.7774   22008672.2544
      -387.5934
   -429835.45748   -336558.43044  21356553.0354   21356549.6294
      -119.0344
 -15728124.67648 -12238726.04344  20745924.5514   20745922.3094
      4609.9774
 04  9  1 15 33 44.9960000  0  7G 1G11G14G15G19G22G25
 -10449227.78548  -8138483.96543  21579464.3484   21579463.7894
      4648.1214
 -14737829.08249 -11449811.52344  20966131.0434   20966127.3984
      4147.9554
  -2496034.84849  -1944021.14546  19684240.2934   19684236.9024
       156.3634
   3314819.28948   2576657.88343  21519798.5664   21519797.5514
     -1603.4324
   -856082.32847   -667158.78143  22009796.8484   22009793.3204
      -392.5344
   -428010.75449   -335136.60944  21356900.3244   21356896.3954
      -121.6474
 -15797188.46549 -12292541.97345  20732782.1994   20732780.1724
      4604.2534
 04  9  1 15 33 59.9960000  0  7G 1G11G14G15G19G22G25
 -10518882.63748  -8192760.46143  21566210.1844   21566208.8014
      4643.6574
 -14799948.10949 -11498215.96544  20954309.9814   20954306.6684
      4141.2684
  -2498302.94149  -1945788.49246  19683808.7234   19683805.3914
       151.2064
   3338934.49648   2595448.91043  21524387.1994   21524386.6174
     -1607.6804
   -850120.22347   -662513.02043  22010931.3014   22010927.3834
      -397.4744
   -426146.53949   -333683.99644  21357255.1524   21357250.6024
      -124.2814
 -15866165.75449 -12346290.48845  20719656.4264   20719654.9614
      4598.4864
 04  9  1 15 34 14.9960000  0  7G 1G11G14G15G19G22G25
 -10588471.07848  -8246985.22743  21552967.5984   21552966.2074
      4639.2294
 -14861967.42649 -11546542.71144  20942508.3094   20942504.8754
      4134.6214
  -2500494.64149  -1947496.31646  19683391.5354   19683388.2854
       146.1134
   3363112.46948   2614288.85243  21528988.1994   21528986.8754
     -1611.8654
   -844084.97347   -657810.25443  22012080.0124   22012075.9304
      -402.3504
   -424243.36349   -332201.02044  21357616.9884   21357612.9774
      -126.8784
 -15935056.82449 -12399971.83645  20706546.6844   20706544.8914
      4592.7384
 04  9  1 15 34 29.9960000  0  7G 1G11G14G15G19G22G25
 -10657991.85948  -8301157.25443  21539738.0664   21539736.9454
      4634.7194
 -14923885.51648 -11594790.57844  20930725.1994   20930722.0354
      4127.8734
  -2502609.03549  -1949143.89546  19682989.1454   19682985.9344
       140.9604
   3387354.07048   2633178.36743  21533601.5274   21533600.1134
     -1616.1074
   -837975.93047   -653050.00443  22013242.4414   22013238.5044
      -407.2704
   -422300.15248   -330686.85944  21357987.0124   21357982.8244
      -129.5474
 -16003860.16849 -12453584.82445  20693453.6454   20693451.9924
      4586.8904
 04  9  1 15 34 44.9960000  0  7G 1G11G14G15G19G22G25
 -10727446.77347  -8355277.94943  21526521.6914   21526520.3564
      4630.3284
 -14985703.98848 -11642960.81644  20918962.2704   20918958.5784
      4121.2324
  -2504648.34049  -1950732.97346  19682600.7854   19682597.4224
       135.9544
   3411657.12948   2652115.77043  21538225.8794   21538225.6094
     -1620.2044
   -831795.27747   -648233.94943  22014418.5514   22014414.7734
      -412.0434
   -420318.73049   -329142.92644  21358364.0744   21358359.1884
      -132.0954
 -16072577.46548 -12507130.75045  20680377.5124   20680375.2624
      4581.1534
 04  9  1 15 34 59.9960000  0  7G 1G11G14G15G19G22G25
 -10796834.82846  -8409346.55543  21513317.0594   21513315.7424
      4625.8704
 -15047421.79349 -11691052.61744  20907217.6454   20907214.3484
      4114.5204
  -2506611.86749  -1952263.00446  19682227.4654   19682224.6174
       130.9024
   3436022.16048   2671101.45743  21542862.7074   21542861.7734
     -1624.3354
   -825542.60247   -643361.76243  22015608.1684   22015604.6724
      -416.8454
   -418298.39849   -327568.66044  21358748.6844   21358744.1294
      -134.6894
 -16141207.58248 -12560608.76244  20667317.6134   20667315.4574
      4575.3414
 04  9  1 15 35 14.9960000  0  7G 1G11G14G15G19G22G25
 -10866157.39547  -8463364.14143  21500125.7544   21500124.5314
      4621.5044
 -15109039.95748 -11739066.77344  20895491.7384   20895488.1414
      4107.8784
  -2508501.35549  -1953735.34446  19681867.9814   19681864.9844
       125.9664
   3460447.47348   2690134.12543  21547510.9814   21547510.3244
     -1628.3544
   -819219.68447   -638434.85543  22016811.0664   22016807.6804
      -421.5284
   -416240.50049   -325965.11344  21359140.3164   21359135.7734
      -137.1934
 -16209751.66048 -12614019.71945  20654273.6604   20654271.8914
      4569.6054
 04  9  1 15 35 29.9960000  0  7G 1G11G14G15G19G22G25
 -10935413.23448  -8517329.72343  21486946.4414   21486945.6844
      4617.0564
 -15170557.18048 -11787002.27744  20883785.5124   20883782.0274
      4101.1484
  -2510315.91049  -1955149.28146  19681522.6914   19681518.9614
       120.9704
   3484933.85948   2709214.39543  21552170.6684   21552170.0204
     -1632.4264
   -812825.64147   -633452.53143  22018027.9264   22018024.8564
      -426.2704
   -414143.78148   -324331.32844  21359538.9494   21359534.8524
      -139.7814
 -16278208.10549 -12667362.37944  20641246.8014   20641245.2424
      4563.7634
 04  9  1 15 35 44.9960000  0  7G 1G11G14G15G19G22G25
 -11004601.91848  -8571242.98043  21473779.9344   21473779.0124
      4612.5794
 -15231972.89848 -11834858.68744  20872098.2384   20872094.6884
      4094.3814
  -2512055.50049  -1956504.82046  19681192.0744   19681188.1064
       115.9734
   3509481.52748   2728342.39843  21556841.7074   21556840.8634
     -1636.5114
   -806360.53547   -628414.82443  22019258.7934   22019254.9844
      -431.0074
   -412007.97348   -322667.07444  21359945.5354   21359941.1954
      -142.3874
 -16346576.35949 -12720636.33244  20628236.6684   20628235.0274
      4557.8844
 04  9  1 15 35 59.9960000  0  7G 1G11G14G15G19G22G25
 -11073722.59048  -8625103.23043  21460627.2314   21460625.9614
      4608.0454
 -15293285.94948 -11882635.09844  20860431.1064   20860427.3444
      4087.5374
  -2513719.47749  -1957801.43446  19680875.2704   19680871.7464
       110.9324
   3534090.85248   2747518.46943  21561524.6064   21561523.8404
     -1640.6224
   -799824.02347   -623321.47343  22020502.5984   22020498.9814
      -435.7674
   -409832.30548   -320971.77344  21360359.0354   21360355.3484
      -145.0454
 -16414855.35548 -12773840.73844  20615243.7854   20615241.8014
      4551.9334
 04  9  1 15 36 14.9960000  0  7G 1G11G14G15G19G22G25
 -11142776.49648  -8678911.44143  21447486.7464   21447485.8444
      4603.5944
 -15354497.38748 -11930332.32444  20848783.1134   20848779.0354
      4080.7624
  -2515309.37149  -1959040.30946  19680572.1374   19680569.4414
       105.9934
   3558760.26648   2766741.34443  21566219.5904   21566218.4024
     -1644.6284
   -793217.81247   -618173.82443  22021759.4264   22021756.2504
      -440.4144
   -407618.05548   -319246.41444  21360780.7774   21360776.8564
      -147.6174
 -16483046.19148 -12826976.45744  20602267.3954   20602265.4924
      4546.0564
 04  9  1 15 36 29.9960000  0  7G 1G11G14G15G19G22G25
 -11211763.35948  -8732667.44943  21434359.1764   21434357.8054
      4599.1244
 -15415606.77748 -11977950.02744  20837153.9184   20837150.7774
      4073.9594
  -2516825.36349  -1960221.61746  19680284.0274   19680280.2934
       101.0664
   3583489.68448   2786010.97743  21570924.8954   21570924.1954
     -1648.6284
   -786542.19147   -612972.07043  22023029.8564   22023026.4774
      -445.0414
   -405365.09048   -317490.87944  21361209.9814   21361205.5864
      -150.1984
 -16551148.23049 -12880042.95744  20589308.1844   20589306.1914
      4540.1364
 04  9  1 15 36 44.9960000  0  7G 1G11G14G15G19G22G25
 -11280684.10547  -8786371.92643  21421243.8244   21421242.5704
      4594.7164
 -15476615.02048 -12025488.93044  20825544.3874   20825541.1294
      4067.2164
  -2518268.68749  -1961346.29346  19680009.0594   19680005.9924
        96.2224
   3608277.75448   2805326.30143  21575642.0124   21575641.5314
     -1652.5384
   -779798.48447   -607717.25443  22024312.7544   22024309.6334
      -449.5804
   -403074.41448   -315705.94944  21361645.3794   21361641.5514
      -152.7124
 -16619162.25448 -12933040.89844  20576365.7464   20576363.5044
      4534.2684
 04  9  1 15 36 59.9960000  0  7G 1G11G14G15G19G22G25
 -11349537.35547  -8840023.80543  21408141.5044   21408140.3284
      4590.2174
 -15537520.40648 -12072947.67644  20813954.5664   20813951.0594
      4060.3594
  -2519638.26249  -1962413.50046  19679748.3164   19679745.3794
        91.3054
   3633125.51248   2824688.15643  21580370.4964   21580369.1564
     -1656.5174
   -772985.67247   -602408.60543  22025609.2774   22025606.2314
      -454.1874
   -400744.64548   -313890.56644  21362088.7384   21362084.7584
      -155.3184
 -16687086.67248 -12985969.00444  20563439.7854   20563437.3714
      4528.2954
 04  9  1 15 37 14.9960000  0  7G 1G11G14G15G19G22G25
 -11418321.93048  -8893622.16043  21395052.2854   21395050.9654
      4585.6384
 -15598321.73848 -12120325.34444  20802384.5434   20802380.8524
      4053.4224
  -2520933.22749  -1963422.58246  19679502.1134   19679499.2234
        86.3314
   3658033.75448   2844097.14843  21585110.6914   21585109.1684
     -1660.5494
   -766103.18747   -597045.66843  22026919.1524   22026915.7384
      -458.8324
   -398374.85248   -312044.02044  21362539.9184   21362535.9304
      -157.9864
 -16754920.04749 -13038826.17644  20550531.6844   20550528.8594
      4522.2254
 04  9  1 15 37 29.9960000  0  7G 1G11G14G15G19G22G25
 -11487039.47348  -8947168.29343  21381975.9104   21381974.0944
      4581.1704
 -15659020.41448 -12167623.00844  20790833.7384   20790830.4494
      4046.5784
  -2522155.64149  -1964375.13346  19679269.6524   19679266.3834
        81.4944
   3683000.49248   2863551.69143  21589861.7464   21589860.4344
     -1664.4494
   -759153.12947   -591630.09043  22028242.1374   22028237.6294
      -463.3374
   -395966.80548   -310167.62944  21362998.3164   21362994.4144
      -160.5364
 -16822663.91049 -13091613.60244  20537640.4024   20537638.1994
      4516.2584
 04  9  1 15 37 44.9960000  0  7G 1G11G14G15G19G22G25
 -11555690.84848  -9000662.86343  21368912.1374   21368910.5124
      4576.7584
 -15719617.12148 -12214841.23044  20779302.6214   20779299.0594
      4039.7804
  -2523306.70349  -1965272.07446  19679050.8014   19679047.2314
        76.7384
   3708024.51648   2883050.89543  21594623.0044   21594622.1484
     -1668.2684
   -752136.80147   -586162.84443  22029577.4814   22029573.4694
      -467.7554
   -393521.30548   -308262.07844  21363463.0124   21363459.4774
      -163.0334
 -16890318.90248 -13144331.76644  20524766.1764   20524764.0204
      4510.3334
 04  9  1 15 37 59.9960000  0  7G 1G11G14G15G19G22G25
 -11624272.05947  -9054102.77344  21355861.2074   21355859.9304
      4572.0814
 -15780107.75448 -12261976.78544  20767792.1844   20767788.0204
      4032.7094
  -2524382.75449  -1966110.55546  19678845.6134   19678842.1254
        71.7374
   3733109.47348   2902597.55543  21599397.3244   21599395.3014
     -1672.3304
   -745050.67247   -580641.21943  22030925.5274   22030921.9344
      -472.4094
   -391034.47748   -306324.32444  21363937.0354   21363932.9814
      -165.7894
 -16957880.78548 -13196977.37544  20511909.4734   20511907.7234
      4504.1264
 04  9  1 15 38 14.9950000  0  7G 1G11G14G15G19G22G25
 -11692780.58248  -9107486.03143  21342824.5694   21342823.4724
      4567.2354
 -15840490.07448 -12309027.95744  20756301.6084   20756297.3624
      4025.4884
  -2525386.04749  -1966892.34446  19678654.7964   19678651.6944
        66.8864
   3758251.25048   2922188.52042  21604181.1014   21604179.5074
     -1676.1184
   -737897.71547   -575067.52343  22032286.4374   22032283.4994
      -476.8644
   -388508.62149   -304356.15244  21364417.7334   21364414.1794
      -168.3904
 -17025346.89149 -13249548.35945  20499071.3824   20499068.9604
      4497.7404
 04  9  1 15 38 29.9950000  0  7G 1G11G14G15G19G22G25
 -11761225.23048  -9160819.50843  21329800.3124   21329798.8194
      4562.9774
 -15900771.66048 -12356000.62544  20744830.0074   20744826.3584
      4018.7724
  -2526316.85249  -1967617.66446  19678477.6554   19678474.3234
        62.0544
   3783453.10948   2941826.28142  21608977.0074   21608975.6364
     -1680.1244
   -730677.10547   -569441.09843  22033660.7964   22033657.0304
      -481.3744
   -385943.15648   -302357.09844  21364905.3514   21364902.2764
      -171.0314
 -17092725.63749 -13302051.27345  20486249.6484   20486247.8084
      4491.9164
 04  9  1 15 38 44.9950000  0  7G 1G11G14G15G19G22G25
 -11829601.37148  -9214099.61343  21316788.6554   21316787.4724
      4558.4094
 -15960948.53148 -12402891.69544  20733379.3274   20733374.9014
      4011.7914
  -2527175.43449  -1968286.69946  19678314.4914   19678311.1244
        57.2394
   3808712.97748   2961509.28143  21613783.5934   21613782.2184
     -1683.9914
   -723389.88747   -563762.78943  22035047.3584   22035044.3664
      -485.8154
   -383338.35548   -300327.41444  21365401.5074   21365397.4994
      -173.6534
 -17160012.31249 -13354482.44545  20473445.1404   20473443.4564
      4485.7784
 04  9  1 15 38 59.9950000  0  7G 1G11G14G15G19G22G25
 -11897909.53948  -9267326.76244  21303789.9994   21303788.5934
      4553.8784
 -16021020.78948 -12449701.25444  20721947.6554   20721944.2064
      4004.8174
  -2527962.56249  -1968900.04746  19678164.5544   19678161.5034
        52.4754
   3834030.05148   2981236.81343  21618601.8124   21618600.9524
     -1687.8054
   -716036.93747   -558033.26643  22036446.6554   22036443.2654
      -490.1974
   -380694.89148   -298267.58244  21365904.2884   21365900.4374
      -176.2314
 -17227207.21149 -13406842.09845  20460658.4054   20460656.8744
      4479.6604
 04  9  1 15 39 14.9950000  0  7G 1G11G14G15G19G22G25
 -11966150.98448  -9320501.91043  21290804.3044   21290802.8124
      4549.4304
 -16080989.59048 -12496430.19144  20710535.7264   20710532.6904
      3997.9204
  -2528679.78149  -1969458.93046  19678028.4294   19678025.1554
        47.8154
   3859402.67248   3001007.65242  21623429.6794   21623429.1554
     -1691.5084
   -708619.97747   -552253.84443  22037857.7734   22037854.9174
      -494.4644
   -378013.98849   -296178.60244  21366414.9604   21366410.6364
      -178.7274
 -17294311.28948 -13459130.98045  20447888.9524   20447887.2614
      4473.6054
 04  9  1 15 39 29.9950000  0  7G 1G11G14G15G19G22G25
 -12034324.62548  -9373624.22743  21277830.9834   21277829.8004
      4544.9094
 -16140853.78548 -12543077.61744  20699144.2104   20699140.6634
      3990.9464
  -2529326.39849  -1969962.79346  19677905.3514   19677901.7374
        43.1084
   3884831.63747   3020822.39842  21628268.6324   21628267.7144
     -1695.2644
   -701138.41047   -546424.09443  22039281.6874   22039278.8784
      -498.7714
   -375294.71548   -294059.70744  21366931.8664   21366928.4804
      -181.2854
 -17361323.34048 -13511348.15645  20435136.7964   20435135.1284
      4467.4704
 04  9  1 15 39 44.9950000  0  7G 1G11G14G15G19G22G25
 -12102430.62948  -9426693.83243  21264870.8044   21264869.7534
      4540.4004
 -16200613.27048 -12589643.45344  20687772.5694   20687768.8394
      3983.9664
  -2529902.90649  -1970412.03146  19677795.6404   19677792.4374
        38.4344
   3910316.40647   3040680.62942  21633118.1554   21633117.0464
     -1698.9854
   -693592.79747   -540544.44143  22040717.9294   22040715.1204
      -503.0414
   -372537.34848   -291911.13344  21367457.0154   21367452.9914
      -183.8244
 -17428243.33648 -13563493.60245  20422402.4834   20422400.4094
      4461.3334
 04  9  1 15 39 59.9950000  0  7G 1G11G14G15G19G22G25
 -12170469.15248  -9479710.86344  21251923.3434   21251922.5264
      4535.9024
 -16260267.97348 -12636127.64844  20676420.3124   20676416.7494
      3976.9804
  -2530409.76649  -1970806.99646  19677698.8824   19677695.8784
        33.7914
   3935856.41848   3060581.89543  21637979.0154   21637978.2264
     -1702.6674
   -685983.83247   -534615.42243  22042165.7574   22042162.2924
      -507.2644
   -369742.15648   -289733.10244  21367988.7884   21367985.3154
      -186.3464
 -17495071.15649 -13615567.21945  20409685.6874   20409683.7534
      4455.1884
 04  9  1 15 40 14.9950000  0  7G 1G11G14G15G19G22G25
 -12238438.92648  -9532674.30943  21238989.2264   21238988.4174
      4531.3184
 -16319816.43448 -12682529.04744  20665089.0464   20665085.2844
      3969.8974
  -2530846.05548  -1971146.96946  19677615.9834   19677612.4404
        29.0864
   3961452.49648   3080526.85942  21642848.8044   21642849.3394
     -1706.4054
   -678310.71947   -528636.39843  22043625.6554   22043622.2334
      -511.5414
   -366907.81248   -287524.54344  21368528.0154   21368524.2534
      -188.9564
 -17561805.35249 -13667567.88345  20396986.6874   20396984.4644
      4448.9464
 04  9  1 15 40 29.9950000  0  7G 1G11G14G15G19G22G25
 -12306340.02348  -9585584.23844  21226068.3194   21226066.7804
      4526.7404
 -16379258.58248 -12728847.59844  20653777.6164   20653774.0114
      3962.8104
  -2531212.18749  -1971432.27346  19677546.4134   19677543.0974
        24.4094
   3987104.24647   3100515.17642  21647730.3434   21647730.1594
     -1710.1174
   -670574.06647   -522607.86343  22045098.2804   22045094.7224
      -515.7774
   -364034.56648   -285285.67244  21369075.0774   21369071.2694
      -191.5504
 -17628445.81649 -13719495.51645  20384305.3434   20384303.1834
      4442.6984
 04  9  1 15 40 44.9950000  0  7G 1G11G14G15G19G22G25
 -12374173.52048  -9638441.50843  21213159.7884   21213158.5304
      4522.2334
 -16438595.43048 -12775084.10944  20642485.8354   20642482.6514
      3955.7904
  -2531509.53149  -1971663.97746  19677489.5854   19677486.3434
        19.8234
   4012810.27347   3120545.81642  21652621.9214   21652622.4484
     -1713.7354
   -662775.40647   -516531.03143  22046583.0464   22046579.0234
      -519.9114
   -361123.44949   -283017.28144  21369629.1484   21369624.9644
      -194.0744
 -17694993.39549 -13771350.77045  20371641.7574   20371639.6364
      4436.5054
 04  9  1 15 40 59.9950000  0  7G 1G11G14G15G19G22G25
 -12441938.89548  -9691245.68043  21200263.9684   21200263.1554
      4517.6924
 -16497826.26648 -12821238.00845  20631214.6164   20631211.1514
      3948.7224
  -2531737.82849  -1971841.88346  19677446.4444   19677443.3394
        15.2204
   4038570.62547   3140618.78542  21657524.7184   21657523.7804
     -1717.3574
   -654914.66047   -510405.81643  22048078.4994   22048074.8314
      -524.0504
   -358174.04748   -280719.07844  21370190.2654   21370185.9444
      -196.6274
 -17761447.52349 -13823133.19945  20358995.7884   20358994.1014
      4430.2754
 04  9  1 15 41 14.9950000  0  7G 1G11G14G15G19G22G25
 -12509635.00848  -9743995.89143  21187382.4994   21187380.7924
      4513.0744
 -16556949.75848 -12867308.26244  20619963.5854   20619960.2104
      3941.5664
  -2531896.37549  -1971965.42646  19677416.5234   19677412.3704
        10.5704
   4064386.21148   3160734.80142  21662437.0934   21662436.1404
     -1721.0394
   -646991.12947   -504231.67243  22049586.7184   22049582.8584
      -528.2354
   -355185.38748   -278390.29344  21370758.8514   21370754.4834
      -199.2444
 -17827806.65249 -13874841.60545  20346368.1714   20346366.3004
      4423.9424
 04  9  1 15 41 29.9950000  0  7G 1G11G14G15G19G22G25
 -12577262.80148  -9796692.87543  21174513.0774   21174511.1014
      4508.5204
 -16615966.69949 -12913295.49644  20608733.3664   20608730.1284
      3934.4634
  -2531986.45749  -1972035.61746  19677398.6874   19677395.8124
         6.0054
   4090255.65248   3180892.77743  21667359.7024   21667359.6634
     -1724.6294
   -639006.13347   -498009.62543  22051104.9604   22051102.1594
      -532.3334
   -352158.59848   -276031.77344  21371334.9294   21371331.0384
      -201.7864
 -17894071.69949 -13926476.69945  20333758.1944   20333756.2694
      4417.6704
 04  9  1 15 41 44.9950000  0  7G 1G11G14G15G19G22G25
 -12644822.94148  -9849337.13343  21161656.5304   21161655.0424
      4504.0094
 -16674877.62148 -12959200.11745  20597522.9374   20597519.2144
      3927.3954
  -2532009.01249  -1972053.20346  19677395.0154   19677391.6754
         1.5044
   4116177.90648   3201091.87943  21672292.5774   21672292.2414
     -1728.1504
   -630960.76247   -491740.54343  22052636.1244   22052633.2844
      -536.3584
   -349094.27748   -273644.01244  21371918.2574   21371914.3154
      -204.2884
 -17960242.92649 -13978038.68745  20321166.3354   20321164.4724
      4411.4154
 04  9  1 15 41 59.9950000  0  7G 1G11G14G15G19G22G25
 -12712314.78148  -9901928.16444  21148813.6324   21148811.7494
      4499.4564
 -16733681.62949 -13005021.43044  20586333.1084   20586329.6904
      3920.2674
  -2531963.74249  -1972017.93046  19677403.3434   19677400.1404
        -3.0184
   4142153.22348   3221332.33643  21677235.7494   21677235.2614
     -1731.6884
   -622855.04747   -485424.45343  22054178.8984   22054176.0234
      -540.3814
   -345991.84848   -271226.56244  21372508.8194   21372504.8314
      -206.8294
 -18026319.48049 -14029526.90645  20308592.1944   20308590.8044
      4405.1044
 04  9  1 15 42 14.9950000  0  7G 1G11G14G15G19G22G25
 -12779737.83648  -9954465.61744  21135983.4294   21135981.9684
      4494.8704
 -16792378.19549 -13050759.01244  20575163.1874   20575160.1204
      3913.1044
  -2531850.54749  -1971929.73846  19677424.7264   19677421.4724
        -7.5464
   4168181.65648   3241614.19143  21682189.2334   21682187.9214
     -1735.2294
   -614688.96547   -479061.31643  22055732.9524   22055729.9174
      -544.4054
   -342850.91848   -268779.12544  21373106.1634   21373102.7494
      -209.3954
 -18092300.86349 -14080940.96545  20296036.4764   20296034.9604
      4398.7594
 04  9  1 15 42 29.9950000  0  7G 1G11G14G15G19G22G25
 -12847092.64148 -10006949.86744  21123165.7334   21123164.8234
      4490.3204
 -16850967.56249 -13096413.08245  20564014.2334   20564010.9444
      3905.9584
  -2531670.21149  -1971789.22745  19677459.4684   19677455.6754
       -12.0224
   4194262.38748   3261936.81642  21687152.2024   21687150.9014
     -1738.7154
   -606463.33647   -472651.77743  22057298.4374   22057295.1794
      -548.3754
   -339672.14148   -266302.18444  21373711.2494   21373707.0264
      -211.9184
 -18158187.26649 -14132281.00845  20283498.4764   20283497.0934
      4392.4274
 04  9  1 15 42 44.9950000  0  7G 1G11G14G15G19G22G25
 -12914378.97348 -10059380.76644  21110362.0694   21110360.2804
      4485.7554
 -16909449.41449 -13141983.34845  20552885.4994   20552882.0934
      3898.7904
  -2531422.84049  -1971596.47746  19677505.8514   19677502.6674
       -16.4914
   4220395.23848   3282300.04343  21692124.5304   21692124.0814
     -1742.1904
   -598178.52747   -466196.13743  22058875.2494   22058872.0384
      -552.3214
   -336455.37548   -263795.62944  21374323.3514   21374320.0774
      -214.4514
 -18223978.25049 -14183546.69545  20270978.9524   20270977.4724
      4386.0664
 04  9  1 15 42 59.9950000  0  7G 1G11G14G15G19G22G25
 -12981596.56648 -10111758.11744  21097570.4994   21097569.4564
      4481.1734
 -16967823.21549 -13187469.43444  20541777.2884   20541773.5194
      3891.5874
  -2531108.53549  -1971351.58246  19677565.9994   19677563.2964
       -20.9544
   4246580.17248   3302703.84043  21697107.7184   21697107.6054
     -1745.6624
   -589834.67247   -459694.45743  22060462.9684   22060459.6084
      -556.2574
   -333200.37548   -261259.30544  21374942.9524   21374939.4334
      -217.0004
 -18289673.27349 -14234737.61345  20258477.4994   20258475.9014
      4379.6684
 04  9  1 15 43 14.9950000  0  7G 1G11G14G15G19G22G25
 -13048743.78148 -10164080.61344  21084792.7024   21084791.6754
      4476.4814
 -17026087.28549 -13232870.02044  20530690.0074   20530686.5154
      3884.2714
  -2530725.93749  -1971053.46146  19677638.9214   19677636.0934
       -25.5074
   4272818.50448   3323149.23843  21702100.7184   21702100.6554
     -1749.2224
   -581430.56647   -453145.84043  22062061.9444   22062058.9994
      -560.2744
   -329905.60948   -258691.97344  21375569.3664   21375565.8084
      -219.6514
 -18355270.53949 -14285852.36345  20245995.0544   20245993.6714
      4373.1514
 04  9  1 15 43 29.9950000  0  7G 1G11G14G15G19G22G25
 -13115822.74648 -10216349.93744  21072029.0854   21072027.0034
      4471.9314
 -17084243.59049 -13278186.62145  20519622.9134   20519619.7144
      3877.0874
  -2530277.53149  -1970704.05546  19677723.9914   19677720.9914
       -29.8944
   4299107.64548   3343634.24243  21707103.6404   21707102.9094
     -1752.6094
   -572968.82847   -446552.32443  22063672.4374   22063669.3004
      -564.1164
   -326573.21948   -256095.33244  21376203.9444   21376200.3904
      -222.1594
 -18420772.01649 -14336892.46945  20233530.6554   20233528.9254
      4366.7654
 04  9  1 15 43 44.9950000  0  7G 1G11G14G15G19G22G25
 -13182831.81248 -10268564.78543  21059277.1244   21059275.8084
      4467.2714
 -17142290.16449 -13323417.72345  20508577.3584   20508573.7024
      3869.7724
  -2529761.89549  -1970302.27346  19677822.2184   19677819.2804
       -34.3764
   4325448.90648   3364159.84443  21712116.2654   21712115.6084
     -1756.0844
   -564448.30547   -439912.99243  22065294.0544   22065290.1674
      -568.0354
   -323201.64848   -253468.15644  21376845.4684   21376841.7734
      -224.7714
 -18486175.78949 -14387856.43445  20221084.6554   20221082.7224
      4360.2524
 04  9  1 15 43 59.9950000  0  7G 1G11G14G15G19G22G25
 -13249771.05148 -10320725.22744  21046538.8044   21046538.0504
      4462.6164
 -17200227.05549 -13368563.35544  20497552.2414   20497548.7844
      3862.4594
  -2529179.45749  -1969848.44146  19677933.1874   19677929.9604
       -38.8294
   4351841.91447   3384725.79743  21717138.4524   21717137.5624
     -1759.5344
   -555869.39847   -433228.17243  22066926.1874   22066923.1874
      -571.9274
   -319791.02748   -250810.56244  21377494.8584   21377490.4294
      -227.3754
 -18551481.67249 -14438744.11745  20208657.4374   20208655.5814
      4353.7264
 04  9  1 15 44 14.9950000  0  7G 1G11G14G15G19G22G25
 -13316641.25848 -10372831.87543  21033813.9294   21033812.5264
      4458.0144
 -17258054.87549 -13413624.00045  20486548.3514   20486544.7414
      3855.1884
  -2528531.41849  -1969343.47746  19678056.6164   19678053.3234
       -43.2034
   4378285.46547   3405331.12942  21722170.3434   21722169.4684
     -1762.9034
   -547233.56247   -426498.98042  22068569.3744   22068566.3514
      -575.7224
   -316342.34848   -248123.30544  21378150.7804   21378146.9604
      -229.9124
 -18616690.36749 -14489556.07045  20196248.3744   20196246.1634
      4347.2464
 04  9  1 15 44 29.9950000  0  7G 1G11G14G15G19G22G25
 -13383442.93748 -10424885.12944  21021101.5854   21021100.7764
      4453.4454
 -17315773.91449 -13458599.88344  20475564.6634   20475560.9444
      3847.9364
  -2527818.56249  -1968788.02046  19678192.3514   19678189.0424
       -47.5244
   4404778.67248   3425975.13742  21727212.0544   21727211.3234
     -1766.2144
   -538541.70347   -419726.12543  22070223.7334   22070220.2224
      -579.4574
   -312856.05948   -245406.74644  21378814.2734   21378809.9764
      -232.4194
 -18681802.14849 -14540292.51645  20183857.9214   20183856.0774
      4340.7854
 04  9  1 15 44 44.9950000  0  7G 1G11G14G15G19G22G25
 -13450174.53148 -10476883.76244  21008403.3584   21008401.7534
      4448.7734
 -17373382.38749 -13503489.61344  20464602.1324   20464598.2654
      3840.5654
  -2527039.65649  -1968181.09446  19678340.5464   19678337.3434
       -51.9274
   4431322.84447   3446658.85943  21732263.1484   21732262.8904
     -1769.6114
   -529792.67647   -412908.75043  22071888.9134   22071885.7304
      -583.2684
   -309330.82048   -242659.83244  21379484.7884   21379481.3744
      -235.0164
 -18746815.24249 -14590952.05945  20171486.4764   20171483.9294
      4334.2064
 04  9  1 15 44 59.9950000  0  7G 1G11G14G15G19G22G25
 -13516836.71548 -10528828.32444  20995718.0544   20995716.7304
      4444.1464
 -17430880.87949 -13548293.63745  20453659.9524   20453656.8584
      3833.2334
  -2526195.64149  -1967523.43045  19678501.1244   19678498.1634
       -56.2684
   4457916.89847   3467381.44943  21737323.8124   21737323.8514
     -1772.9374
   -520987.56247   -406047.65243  22073564.3044   22073561.0194
      -587.0084
   -305767.35548   -239883.14144  21380163.3584   21380159.5304
      -237.5644
 -18811730.05949 -14641535.02045  20159133.4054   20159131.5624
      4327.6544
 04  9  1 15 45 14.9950000  0  7G 1G11G14G15G19G22G25
 -13583430.22348 -10580719.35544  20983045.5234   20983044.4604
      4439.5674
 -17488269.96149 -13593012.41044  20442739.0074   20442735.8354
      3825.9394
  -2525287.57049  -1966815.84446  19678673.7334   19678669.9334
       -60.5384
   4484559.73447   3488142.06342  21742393.5624   21742393.8124
     -1776.1894
   -512127.52347   -399143.75443  22075250.1714   22075247.0854
      -590.6694
   -302166.33648   -237077.17244  21380848.8274   21380844.0654
      -240.0684
 -18876547.11349 -14692041.80545  20146799.2734   20146796.9444
      4321.1374
 04  9  1 15 45 29.9950000  0  7G 1G11G14G15G19G22G25
 -13649954.63348 -10632556.55944  20970386.6084   20970385.1514
      4434.9614
 -17545549.07048 -13637645.48045  20431839.6244   20431836.0654
      3818.6074
  -2524315.41449  -1966058.32846  19678858.9294   19678855.5894
       -64.8104
   4511251.35947   3508940.66842  21747473.3584   21747472.9174
     -1779.4424
   -503212.82447   -392197.27743  22076946.6714   22076943.1054
      -594.3134
   -298527.51248   -234241.75043  21381541.0934   21381536.6514
      -242.5884
 -18941265.90649 -14742472.02345  20134483.7264   20134481.3124
      4314.5864
 04  9  1 15 45 44.9950000  0  7G 1G11G14G15G19G22G25
 -13716409.54748 -10684339.60244  20957740.5384   20957739.3044
      4430.3284
 -17602717.65648 -13682192.43045  20420960.7574   20420957.3084
      3811.2394
  -2523278.95349  -1965250.71546  19679055.9134   19679053.1404
       -69.0974
   4537991.90247   3529777.41842  21752561.2884   21752560.6754
     -1782.7034
   -494243.37547   -385208.15243  22078654.0854   22078650.2694
      -597.9634
   -294850.51648   -231376.58243  21382240.7184   21382236.7374
      -245.1334
 -19005885.60549 -14792825.02045  20122186.7414   20122184.9834
      4307.9804
 04  9  1 15 45 59.9950000  0  7G 1G11G14G15G19G22G25
 -13782795.34048 -10736068.78144  20945107.6324   20945106.0154
      4425.7204
 -17659775.99648 -13726653.48044  20410102.7414   20410099.7694
      3803.8894
  -2522178.97749  -1964393.60545  19679265.6794   19679262.2264
       -73.3324
   4564780.57847   3550651.67642  21757659.5074   21757658.2964
     -1785.9124
   -485220.07047   -378177.02743  22080370.7104   22080367.8864
      -601.5544
   -291135.82048   -228482.03944  21382947.8194   21382943.9134
      -247.6464
 -19070406.52749 -14843101.04345  20109908.9834   20109907.0464
      4301.3954
 04  9  1 15 46 14.9950000  0  7G 1G11G14G15G19G22G25
 -13849111.53548 -10787743.72744  20932488.2494   20932487.0074
      4421.0804
 -17716723.32048 -13771028.02344  20399266.0464   20399262.4874
      3796.4884
  -2521015.37949  -1963486.90245  19679486.7964   19679483.4954
       -77.5734
   4591617.36747   3571563.41042  21762766.7104   21762765.0774
     -1789.1194
   -476142.81647   -371103.88343  22082097.9764   22082094.7104
      -605.1504
   -287383.09448   -225557.85943  21383662.1404   21383657.1164
      -250.1824
 -19134828.10549 -14893299.66445  20097649.9684   20097648.1754
      4294.7724
 04  9  1 15 46 29.9950000  0  7G 1G11G14G15G19G22G25
 -13915357.83248 -10839364.21944  20919882.2734   20919880.8154
      4416.4204
 -17773559.07448 -13815315.63744  20388450.5464   20388447.1874
      3789.0504
  -2519788.09449  -1962530.60545  19679720.1554   19679717.1674
       -81.8194
   4618502.21947   3592512.60242  21767882.2024   21767881.7654
     -1792.3234
   -467011.77747   -363988.83642  22083835.6084   22083832.1984
      -608.7364
   -283591.98848   -222603.78143  21384383.0694   21384378.6244
      -252.7404
 -19199149.83649 -14943420.48045  20085409.9834   20085408.2334
      4288.1154
 04  9  1 15 46 44.9950000  0  7G 1G11G14G15G19G22G25
 -13981535.06648 -10890930.89844  20907288.6244   20907287.4214
      4411.8164
 -17830284.11749 -13859516.96944  20377656.2654   20377652.9334
      3781.6704
  -2518498.28949  -1961525.57845  19679966.2334   19679962.5304
       -85.9874
   4645434.00047   3613498.35542  21773007.6944   21773006.5114
     -1795.4524
   -457828.31647   -356832.94143  22085583.3044   22085579.9764
      -612.2314
   -279763.37948   -219620.48443  21385112.0774   21385107.4334
      -255.2414
 -19263372.18049 -14993463.85545  20073189.1794   20073187.1944
      4281.4904
 04  9  1 15 46 59.9950000  0  7G 1G11G14G15G19G22G25
 -14047641.77048 -10942442.60544  20894709.4134   20894707.6944
      4407.1144
 -17886896.77048 -13903630.72344  20366883.2414   20366880.0194
      3774.1774
  -2517144.77049  -1960470.88745  19680223.7654   19680219.6904
       -90.2354
   4672413.86347   3634521.57042  21778141.6014   21778140.9684
     -1798.6584
   -448591.44547   -349635.37942  22087340.8904   22087336.8234
      -615.7914
   -275896.02048   -216606.98044  21385848.0234   21385843.4724
      -257.8244
 -19327493.34849 -15043428.39145  20060987.2414   20060985.0584
      4274.7454
 04  9  1 15 47 14.9950000  0  7G 1G11G14G15G19G22G25
 -14113678.76248 -10993899.99243  20882142.6404   20882141.0344
      4402.4664
 -17943397.58249 -13947657.34445  20356131.3904   20356128.0034
      3766.7214
  -2515728.60949  -1959367.39546  19680493.1084   19680489.3704
       -94.4114
   4699440.68847   3655581.39542  21783284.5854   21783284.2764
     -1801.7884
   -439302.30547   -342397.12542  22089108.3824   22089105.5504
      -619.2764
   -271990.61348   -213563.83244  21386590.9134   21386586.5154
      -260.3604
 -19391514.06249 -15093314.64545  20048804.5304   20048802.7654
      4268.0484
 04  9  1 15 47 29.9950000  0  7G 1G11G14G15G19G22G25
 -14179645.10248 -11045302.34044  20869589.9994   20869588.2184
      4397.7564
 -17999785.56249 -13991596.02744  20345401.5624   20345398.0154
      3759.1994
  -2514249.30949  -1958214.70746  19680774.6404   19680770.7454
       -98.6204
   4726514.94947   3676678.16442  21788436.9834   21788436.7764
     -1804.9514
   -429960.43747   -335117.80142  22090886.3124   22090883.3824
      -622.7914
   -268046.35948   -210490.43044  21387341.7574   21387337.3784
      -262.9504
 -19455433.25849 -15143121.78945  20036640.8514   20036639.5624
      4261.2804
 04  9  1 15 47 44.9950000  0  7G 1G11G14G15G19G22G25
 -14245541.59848 -11096650.25844  20857049.9604   20857048.4994
      4393.1004
 -18056061.22349 -14035447.19944  20334692.1714   20334689.2964
      3751.7114
  -2512707.93749  -1957013.64846  19681067.8744   19681064.6404
      -102.7584
   4753635.51247   3697811.03142  21793597.8984   21793597.4524
     -1808.0374
   -420567.17247   -327798.41843  22092673.8664   22092670.3154
      -626.2184
   -264064.07848   -207387.38344  21388099.3664   21388095.5344
      -265.4854
 -19519251.51649 -15192850.28145  20024496.4374   20024494.6124
      4254.5514
 04  9  1 15 47 59.9950000  0  7G 1G11G14G15G19G22G25
 -14311367.44548 -11147943.12544  20844523.3194   20844521.9604
      4388.3904
 -18112223.77749 -14079210.24245  20324005.0384   20324002.3944
      3744.1704
  -2511103.98849  -1955763.83246  19681373.5464   19681369.9764
      -106.9304
   4780802.84447   3718980.34042  21798767.5384   21798766.5544
     -1811.1554
   -411122.18447   -320438.73443  22094471.6164   22094467.8744
      -629.6664
   -260043.17248   -204254.23444  21388863.9444   21388861.1054
      -268.0604
 -19582967.70349 -15242499.25445  20012371.5234   20012369.8664
      4247.7464
 04  9  1 15 48 14.9950000  0  7G 1G11G14G15G19G22G25
 -14377122.83648 -11199181.09044  20832010.9914   20832009.7494
      4383.6934
 -18168273.20749 -14122885.12944  20313339.0304   20313335.6484
      3736.6294
  -2509438.00449  -1954465.67246  19681690.3984   19681687.2024
      -111.0664
   4808016.29347   3740185.59442  21803946.4374   21803945.6404
     -1814.2304
   -401626.01647   -313039.15643  22096278.3194   22096274.7844
      -633.0784
   -255983.84448   -201091.13344  21389636.4054   21389633.4094
      -270.6224
 -19646581.87949 -15292068.73045  20000266.3584   20000264.5934
      4240.9454
 04  9  1 15 48 29.9950000  0  7G 1G11G14G15G19G22G25
 -14442807.59848 -11250364.01644  20819511.3744   20819510.4014
      4378.9844
 -18224209.15249 -14166471.58245  20302694.9684   20302691.0424
      3729.0634
  -2507710.06249  -1953119.23845  19682019.0234   19682015.5934
      -115.1964
   4835275.80947   3761426.73442  21809132.8664   21809132.7264
     -1817.3014
   -392079.05947   -305600.00043  22098095.3124   22098092.0544
      -636.4644
   -251885.96548   -197898.03544  21390416.3584   21390413.2804
      -273.1924
 -19710093.78149 -15341558.50445  19988180.6554   19988178.5624
      4234.1274
 04  9  1 15 48 44.9950000  0  7G 1G11G14G15G19G22G25
 -14508422.08248 -11301492.18444  20807025.2414   20807024.2924
      4374.2994
 -18280031.81249 -14209969.77345  20292072.0624   20292068.3274
      3721.5114
  -2505920.85549  -1951725.06245  19682359.5934   19682355.5814
      -119.2804
   4862580.68447   3782703.21142  21814329.5074   21814329.4174
     -1820.3254
   -382482.09047   -298121.88342  22099921.4914   22099918.2064
      -639.7984
   -247750.03148   -194675.26644  21391203.6244   21391200.2964
      -275.7294
 -19773503.54749 -15390968.69945  19976113.9294   19976112.2844
      4227.3184
 04  9  1 15 48 59.9950000  0  7G 1G11G14G15G19G22G25
 -14573965.85948 -11352565.26244  20794552.7574   20794551.8394
      4369.5854
 -18335740.56649 -14253379.19144  20281471.2734   20281467.6284
      3713.9174
  -2504070.22349  -1950283.02745  19682712.0384   19682708.2224
      -123.3764
   4889930.88747   3804015.02742  21819533.9524   21819533.3944
     -1823.3474
   -372835.01647   -290604.73043  22101757.3824   22101754.0894
      -643.1384
   -243575.57048   -191422.47744  21391998.0774   21391994.3744
      -278.2974
 -19836810.55149 -15440298.81245  19964067.0304   19964065.0464
      4220.4674
 04  9  1 15 49 14.9950000  0  7G 1G11G14G15G19G22G25
 -14639439.56248 -11403583.72344  20782093.5384   20782092.7534
      4364.9144
 -18391335.88349 -14296700.23445  20270891.4684   20270888.4524
      3706.3544
  -2502159.11349  -1948793.86346  19683075.2184   19683071.9564
      -127.4074
   4917325.59447   3825361.51642  21824747.0234   21824746.6984
     -1826.3144
   -363138.92647   -283049.39143  22103602.4684   22103598.7764
      -646.4064
   -239363.25848   -188140.18744  21392800.0694   21392796.7264
      -280.8214
 -19900015.13749 -15489549.12545  19952039.9054   19952037.8704
      4213.6394
 04  9  1 15 49 29.9950000  0  7G 1G11G14G15G19G22G25
 -14704842.16848 -11454546.77344  20769648.1794   20769646.1794
      4360.1744
 -18446816.51649 -14339931.90645  20260333.9684   20260331.0344
      3698.7094
  -2500186.78549  -1947257.00045  19683450.5934   19683447.5114
      -131.4894
   4944765.41447   3846743.14542  21829968.6944   21829968.7184
     -1829.3214
   -353393.30547   -275455.43743  22105456.7494   22105453.9054
      -649.7084
   -235112.19948   -184827.69944  21393608.6944   21393605.3314
      -283.4044
 -19963116.11749 -15538718.69945  19940031.9444   19940029.6754
      4206.7324
 04  9  1 15 49 44.9950000  0  7G 1G11G14G15G19G22G25
 -14770174.26648 -11505454.90644  20757215.9054   20757214.5034
      4355.4734
 -18502182.98849 -14383074.62145  20249798.2884   20249795.0074
      3691.0984
  -2498154.12949  -1945673.13345  19683837.4134   19683834.3704
      -135.5104
   4972249.33647   3868159.12942  21835198.8044   21835198.9604
     -1832.2614
   -343599.24647   -267823.75043  22107321.0154   22107317.5584
      -652.9374
   -230823.04348   -181485.53544  21394424.8194   21394421.7024
      -285.9444
 -20026113.78149 -15587807.77345  19928043.8274   19928041.6014
      4199.8444
 04  9  1 15 49 59.9950000  0  7G 1G11G14G15G19G22G25
 -14835436.26648 -11556308.40244  20744796.5544   20744795.2414
      4350.8004
 -18557435.53549 -14426128.55145  20239283.8984   20239280.8664
      3683.5034
  -2496061.88349  -1944042.81645  19684235.1014   19684232.5384
      -139.4834
   4999776.64847   3889608.91442  21840436.7964   21840437.0234
     -1835.1544
   -333757.57447   -260154.94543  22109193.5384   22109190.7264
      -656.1114
   -226496.25848   -178114.04344  21395248.5624   21395244.4374
      -288.4524
 -20089008.45349 -15636816.58645  19916075.3744   19916072.8354
      4192.9784
 04  9  1 15 50 14.9950000  0  7G 1G11G14G15G19G22G25
 -14900627.00448 -11607106.37544  20732391.3124   20732389.9564
      4346.0494
 -18612572.82849 -14469092.68744  20228791.8434   20228788.5344
      3675.8204
  -2493909.22349  -1942365.43445  19684645.3124   19684642.3584
      -143.5114
   5027348.04747   3911093.08242  21845683.3194   21845683.8514
     -1838.0934
   -323867.60947   -252448.52743  22111075.4914   22111072.2694
      -659.3314
   -222130.68048   -174712.32044  21396078.9764   21396075.8274
      -291.0394
 -20151798.82449 -15685744.13745  19904126.8434   19904124.6284
      4186.0254
 04  9  1 15 50 29.9950000  0  7G 1G11G14G15G19G22G25
 -14965746.02048 -11657848.46144  20719999.5854   20719998.4334
      4341.2684
 -18667594.25049 -14511966.52345  20218321.1634   20218318.2964
      3668.0954
  -2491695.91049  -1940640.79345  19685066.3274   19685063.4644
      -147.5544
   5054963.66446   3932611.69942  21850938.7884   21850939.0894
     -1841.0414
   -313929.31648   -244704.43443  22112966.9294   22112963.6014
      -662.5534
   -217726.04748   -171280.16444  21396917.1014   21396913.6284
      -293.6424
 -20214484.14148 -15734589.82445  19892197.9764   19892195.9134
      4179.0214
 04  9  1 15 50 44.9950000  0  7G 1G11G14G15G19G22G25
 -15030793.44148 -11708534.75444  20707621.7884   20707620.2734
      4336.4954
 -18722499.77749 -14554750.05545  20207873.4684   20207870.2734
      3660.3684
  -2489422.44549  -1938869.27345  19685499.1944   19685495.4834
      -151.5644
   5082623.10246   3954164.47342  21856201.8354   21856202.8984
     -1843.9624
   -303943.34847   -236923.21143  22114866.9764   22114864.2804
      -665.7314
   -213282.41848   -167817.64144  21397763.3044   21397759.0544
      -296.2424
 -20277064.30949 -15783353.57445  19880289.2264   19880287.7494
      4172.0114
 04  9  1 15 50 59.9950000  0  7G 1G11G14G15G19G22G25
 -15095771.26248 -11759166.82044  20695256.6874   20695255.2764
      4331.8554
 -18777291.25049 -14597444.72745  20197447.3044   20197443.5194
      3652.7654
  -2487091.16849  -1937052.71545  19685942.9604   19685939.1484
      -155.4184
   5110323.86747   3975749.41842  21861473.7654   21861473.9874
     -1846.7184
   -293912.04748   -229106.63743  22116775.2184   22116773.3904
      -668.7534
   -208801.98048   -164326.40644  21398615.4524   21398612.1554
      -298.6964
 -20339541.27049 -15832036.89145  19868400.7494   19868399.3124
      4165.1314
 04  9  1 15 51 14.9950000  0  7G 1G11G14G15G19G22G25
 -15160678.19548 -11809743.64844  20682905.6014   20682904.1054
      4327.1294
 -18831967.10549 -14640049.28945  20187042.7104   20187039.4254
      3645.0574
  -2484700.95349  -1935190.21945  19686397.5934   19686394.4254
      -159.3484
   5138067.02747   3997367.43442  21866752.9374   21866753.0854
     -1849.5444
   -283834.53948   -221254.06643  22118694.0694   22118690.6754
      -671.8344
   -204283.33648   -160805.44144  21399475.7264   21399472.2454
      -301.2434
 -20401913.30549 -15880638.46145  19856531.2104   19856530.0814
      4158.1364
 04  9  1 15 51 29.9950000  0  7G 1G11G14G15G19G22G25
 -15225513.54749 -11860264.68744  20670568.0464   20670566.0194
      4322.3574
 -18886526.66449 -14682563.24245  20176660.2104   20176657.0194
      3637.3044
  -2482251.50849  -1933281.57045  19686863.7334   19686860.6594
      -163.2964
   5165852.89846   4019018.69542  21872040.1244   21872040.7924
     -1852.3914
   -273710.62147   -213365.36343  22120620.8514   22120617.4254
      -674.9284
   -199725.98448   -157254.28544  21400343.2334   21400339.3554
      -303.8234
 -20464179.65249 -15929157.68045  19844682.4134   19844680.7494
      4151.0904
 04  9  1 15 51 44.9950000  0  7G 1G11G14G15G19G22G25
 -15290277.01649 -11910729.73044  20658243.7734   20658242.3744
      4317.5654
 -18940969.35549 -14724986.11345  20166300.1084   20166296.9564
      3629.5134
  -2479742.82049  -1931326.75845  19687341.0304   19687338.1284
      -167.2464
   5193681.32047   4040703.14542  21877336.1944   21877336.4764
     -1855.2284
   -263540.49647   -205440.62543  22122555.5774   22122552.2184
      -678.0084
   -195129.73048   -153672.80544  21401217.5384   21401214.0854
      -306.4174
 -20526339.75449 -15977594.10245  19832853.8274   19832852.4484
      4144.0074
 04  9  1 15 51 59.9940000  0  7G 1G11G14G15G19G22G25
 -15354965.82049 -11961136.58244  20645933.8464   20645932.6434
      4312.5874
 -18995292.87549 -14767316.13745  20155962.8614   20155959.3974
      3621.5684
  -2477176.73449  -1929327.23045  19687829.3384   19687826.3544
      -171.0724
   5221548.75847   4062417.98842  21882638.9404   21882639.5614
     -1857.8294
   -253326.79347   -197481.92642  22124498.7294   22124496.1154
      -680.9144
   -190496.31248   -150062.39844  21402099.4714   21402095.7404
      -308.8954
 -20588390.73449 -16025945.50445  19821045.9004   19821043.9434
      4136.7324
 04  9  1 15 52 14.9940000  0  7G 1G11G14G15G19G22G25
 -15419587.49248 -12011491.11744  20633636.6744   20633635.1704
      4308.1114
 -19049503.45349 -14809558.15245  20145647.0104   20145643.1864
      3614.0394
  -2474552.19949  -1927282.15245  19688328.7604   19688325.4754
      -174.9694
   5249459.67647   4084166.69542  21887951.2364   21887950.3734
     -1860.7284
   -243067.33247   -189487.57443  22126451.3304   22126448.1044
      -683.9644
   -185824.15648   -146421.78544  21402988.6274   21402985.0844
      -311.4774
 -20650339.62949 -16074217.36345  19809257.4944   19809255.6504
      4129.9264
 04  9  1 15 52 29.9940000  0  7G 1G11G14G15G19G22G25
 -15484137.01248 -12061789.43044  20621353.0334   20621352.0534
      4303.3014
 -19103596.33249 -14851708.44945  20135353.4164   20135349.8424
      3606.1924
  -2471869.01649  -1925191.36345  19688839.4084   19688836.0724
      -178.8794
   5277412.40247   4105947.98042  21893269.8464   21893269.8734
     -1863.5154
   -232762.71547   -181458.05942  22128413.2914   22128409.4824
      -686.9744
   -181112.96148   -142750.75044  21403885.1824   21403881.4634
      -314.0804
 -20712181.44549 -16122405.77745  19797489.4004   19797487.5534
      4122.7884
 04  9  1 15 52 44.9940000  0  7G 1G11G14G15G19G22G25
 -15548614.06248 -12112031.28144  20609083.6584   20609082.4514
      4298.4704
 -19157571.07049 -14893766.69545  20125082.4244   20125078.9284
      3598.3164
  -2469127.12549  -1923054.84045  19689361.2054   19689358.5494
      -182.7934
   5305407.03146   4127761.93442  21898596.8304   21898597.4124
     -1866.3094
   -222413.13747   -173393.47743  22130382.6824   22130379.0534
      -689.9724
   -176362.39848   -139049.05144  21404788.9004   21404785.4404
      -316.7044
 -20773915.48049 -16170510.20745  19785741.9244   19785739.7364
      4115.6024
 04  9  1 15 52 59.9940000  0  7G 1G11G14G15G19G22G25
 -15613020.76649 -12162218.31644  20596827.3224   20596826.1194
      4293.7804
 -19211429.68749 -14935734.46145  20114833.5884   20114830.0224
      3590.5744
  -2466328.89549  -1920874.42245  19689893.8074   19689890.8504
      -186.5494
   5333441.00046   4149606.52042  21903931.5884   21903932.3694
     -1868.9314
   -212021.08247   -165295.81642  22132359.5654   22132356.3934
      -692.8044
   -171574.57048   -135318.31644  21405700.1434   21405696.4594
      -319.1894
 -20835543.76649 -16218532.22345  19774014.4324   19774012.0144
      4108.5524
 04  9  1 15 53 14.9940000  0  7G 1G11G14G15G19G22G25
 -15677356.18748 -12212349.79744  20584584.3774   20584583.1904
      4289.0284
 -19265171.11749 -14977610.91045  20104606.9554   20104603.1664
      3582.7624
  -2463473.69949  -1918649.59845  19690437.1434   19690434.1584
      -190.3464
   5361514.91446   4171482.23442  21909274.3614   21909274.0454
     -1871.5944
   -201585.97747   -157164.60942  22134345.0724   22134342.0494
      -695.6744
   -166748.73048   -131557.94544  21406618.6434   21406614.8814
      -321.7234
 -20897065.19149 -16266470.98845  19762306.7604   19762304.6664
      4101.4284
 04  9  1 15 53 29.9940000  0  7G 1G11G14G15G19G22G25
 -15741620.16448 -12262425.61744  20572355.3934   20572354.1704
      4284.2654
 -19318795.03949 -15019395.79344  20094402.2524   20094398.3934
      3574.9284
  -2460561.75049  -1916380.55545  19690990.7134   19690988.6784
      -194.1304
   5389628.59046   4193388.92242  21914624.0334   21914623.4084
     -1874.2454
   -191108.11747   -149000.07442  22136339.1744   22136335.5024
      -698.5244
   -161884.74248   -127767.83643  21407544.0104   21407540.4864
      -324.2664
 -20958479.42249 -16314326.21945  19750620.5494   19750618.1784
      4094.2824
 04  9  1 15 53 44.9940000  0  7G 1G11G14G15G19G22G25
 -15805813.40248 -12312446.32044  20560139.8224   20560138.6624
      4279.5494
 -19372301.92649 -15061089.48444  20084220.3304   20084216.2214
      3567.1264
  -2457593.93049  -1914067.98845  19691555.9794   19691553.2054
      -197.8554
   5417780.93846   4215325.79342  21919981.7134   21919980.8154
     -1876.8234
   -180588.66447   -140803.15242  22138340.3154   22138338.0844
      -701.2974
   -156983.35248   -123948.60243  21408476.7294   21408472.9124
      -326.7594
 -21019786.92249 -16362098.27745  19738954.1044   19738951.3304
      4087.1674
 04  9  1 15 53 59.9940000  0  7G 1G11G14G15G19G22G25
 -15869935.37148 -12362411.46144  20547937.7754   20547936.7644
      4274.7984
 -19425691.07849 -15102691.42645  20074060.9634   20074056.8894
      3559.2774
  -2454570.06249  -1911711.73845  19692131.5494   19692128.0764
      -201.5914
   5445972.17246   4237292.96942  21925345.8154   21925345.2994
     -1879.4164
   -170027.60947   -132573.79742  22140350.6664   22140347.4164
      -704.0704
   -152044.09048   -120099.87543  21409417.0184   21409413.2524
      -329.2844
 -21080987.08249 -16409786.69545  19727307.6584   19727306.1274
      4080.0114
 04  9  1 15 54 14.9940000  0  7G 1G11G14G15G19G22G25
 -15933985.22748 -12412320.43444  20535749.6664   20535747.8614
      4269.9904
 -19478961.72349 -15144201.03545  20063923.4864   20063919.7754
      3551.3764
  -2451489.61749  -1909311.39145  19692717.7834   19692714.3654
      -205.3634
   5474202.83647   4259290.85542  21930718.1114   21930717.4204
     -1882.0444
   -159424.41447   -124311.60542  22142368.4084   22142365.2954
      -706.8804
   -147066.19948   -116221.02343  21410363.9084   21410359.5334
      -331.8594
 -21142078.86749 -16457390.66845  19715682.2914   19715680.7724
      4072.7864
 04  9  1 15 54 29.9940000  0  7G 1G11G14G15G19G22G25
 -15997963.11748 -12462173.33644  20523574.6974   20523573.5534
      4265.1934
 -19532113.61749 -15185618.09845  20053809.1664   20053805.0924
      3543.4604
  -2448352.96949  -1906867.25845  19693314.5494   19693311.6824
      -209.1104
   5502472.44947   4281319.08642  21936097.1744   21936096.6234
     -1884.6414
   -148779.82047   -116017.12942  22144393.9004   22144390.7054
      -709.6404
   -142049.92248   -112312.25043  21411318.6354   21411314.5184
      -334.4184
 -21203062.14549 -16504910.09045  19704077.7604   19704075.4754
      4065.5524
 04  9  1 15 54 44.9940000  0  7G 1G11G14G15G19G22G25
 -16061870.25448 -12511971.08644  20511414.0494   20511412.6004
      4260.4764
 -19585147.81649 -15226943.45345  20043716.9004   20043713.3034
      3535.6134
  -2445161.60949  -1904380.49245  19693921.9554   19693918.6934
      -212.7574
   5530779.45747   4303376.45342  21941484.0654   21941483.3224
     -1887.1344
   -138095.35547   -107691.62142  22146427.5964   22146424.1934
      -712.2984
   -136996.44548   -108374.50443  21412280.2684   21412276.4324
      -336.8984
 -21263937.93449 -16552345.77045  19692493.3304   19692491.2874
      4058.3864
 04  9  1 15 54 59.9940000  0  7G 1G11G14G15G19G22G25
 -16125705.50449 -12561712.83644  20499266.6504   20499264.9754
      4255.6834
 -19638063.18049 -15268176.22745  20033647.8774   20033643.7484
      3527.6914
  -2441914.73449  -1901850.46945  19694539.8774   19694536.6194
      -216.4584
   5559124.62547   4325463.56342  21946878.0104   21946877.3504
     -1889.6784
   -127370.43047    -99334.56242  22148468.5334   22148465.2294
      -714.9954
   -131904.68448   -104406.91443  21413248.8224   21413245.3304
      -339.4514
 -21324704.96149 -16599696.68445  19680929.9944   19680927.9794
      4051.1354
 04  9  1 15 55 14.9940000  0  7G 1G11G14G15G19G22G25
 -16189468.88749 -12611398.58644  20487132.6974   20487131.5494
      4250.8924
 -19690859.52049 -15309316.23445  20023600.6744   20023597.3304
      3519.7564
  -2438612.59049  -1899277.37545  19695168.0254   19695164.6274
      -220.1434
   5587507.60947   4347580.11742  21952278.9634   21952278.2444
     -1892.1994
   -116605.39547    -90946.26242  22150516.7364   22150513.4794
      -717.6694
   -126774.67648   -100409.53142  21414225.1664   21414220.9244
      -342.0014
 -21385363.00849 -16646962.68445  19669386.9004   19669384.7914
      4043.8704
 04  9  1 15 55 29.9940000  0  7G 1G11G14G15G19G22G25
 -16253160.54748 -12661028.44144  20475012.5654   20475011.2874
      4246.1114
 -19743536.78149 -15350363.45745  20013576.6114   20013573.2724
      3511.8174
  -2435255.55549  -1896661.51245  19695806.6354   19695803.3074
      -223.8024
   5615927.96547   4369725.78942  21957687.7834   21957686.5844
     -1894.6904
   -105800.88747    -82527.20342  22152572.8774   22152569.3224
      -720.3014
   -121606.69548    -96382.55543  21415208.5184   21415204.6704
      -344.5324
 -21445911.97749 -16694143.68045  19657864.5494   19657862.7174
      4036.5984
 04  9  1 15 55 44.9940000  0  7G 1G11G14G15G19G22G25
 -16316780.73448 -12710602.61744  20462906.5494   20462905.2364
      4241.3464
 -19796095.10549 -15391318.01245  20003574.9474   20003571.6584
      3503.8884
  -2431844.39549  -1894003.47345  19696455.7054   19696452.3614
      -227.4114
   5644384.93047   4391900.02342  21963102.8384   21963102.3934
     -1897.1314
    -94957.65247    -74077.96143  22154636.4164   22154632.6354
      -722.8824
   -116401.03548    -92326.21543  21416199.3224   21416194.3074
      -347.0444
 -21506351.96549 -16741239.78145  19646363.5024   19646361.8574
      4029.3334
 04  9  1 15 55 59.9940000  0  7G 1G11G14G15G19G22G25
 -16380329.44548 -12760121.08644  20450813.1744   20450812.0614
      4236.5814
 -19848534.30949 -15432179.73045  19993596.2294   19993592.9284
      3495.9474
  -2428379.20349  -1891303.33245  19697115.5104   19697112.0654
      -231.0134
   5672878.25447   4414102.53942  21968524.9244   21968524.7094
     -1899.5554
    -84076.10947    -65598.86343  22156706.9474   22156703.5254
      -725.4364
   -111157.68748    -88240.49243  21417197.2994   21417193.4794
      -349.5574
 -21566682.74649 -16788250.77045  19634883.2444   19634881.7524
      4022.0524
 04  9  1 15 56 14.9940000  0  7G 1G11G14G15G19G22G25
 -16443806.64848 -12809583.82444  20438733.5184   20438732.7954
      4231.8144
 -19900854.23849 -15472948.52045  19983640.0804   19983636.9634
      3487.9954
  -2424860.25449  -1888561.30945  19697785.1584   19697781.8654
      -234.5974
   5701407.56647   4436333.10942  21973954.0254   21973953.2214
     -1901.9544
    -73156.68747    -57090.27742  22158785.4324   22158782.0724
      -727.9614
   -105876.82448    -84125.56243  21418201.9794   21418198.2254
      -352.0584
 -21626904.04749 -16835176.44145  19623423.3464   19623421.0654
      4014.7534
 04  9  1 15 56 29.9940000  0  7G 1G11G14G15G19G22G25
 -16507211.30548 -12858990.03944  20426668.2444   20426667.3344
      4226.9774
 -19953053.60549 -15513623.35244  19973706.8074   19973703.8034
      3479.9584
  -2421286.82849  -1885776.82845  19698464.9634   19698461.6664
      -238.2284
   5729973.51647   4458592.27342  21979390.2524   21979389.5574
     -1904.3974
    -62198.72347    -48551.64142  22160870.6584   22160867.4794
      -730.5314
   -100557.35248    -79980.56243  21419214.1904   21419210.6784
      -354.6324
 -21687014.66449 -16882015.87545  19611984.7364   19611982.7874
      4007.3744
 04  9  1 15 56 44.9940000  0  7G 1G11G14G15G19G22G25
 -16570544.66048 -12908340.69944  20414616.2684   20414614.9364
      4222.2244
 -20005133.57049 -15554205.14545  19963796.6044   19963793.3264
      3471.9984
  -2417660.42249  -1882951.06645  19699155.0494   19699152.1664
      -241.7604
   5758574.53147   4480878.73842  21984832.9864   21984832.2254
     -1906.7344
    -51203.94947    -39984.29743  22162962.4164   22162959.6744
      -732.9854
    -95200.57048    -75806.48843  21420233.7994   21420230.3264
      -357.1194
 -21747015.68449 -16928769.91045  19600566.4944   19600564.5844
      4000.0684
 04  9  1 15 56 59.9940000  0  7G 1G11G14G15G19G22G25
 -16633805.95348 -12957635.20744  20402577.9004   20402576.8934
      4217.4204
 -20057093.20749 -15594693.18045  19953908.9164   19953905.6824
      3463.9764
  -2413980.64149  -1880083.71945  19699855.3224   19699852.1354
      -245.3194
   5787211.02347   4503192.86342  21990281.6744   21990281.3774
     -1909.0994
    -40172.00447    -31388.01243  22165061.9634   22165059.2684
      -735.4634
    -89805.88348    -71602.85943  21421260.3694   21421256.5724
      -359.6464
 -21806906.18449 -16975437.82046  19589170.2754   19589168.1744
      3992.7004
 04  9  1 15 57 14.9940000  0  7G 1G11G14G15G19G22G25
 -16696995.66048 -13006873.92244  20390553.0884   20390552.3034
      4212.6474
 -20108932.85549 -15635087.72745  19944044.0104   19944041.0064
      3455.9774
  -2410248.18749  -1877175.32445  19700565.3544   19700561.7834
      -248.8304
   5815882.29747   4525534.04742  21995737.4634   21995737.8424
     -1911.4184
    -29103.76247    -22763.44943  22167168.2214   22167165.7954
      -737.8834
    -84373.67248    -67369.99643  21422293.4164   21422289.9904
      -362.1474
 -21866686.34849 -17022019.75446  19577794.2754   19577792.4904
      3985.3444
 04  9  1 15 57 29.9940000  0  7G 1G11G14G15G19G22G25
 -16760113.81648 -13056056.89844  20378542.9004   20378541.2754
      4207.8774
 -20160652.35249 -15675388.63745  19934202.1824   19934199.0374
      3447.9664
  -2406463.35249  -1874226.11745  19701285.5884   19701282.0924
      -252.3224
   5844587.94946   4547902.02342  22001199.7834   22001200.5764
     -1913.7104
    -17999.66047    -14110.95743  22169281.3694   22169278.3504
      -740.2734
    -78904.05947    -63107.99243  21423334.7994   21423331.6434
      -364.6414
 -21926356.10949 -17068515.66046  19566439.5494   19566437.3074
      3977.9844
 04  9  1 15 57 44.9940000  0  7G 1G11G14G15G19G22G25
 -16823160.26648 -13105183.99244  20366545.2834   20366544.0804
      4203.0974
 -20212251.40249 -15715595.70345  19924383.2524   19924379.7914
      3439.9374
  -2402626.12949  -1871236.08645  19702015.8694   19702013.0254
      -255.8154
   5873327.85546   4570296.71542  22006669.0024   22006670.0964
     -1915.9944
     -6860.00047     -5430.71943  22171401.3304   22171397.9824
      -742.6444
    -73396.96548    -58816.79343  21424382.5334   21424379.3854
      -367.1404
 -21985915.10949 -17114925.27346  19555105.9474   19555103.7724
      3970.6004
 04  9  1 15 57 59.9940000  0  7G 1G11G14G15G19G22G25
 -16886133.97748 -13154254.41044  20354561.3934   20354560.1274
      4198.2474
 -20263728.90249 -15755708.04745  19914587.5494   19914583.9434
      3431.8334
  -2398735.84849  -1868204.71545  19702756.3774   19702753.4634
      -259.3524
   5902102.60946   4592718.51242  22012145.0414   22012146.5254
     -1918.3174
      4315.83648      3277.67243  22173527.9714   22173524.6584
      -745.0564
    -67851.36748    -54495.59443  21425438.0884   21425434.5184
      -369.7074
 -22045362.13749 -17161247.61746  19543793.2444   19543790.9204
      3963.1354
 04  9  1 15 58 14.9940000  0  7G 1G11G14G15G19G22G25
 -16949034.16048 -13203267.54344  20342592.2754   20342590.9674
      4193.3464
 -20315083.71149 -15795724.78945  19904814.9634   19904811.6664
      3423.6544
  -2394791.97749  -1865131.57445  19703506.9164   19703503.1664
      -262.9254
   5930912.64546   4615167.81642  22017627.3934   22017628.5574
     -1920.6694
     15528.17647     12014.52743  22175661.6504   22175658.5454
      -747.4894
    -62266.54348    -50143.80943  21426501.0804   21426497.1904
      -372.3224
 -22104696.19149 -17207481.93746  19532502.4474   19532500.4244
      3955.6044
 04  9  1 15 58 29.9940000  0  7G 1G11G14G15G19G22G25
 -17011861.71148 -13252224.06644  20330636.5964   20330634.9364
      4188.5034
 -20366316.68449 -15835646.58645  19895065.6904   19895062.1974
      3415.5324
  -2390795.76249  -1862017.64845  19704267.6114   19704264.1314
      -266.4144
   5959756.77746   4637643.69542  22023116.0494   22023117.2724
     -1922.9424
     26775.55947     20778.69143  22177801.4164   22177799.0494
      -749.8264
    -56643.35948    -45762.12943  21427571.1194   21427567.2134
      -374.8794
 -22163917.93449 -17253628.75445  19521233.2914   19521230.8614
      3948.1164
 04  9  1 15 58 44.9940000  0  7G 1G11G14G15G19G22G25
 -17074617.38749 -13301124.58644  20318694.7134   20318692.8424
      4183.7124
 -20417428.56649 -15875474.04345  19885339.5724   19885335.8264
      3407.4594
  -2386748.27749  -1858863.78145  19705037.2754   19705034.7094
      -269.8324
   5988633.77746   4660145.18842  22028611.7684   22028612.1354
     -1925.1334
     38056.84846     29569.24242  22179948.2294   22179945.5374
      -752.0864
    -50982.72748    -41351.27043  21428648.1744   21428644.8184
      -377.3764
 -22223028.07449 -17299688.59045  19509984.6824   19509982.5064
      3940.6764
 04  9  1 15 58 59.9940000  0  7G 1G11G14G15G19G22G25
 -17137300.32848 -13349968.43444  20306766.5414   20306764.6744
      4178.8634
 -20468418.29749 -15915206.31245  19875636.3544   19875632.9004
      3399.3154
  -2382648.88349  -1855669.46545  19705817.3304   19705814.5724
      -273.2934
   6017544.12947   4682672.70342  22034113.6434   22034113.5224
     -1927.3574
     49372.54747     38386.62942  22182101.5494   22182098.8264
      -754.3804
    -45283.79748    -36910.57444  21429733.0254   21429729.3544
      -379.9294
 -22282025.58249 -17345660.67645  19498757.9634   19498755.4404
      3933.1674
 04  9  1 15 59 14.9940000  0  7G 1G11G14G15G19G22G25
 -17199911.19148 -13398756.11344  20294851.7754   20294850.3654
      4174.0584
 -20519286.31649 -15954843.73445  19865956.6974   19865953.0654
      3391.2014
  -2378498.41049  -1852435.33645  19706607.5254   19706603.9434
      -276.6984
   6046486.96947   4705225.53142  22039621.8154   22039621.2174
     -1929.5234
     60721.62147     47230.01642  22184260.7604   22184258.6624
      -756.6054
    -39547.30948    -32440.62144  21430824.6044   21430820.9824
      -382.4334
 -22340910.69949 -17391545.16445  19487552.5724   19487549.8934
      3925.6744
 04  9  1 15 59 29.9940000  0  7G 1G11G14G15G19G22G25
 -17262450.83248 -13447488.28544  20282951.4084   20282949.2874
      4169.3094
 -20570033.33249 -15994386.86745  19856299.5494   19856296.0024
      3383.1344
  -2374298.06249  -1849162.34045  19707406.7604   19707403.5574
      -280.0234
   6075461.14547   4727802.77042  22045134.4944   22045134.5024
     -1931.6124
     72102.64847     56098.30142  22186426.8464   22186424.3814
      -758.7354
    -33774.16048    -27942.09044  21431923.3854   21431919.6934
      -384.8774
 -22399684.20749 -17437342.69146  19476368.0724   19476366.0764
      3918.2344
 04  9  1 15 59 44.9940000  0  7G 1G11G14G15G19G22G25
 -17324916.66048 -13496162.95344  20271063.9864   20271062.5064
      4164.3894
 -20620656.55549 -16033833.54345  19846666.4084   19846662.7914
      3374.8824
  -2370045.47349  -1845848.64545  19708215.8854   19708212.5964
      -283.5064
   6104468.96146   4750406.19542  22050654.1584   22050654.9824
     -1933.8544
     83517.82046     64993.21142  22188598.9474   22188596.9714
      -761.0114
    -27961.82848    -23413.01643  21433028.9164   21433025.7254
      -387.4894
 -22458343.41449 -17483051.16046  19465205.6824   19465203.6044
      3910.6144
 04  9  1 15 59 59.9940000  0  7G 1G11G14G15G19G22G25
 -17387309.34048 -13544780.61744  20259191.0804   20259189.8074
      4159.5124
 -20671156.62149 -16073184.25045  19837056.5964   19837053.0184
      3366.6714
  -2365741.59049  -1842494.97345  19709034.8694   19709031.7094
      -286.9264
   6133509.43046   4773035.05142  22056180.5414   22056181.2754
     -1936.0314
     94966.06347     73913.86742  22190777.8694   22190775.0684
      -763.2164
    -22110.87948    -18853.85544  21434142.8694   21434139.1274
      -390.0634
 -22516888.68749 -17528670.83645  19454064.5334   19454062.7794
      3903.0184
 04  9  1 16  0 14.9940000  0  7G 1G11G14G15G19G22G25
 -17449629.91848 -13593342.09444  20247332.5654   20247330.1474
      4154.7054
 -20721534.33249 -16112439.62945  19827469.9474   19827466.3974
      3358.5144
  -2361387.81249  -1839102.43445  19709863.5104   19709860.4594
      -290.2524
   6162580.96546   4795688.13342  22061712.9864   22061713.4324
     -1938.1024
    106445.92647     82859.16042  22192962.3224   22192960.3154
      -765.3244
    -16222.50848    -14265.56244  21435263.1664   21435259.5374
      -392.5584
 -22575320.96949 -17574202.48446  19442945.5574   19442943.4594
      3895.4854
 04  9  1 16  0 29.9940000  0  7G 1G11G14G15G19G22G25
 -17511878.45749 -13641847.44944  20235486.5964   20235484.6744
      4149.9034
 -20771789.60249 -16151599.58245  19817906.8614   19817903.1354
      3350.3514
  -2356984.43749  -1835671.24645  19710701.5184   19710698.1234
      -293.5584
   6191683.19547   4818365.12942  22067251.4794   22067251.6544
     -1940.1494
    117956.97346     91828.74242  22195153.2444   22195150.4674
      -767.4034
    -10296.70348     -9648.06644  21436391.0104   21436387.4754
      -395.0544
 -22633639.96149 -17619645.84446  19431847.9324   19431845.4124
      3887.9334
 04  9  1 16  0 44.9940000  0  7G 1G11G14G15G19G22G25
 -17574053.72748 -13690295.69944  20223654.9404   20223653.7954
      4145.0184
 -20821921.02049 -16190663.03145  19808367.0654   19808363.5614
      3342.0954
  -2352530.35249  -1832200.53545  19711549.3464   19711545.9164
      -296.9394
   6220817.15247   4841066.87142  22072795.8224   22072795.6824
     -1942.2644
    129500.02746    100823.27342  22197349.7914   22197347.5334
      -769.5374
     -4332.39848     -5000.57443  21437526.0414   21437522.2364
      -397.6204
 -22691844.35549 -17664999.91846  19420771.9554   19420769.6664
      3880.2934
 04  9  1 16  0 59.9940000  0  7G 1G11G14G15G19G22G25
 -17636156.61348 -13738687.55144  20211837.2444   20211835.7724
      4140.1924
 -20871929.30149 -16229630.52745  19798850.5804   19798847.5414
      3333.8854
  -2348026.80949  -1828691.28145  19712405.8304   19712402.9794
      -300.2364
   6249981.60247   4863792.36742  22078345.3934   22078345.5144
     -1944.2974
    141073.63346    109841.65642  22199551.8384   22199549.6474
      -771.5744
      1669.50848      -323.78944  21438668.0254   21438664.3154
      -400.1274
 -22749934.84449 -17710265.23045  19409717.4794   19409714.8854
      3872.6994
 04  9  1 16  1 14.9940000  0  7G 1G11G14G15G19G22G25
 -17698186.31649 -13787022.37544  20200033.4084   20200031.8264
      4135.3144
 -20921813.68049 -16268501.48445  19789358.2994   19789354.7754
      3325.6254
  -2343473.20749  -1825143.04745  19713272.3934   19713270.2404
      -303.5734
   6279177.03147   4886541.99242  22083900.8544   22083901.5414
     -1946.3624
    152678.38747    118884.27342  22201761.1194   22201758.2484
      -773.6504
      7709.84849      4382.93044  21439817.6664   21439814.1114
      -402.6894
 -22807910.39149 -17755440.97745  19398685.0494   19398682.4004
      3865.0364
 04  9  1 16  1 29.9940000  0  7G 1G11G14G15G19G22G25
 -17760143.67249 -13835300.83244  20188243.4324   20188241.8574
      4130.4904
 -20971574.65649 -16307276.28545  19779889.0884   19779885.3654
      3317.3984
  -2338870.62949  -1821556.63345  19714148.4864   19714145.9324
      -306.8394
   6308402.28546   4909314.87942  22089462.2754   22089462.1974
     -1948.3504
    164312.83246    127950.03542  22203973.9404   22203972.2324
      -775.6304
     13787.61748      9118.81344  21440974.5184   21440970.6474
      -405.1854
 -22865771.64149 -17800527.64845  19387674.5494   19387672.4284
      3857.4174
 04  9  1 16  1 44.9940000  0  7G 1G11G14G15G19G22G25
 -17822028.43449 -13883522.70744  20176467.6274   20176465.1624
      4125.6514
 -21021211.83649 -16345954.61345  19770443.4404   19770440.0144
      3309.1454
  -2334219.19549  -1817932.14845  19715033.5724   19715030.8154
      -310.0964
   6337657.22746   4932110.89842  22095028.3774   22095028.8424
     -1950.3294
    175976.90646    137038.88342  22206193.9404   22206191.7564
      -777.6054
     19903.06648     13884.05543  21442138.2604   21442134.6974
      -407.6974
 -22923518.21949 -17845524.97745  19376685.7444   19376683.4124
      3849.7724
 04  9  1 16  1 59.9940000  0  8G20G 1G11G14G15G19G22G25
   -174371.56656   -128162.34052  22283225.1504   22283222.5224

 -17883841.49649 -13931688.72344  20164704.3774   20164702.6864
      4120.8714
 -21070726.23449 -16384537.27045  19761021.0804   19761017.7834
      3300.9604
  -2329519.94949  -1814270.41045  19715927.6044   19715924.0964
      -313.2834
   6366940.54346   4954929.01642  22100601.5574   22100601.2364
     -1952.2214
    187669.12947    146149.67642  22208419.9634   22208416.0414
      -779.4824
     26055.17648     18677.87143  21443308.5964   21443304.9474
      -410.1414
 -22981150.87549 -17890433.53145  19365718.3464   19365716.9864
      3842.1774
 04  9  1 16  2 14.9940000  0  8G20G 1G11G14G15G19G22G25
   -247111.40646   -184842.77042  22269383.5104   22269379.9984
      4849.3234
 -17945583.16849 -13979799.09844  20152955.3544   20152953.6974
      4116.1114
 -21120117.85949 -16423024.26245  19751622.4084   19751618.9754
      3292.7754
  -2324773.54749  -1810571.92645  19716831.1194   19716827.7724
      -316.4274
   6396251.55546   4977768.71542  22106179.6194   22106179.5844
     -1954.0674
    199388.88347    155281.85642  22210649.5334   22210646.1234
      -781.3174
     32243.72348     23500.08243  21444486.0334   21444482.6504
      -412.5704
 -23038669.78549 -17935253.44946  19354772.7914   19354770.9864
      3834.5944
 04  9  1 16  2 29.9940000  0  8G20G 1G11G14G15G19G22G25
   -319854.13346   -241525.38742  22255541.1194   22255537.1934
      4849.5154
 -18007254.96549 -14027855.03944  20141219.3154   20141217.9164
      4111.4534
 -21169388.07849 -16461416.65245  19742246.6904   19742242.8614
      3284.6814
  -2319981.77749  -1806838.09845  19717743.0334   19717739.8074
      -319.4514
   6425588.43847   5000628.58242  22111761.9714   22111762.5334
     -1955.7924
    211134.21147    164434.09442  22212884.5724   22212881.1274
      -783.0224
     38467.02348     28349.35943  21445670.7684   21445666.8774
      -414.8874
 -23096076.18049 -17979985.69946  19343848.9324   19343846.7724
      3827.0934
 04  9  1 16  2 44.9940000  0  8G20G 1G11G14G15G19G22G25
   -392599.33246   -298209.96142  22241697.3384   22241694.2874
      4849.6804
 -18068856.51648 -14075856.23844  20129496.5964   20129495.6274
      4106.7704
 -21218536.50849 -16499714.13745  19732893.9944   19732890.4714
      3276.5624
  -2315144.51649  -1803068.81245  19718663.6044   19718660.6044
      -322.4844
   6454951.32447   5023508.68042  22117349.6354   22117349.2254
     -1957.5264
    222905.05547    173606.12142  22215124.6744   22215120.3304
      -784.7234
     44725.50048     33226.05943  21446861.5024   21446858.0374
      -417.2324
 -23153369.43749 -18024629.79746  19332946.4244   19332944.4364
      3819.5514
 04  9  1 16  2 59.9940000  0  7G20G 1G11G14G19G22G25
   -465345.68746   -354895.41842  22227855.4474   22227851.0924
      4849.7574
 -18130386.63749 -14123801.77344  20117788.1584   20117787.0534
      4102.0084
 -21267561.72349 -16537915.60545  19723564.4474   19723561.3424
      3268.3484
  -2310260.90249  -1799263.41045  19719592.7364   19719589.6194
      -325.5744
    234702.19147    182798.66842  22217369.2834   22217366.6904
      -786.4764
     51020.23848     38131.03143  21448058.8694   21448056.3184
      -419.6494
 -23210548.33249 -18069184.77046  19322065.6044   19322063.3654
      3811.9264
 04  9  1 16  3 14.9940000  0  7G20G 1G11G14G19G22G25
   -538093.39545   -411581.93042  22214011.2364   22214008.2254
      4849.8474
 -18191845.68049 -14171691.93744  20106092.9004   20106091.6314
      4097.2704
 -21316463.70349 -16576021.05145  19714259.0184   19714255.4714
      3260.1324
  -2305331.40249  -1795422.24245  19720530.8224   19720527.2724
      -328.6334
    246524.91847    192011.14542  22219619.2754   22219616.3694
      -788.1824
     57350.92248     43063.98443  21449263.4794   21449261.1544
      -422.0464
 -23267612.92649 -18113650.68446  19311206.7294   19311204.1504
      3804.3064
 04  9  1 16  3 29.9940000  0  7G20G 1G11G14G19G22G25
   -610843.84046   -468270.58242  22200167.5574   22200163.6904
      4850.0304
 -18253234.98049 -14219527.74244  20094411.4164   20094409.7794
      4092.6204
 -21365243.66449 -16614031.42245  19704976.4794   19704973.0964
      3251.9974
  -2300357.59449  -1791546.56645  19721477.3224   19721474.4124
      -331.5874
    258371.41847    201242.13742  22221873.8934   22221870.6934
      -789.7674
     63716.14148     48023.88343  21450475.1114   21450471.2914
      -424.3484
 -23324564.59049 -18158028.60246  19300369.0334   19300366.5764
      3796.7784
 04  9  1 16  3 44.9940000  0  7G20G 1G11G14G19G22G25
   -683594.77746   -524959.61342  22186323.3154   22186320.0724
      4850.0634
 -18314552.37949 -14267307.53144  20082742.7444   20082741.5184
      4087.8274
 -21413899.42249 -16651945.00845  19695717.4474   19695713.8034
      3243.7174
  -2295337.69149  -1787634.96945  19722432.3934   19722429.5494
      -334.6604
    270243.45747    210493.05142  22224132.8304   22224129.7214
      -791.4694
     70118.02348     53012.33243  21451693.6504   21451689.9124
      -426.7924
 -23381400.68449 -18202316.45346  19289553.6114   19289551.5614
      3789.0734
 04  9  1 16  3 59.9940000  0  6G20G 1G11G14G22G25
   -756344.84447   -581647.97742  22172479.9474   22172476.1904
      4850.0044
 -18375796.54749 -14315030.25444  20071088.4244   20071087.1824
      4082.9454
 -21462429.52349 -16689760.67645  19686482.3544   19686479.0804
      3235.3404
  -2290270.43049  -1783686.46545  19723397.0804   19723393.4434
      -337.8174
     76557.82847     58030.34443  21452918.3934   21452915.4324
      -429.3204
 -23438119.71549 -18246513.09846  19278760.0184   19278758.4434
      3781.2694
 04  9  1 16  4 14.9940000  0  6G20G 1G11G14G22G25
   -829093.53947   -638335.27742  22158635.6504   22158633.7134
      4849.9134
 -18436967.13749 -14362695.63345  20059447.5804   20059446.8654
      4078.0394
 -21510833.45349 -16727478.02745  19677271.2914   19677268.1194
      3226.9294
  -2285155.85949  -1779701.09045  19724370.2444   19724366.9594
      -340.9714
     83036.04347     63078.27342  21454151.0494   21454148.1044
      -431.8814
 -23494721.18749 -18290618.12946  19267989.4794   19267987.7604
      3773.4324
 04  9  1 16  4 29.9940000  0  6G20G 1G11G14G22G25
   -901840.56647   -695021.25842  22144791.9164   22144789.5534
      4849.8024
 -18498063.93448 -14410303.52344  20047821.7054   20047820.0924
      4073.1204
 -21559110.92649 -16765096.84845  19668084.2054   19668081.3614
      3218.4984
  -2279993.95349  -1775678.82445  19725352.6044   19725349.3344
      -344.1274
     89552.74248     68156.17643  21455391.3544   21455388.2134
      -434.4474
 -23551204.81249 -18334631.33246  19257240.6044   19257238.8614
      3765.5754
 04  9  1 16  4 44.9940000  0  6G20G 1G11G14G22G25
   -974585.60547   -751705.68742  22130949.5724   22130947.3344
      4849.6694
 -18559086.50849 -14457853.57844  20036209.3154   20036208.0924
      4068.1724
 -21607261.35549 -16802616.67245  19658921.6504   19658918.6434
      3210.0294
  -2274784.56649  -1771619.58645  19726343.8854   19726340.5764
      -347.2924
     96108.22348     73264.32043  21456639.2444   21456636.1194
      -437.0324
 -23607569.86349 -18378552.14846  19246514.8074   19246512.7994
      3757.6704
 04  9  1 16  4 59.9940000  0  6G20G 1G11G14G22G25
  -1047326.35947   -808386.78142  22117107.4864   22117104.9404
      4849.3844
 -18620032.61349 -14505344.03944  20024611.6354   20024610.0884
      4063.0744
 -21655282.40249 -16840035.66445  19649783.7524   19649780.7174
      3201.4034
  -2269525.66849  -1767521.76645  19727344.6274   19727341.1274
      -350.5934
    102704.78148     78404.45742  21457894.3694   21457890.9044
      -439.7714
 -23663814.05149 -18422378.77346  19235812.1974   19235810.1584
      3749.6134
 04  9  1 16  5 14.9940000  0  6G20G 1G11G14G22G25
  -1120063.80947   -865065.30542  22103266.3464   22103263.6544
      4849.1634
 -18680903.30549 -14552775.73045  20013028.8384   20013026.7404
      4058.0464
 -21703174.80549 -16877354.43745  19640670.2214   19640666.8184
      3192.8274
  -2264218.54349  -1763386.33645  19728354.7834   19728351.0654
      -353.8084
    109341.31346     83575.75442  21459156.9004   21459153.4514
      -442.4354
 -23719938.19949 -18466111.86746  19225131.8154   19225129.6824
      3741.6104
 04  9  1 16  5 29.9930000  0  6G20G 1G11G14G22G25
  -1192794.16447   -921738.29342  22089425.6304   22089424.0874
      4848.6904
 -18741695.79349 -14600146.49645  20001460.2784   20001458.0404
      4052.8334
 -21750936.53549 -16914571.37545  19631581.2554   19631578.1854
      3184.1154
  -2258865.12149  -1759214.84045  19729373.0284   19729369.4854
      -356.8954
    116015.98847     88776.78142  21460427.3334   21460423.7084
      -444.9784
 -23775939.73849 -18509749.41846  19214475.1304   19214472.9854
      3733.4364
 04  9  1 16  5 44.9930000  0  6G20G 1G11G14G22G25
  -1265526.80547   -978413.07042  22075584.8964   22075583.3254
      4848.8434
 -18802417.80949 -14647462.34444  19989904.9744   19989903.0174
      4048.1344
 -21798573.52349 -16951691.10945  19622516.5134   19622513.2284
      3175.7994
  -2253464.53949  -1755006.60945  19730400.6774   19730397.7744
      -360.0394
    122730.18847     94008.57442  21461705.1854   21461701.4424
      -447.6134
 -23831825.45349 -18553296.72746  19203840.3414   19203838.3994
      3725.7144
 04  9  1 16  5 59.9930000  0  6G20G 1G11G14G22G25
  -1338256.04347  -1035085.21142  22061745.1304   22061743.0874
      4848.6164
 -18863064.61749 -14694719.58644  19978364.1774   19978362.6424
      4043.1214
 -21846081.82449 -16988710.57445  19613476.0134   19613472.2004
      3167.2204
  -2248016.64149  -1750761.52045  19731437.6924   19731433.9114
      -363.1934
    129483.98847     99271.24242  21462990.3804   21462987.0484
      -450.2534
 -23887590.80549 -18596750.23846  19193228.4664   19193226.3604
      3717.6904
 04  9  1 16  6 14.9930000  0  6G20G 1G11G14G22G25
  -1410983.65247  -1091756.07442  22047905.8104   22047903.0094
      4848.5074
 -18923637.97349 -14741919.60244  19966837.2864   19966836.2124
      4038.2244
 -21893463.14849 -17025631.09445  19604459.5524   19604455.7244
      3158.7554
  -2242523.63349  -1746481.25045  19732482.6304   19732479.3414
      -366.2014
    136275.55147    104563.34442  21464282.7634   21464279.1034
      -452.7714
 -23943237.42649 -18640111.23046  19182639.5054   19182637.7434
      3709.7754
 04  9  1 16  6 29.9930000  0  6G20G 1G11G14G22G25
  -1483709.58647  -1148425.62542  22034067.2944   22034064.0444
      4848.3964
 -18984137.95348 -14789062.42644  19955324.6694   19955323.5094
      4033.3324
 -21940717.20749 -17062452.45345  19595467.3804   19595464.0364
      3150.2714
  -2236985.68449  -1742165.98045  19733536.4744   19733533.2674
      -369.1974
    143104.78548    109884.79742  21465582.4034   21465578.9394
      -455.2824
 -23998765.11749 -18683379.55946  19172072.8334   19172071.1344
      3701.8464
 04  9  1 16  6 44.9930000  0  6G20G 1G11G14G22G25
  -1556433.05948  -1205093.26242  22020228.1694   22020225.0604
      4848.2324
 -19044563.79748 -14836147.48444  19943826.1774   19943824.7434
      4028.3904
 -21987843.18449 -17099173.98845  19586499.9034   19586495.8724
      3141.7324
  -2231402.25849  -1737815.27344  19734599.4664   19734595.4624
      -372.2284
    149972.56348    115236.27743  21466889.8024   21466886.3174
      -457.8524
 -24054173.11349 -18726554.61746  19161529.2394   19161526.7594
      3693.8664
 04  9  1 16  6 59.9930000  0  6G20G 1G11G14G22G25
  -1629154.73047  -1261759.49642  22006389.5994   22006386.3764
      4848.1114
 -19104916.23849 -14883175.35245  19932341.5524   19932340.3024
      4023.4964
 -22034841.65249 -17135796.18445  19577556.1384   19577552.7004
      3133.2314
  -2225774.43448  -1733429.96945  19735670.1384   19735666.5914
      -375.1884
    156878.10248    120617.19143  21468203.4824   21468200.1384
      -460.3694
 -24109461.79749 -18769636.69546  19151007.8804   19151005.9464
      3685.9124
 04  9  1 16  7 14.9930000  0  6G20G 1G11G14G22G25
  -1701874.33647  -1318424.10242  21992550.6464   21992548.2434
      4847.9744
 -19165195.19949 -14930145.96145  19920870.6694   19920869.1224
      4018.5974
 -22081712.25849 -17172318.75045  19568637.1534   19568633.4784
      3124.7074
  -2220102.27749  -1729010.11345  19736749.5674   19736746.3804
      -378.1444
    163821.35948    126027.49643  21469525.2394   21469521.3884
      -462.8844
 -24164630.98449 -18812625.65646  19140510.0134   19140507.6344
      3677.9464
 04  9  1 16  7 29.9930000  0  6G20G 1G11G14G22G25
  -1774593.40247  -1375088.28542  21978712.7324   21978709.9664
      4847.9384
 -19225402.25049 -14977060.53145  19909413.2864   19909412.2984
      4013.8034
 -22128456.63349 -17208742.93745  19559741.8414   19559738.2474
      3116.2924
  -2214387.48048  -1724557.05144  19737836.8804   19737833.7124
      -380.9864
    170800.75048    131465.95342  21470852.8494   21470849.6574
      -465.2934
 -24219682.08249 -18855522.60946  19130033.7394   19130031.2984
      3670.0734
 04  9  1 16  7 44.9930000  0  6G20G 1G11G14G22G25
  -1847309.87547  -1431750.49642  21964875.6924   21964872.0284
      4847.7654
 -19285535.41449 -15023917.52045  19897970.5284   19897969.3534
      4008.8784
 -22175072.67249 -17245067.13345  19550871.0674   19550867.3024
      3107.7364
  -2208628.48048  -1720069.52745  19738933.1224   19738929.4824
      -383.9334
    177818.16448    136934.03943  21472188.6384   21472185.0714
      -467.8284
 -24274612.95349 -18898325.87946  19119580.8574   19119578.3644
      3662.0584
 04  9  1 16  7 59.9930000  0  6G20G 1G11G14G22G25
  -1920024.23847  -1488411.02342  21951038.1224   21951034.6034
      4847.6244
 -19345595.14549 -15070717.30145  19886542.1074   19886540.2324
      4003.9824
 -22221560.75049 -17281291.62545  19542024.3644   19542020.9624
      3099.2054
  -2202826.06648  -1715548.17245  19740037.0284   19740034.1184
      -386.8284
    184873.17647    142431.39843  21473530.8494   21473527.8104
      -470.3344
 -24329423.89848 -18941035.68746  19109150.6534   19109148.2204
      3654.0634
 04  9  1 16  8 14.9930000  0  6G20G 1G11G14G22G25
  -1992736.44547  -1545069.89142  21937201.8024   21937198.1614
      4847.4804
 -19405581.54749 -15117459.93745  19875126.6774   19875125.0754
      3999.0934
 -22267920.70749 -17317416.28545  19533202.4744   19533199.3644
      3090.6644
  -2196980.39548  -1710993.11744  19741149.2394   19741146.0094
      -389.7114
    191965.60548    147957.92243  21474880.6464   21474877.2714
      -472.8294
 -24384114.70349 -18983651.88746  19098743.2634   19098740.9854
      3646.0544
 04  9  1 16  8 29.9930000  0  6G20G 1G11G14G22G25
  -2065447.44147  -1601727.81642  21923365.5524   21923361.1264
      4847.4004
 -19465495.44549 -15164146.07844  19863725.6774   19863723.8214
      3994.2604
 -22314153.28149 -17353441.66445  19524404.6074   19524401.9394
      3082.1724
  -2191092.54348  -1706405.18444  19742270.0134   19742266.7714
      -392.5234
    199094.74648    153513.06643  21476237.6694   21476234.0794
      -475.2764
 -24438686.13349 -19026175.07046  19088358.6614   19088356.2284
      3638.0954
 04  9  1 16  8 44.9930000  0  6G20G 1G11G14G22G25
  -2138155.91047  -1658383.76242  21909530.0674   21909525.9504
      4847.2314
 -19525335.87549 -15210774.97345  19852337.6144   19852336.3064
      3989.3624
 -22360257.32049 -17389366.89545  19515631.8414   19515628.2944
      3073.6034
  -2185161.76248  -1701783.80944  19743398.4584   19743395.0014
      -395.3854
    206261.35548    159097.41443  21477600.9194   21477598.2864
      -477.7744
 -24493137.12549 -19068604.39546  19077996.9974   19077994.6034
      3630.0664
 04  9  1 16  8 59.9930000  0  6G20G 1G11G14G22G25
  -2210861.90247  -1715037.77342  21895693.2634   21895690.3334
      4847.0664
 -19585102.75049 -15257346.55145  19840965.1614   19840963.2354
      3984.4584
 -22406232.70349 -17425191.87945  19506882.6694   19506878.9504
      3065.0264
  -2179188.28948  -1697129.16444  19744535.4664   19744532.7204
      -398.2324
    213465.45747    164710.96943  21478971.7554   21478969.0794
      -480.2734
 -24547467.40249 -19110939.67246  19067658.3804   19067655.9314
      3622.0184
 04  9  1 16  9 14.9930000  0  6G20G 1G11G14G22G25
  -2283564.43047  -1771689.10542  21881859.1694   21881855.5524
      4846.8354
 -19644795.44149 -15303860.31645  19829605.6304   19829603.9424
      3979.5134
 -22452078.54349 -17460915.92645  19498158.9034   19498154.8534
      3056.3894
  -2173171.63349  -1692440.87944  19745680.0284   19745677.3214
      -401.1104
    220707.84448    170354.34843  21480350.3104   21480346.9854
      -482.8264
 -24601676.24249 -19153180.31246  19057342.8964   19057340.9274
      3613.9234
 04  9  1 16  9 29.9930000  0  6G20G 1G11G14G22G25
  -2356265.54347  -1828339.31642  21868024.6534   21868021.3924
      4846.7414
 -19704415.77049 -15350317.70345  19818260.5214   19818258.6654
      3974.6894
 -22497796.78549 -17496540.53545  19489458.6924   19489455.5564
      3047.8834
  -2167113.97749  -1687720.64145  19746832.8254   19746830.4464
      -403.8444
    227986.51648    176026.01243  21481735.8104   21481732.3964
      -485.2454
 -24655765.28949 -19195327.60946  19047049.7944   19047048.0644
      3605.9364
 04  9  1 16  9 44.9930000  0  6G20G 1G11G14G22G25
  -2428963.03147  -1884986.72742  21854190.0914   21854187.7474
      4846.4994
 -19763961.73449 -15396717.14844  19806928.8334   19806927.5094
      3969.7314
 -22543385.09849 -17532063.90245  19480783.7164   19480780.2044
      3039.2214
  -2161013.42649  -1682966.97344  19747993.9824   19747990.4784
      -406.7034
    235303.46948    181727.49643  21483127.8884   21483124.4974
      -487.7974
 -24709732.26249 -19237379.79346  19036780.1614   19036778.3804
      3597.7984
 04  9  1 16  9 59.9930000  0  6G20G 1G11G14G22G25
  -2501658.15647  -1941632.28542  21840357.0364   21840354.2714
      4846.3424
 -19823434.75449 -15443059.75445  19795611.6694   19795610.3534
      3964.8684
 -22588844.75849 -17567487.01645  19472132.8414   19472129.3884
      3030.6444
  -2154871.66049  -1678181.18445  19749162.5054   19749159.6964
      -409.4514
    242657.23848    187457.66444  21484527.5444   21484524.1264
      -490.2514
 -24763578.43449 -19279337.83646  19026533.8964   19026531.5174
      3589.7454
 04  9  1 16 10 14.9930000  0  6G20G 1G11G14G22G25
  -2574350.39847  -1998275.55942  21826524.4274   21826521.3144
      4846.1494
 -19882834.31648 -15489345.10544  19784308.3414   19784306.9824
      3959.9714
 -22634175.22349 -17602809.46945  19463506.8254   19463503.3684
      3022.0314
  -2148688.34849  -1673363.02745  19750339.3494   19750336.1814
      -412.2214
    250048.38348    193216.96143  21485933.6854   21485930.3684
      -492.7434
 -24817303.04749 -19321201.15246  19016310.3174   19016307.8104
      3581.6414
 04  9  1 16 10 29.9930000  0  6G20G 1G11G14G22G25
  -2647039.38747  -2054916.36342  21812692.0444   21812689.0564
      4845.9334
 -19942160.19148 -15535573.03945  19773018.4974   19773017.7084
      3955.0584
 -22679376.03949 -17638030.90245  19454905.5994   19454902.2244
      3013.3884
  -2142463.52348  -1668512.53145  19751523.5444   19751520.8994
      -414.9884
    257477.08648    199005.52743  21487347.8414   21487344.3334
      -495.2474
 -24870905.75849 -19362969.48046  19006110.0914   19006107.4194
      3573.5144
 04  9  1 16 10 44.9930000  0  6G20G 1G11G14G22G25
  -2719726.70747  -2111555.81642  21798860.4584   21798857.5094
      4845.8214
 -20001413.95748 -15581744.79345  19761743.5134   19761741.9074
      3950.2514
 -22724448.66049 -17673152.42245  19446328.2944   19446325.4664
      3004.8414
  -2136198.96548  -1663631.07044  19752715.8964   19752712.7674
      -417.6374
    264941.75048    204822.11743  21488768.1774   21488764.7514
      -497.6444
 -24924387.96949 -19404643.91846  18995932.6924   18995930.1534
      3565.4814
 04  9  1 16 10 59.9930000  0  6G20G 1G11G14G22G25
  -2792411.40247  -2168193.22342  21785028.7164   21785025.6494
      4845.6464
 -20060594.82848 -15627859.75845  19750481.4744   19750480.2244
      3945.3914
 -22769392.15648 -17708173.33645  19437775.9584   19437772.7514
      2996.2334
  -2129894.22349  -1658718.29745  19753915.7714   19753912.3294
      -420.3164
    272443.03948    210667.25443  21490195.2944   21490191.7004
      -500.0864
 -24977748.80549 -19446223.78146  18985778.5054   18985775.7164
      3557.3894
 04  9  1 16 11 14.9930000  0  6G20G 1G11G14G22G25
  -2865093.01647  -2224828.25842  21771198.1534   21771194.7714
      4845.4414
 -20119702.57448 -15673917.72345  19739234.1224   19739232.4234
      3940.5164
 -22814206.08649 -17743093.28945  19429248.1534   19429244.8574
      2987.5954
  -2123549.21148  -1653774.12945  19755123.0364   19755120.4194
      -423.0014
    279981.29748    216541.17243  21491629.6854   21491626.4894
      -502.5514
 -25030987.65249 -19487708.58646  18975647.5834   18975645.1464
      3549.2574
 04  9  1 16 11 29.9930000  0  6G20G 1G11G14G22G25
  -2937771.41047  -2281460.75042  21757367.1534   21757364.3804
      4845.2264
 -20178736.94548 -15719918.51645  19727999.7554   19727998.6774
      3935.6254
 -22858890.15248 -17777912.05545  19420745.2784   19420741.8994
      2978.9384
  -2117163.89148  -1648798.58644  19756338.2944   19756335.3064
      -425.6884
    287556.71147    222444.05943  21493071.3884   21493068.0604
      -505.0284
 -25084104.32449 -19529098.18746  18965539.4824   18965537.2784
      3541.1114
 04  9  1 16 11 44.9930000  0  6G20G 1G11G14G22G25
  -3010446.68047  -2338090.82842  21743538.3254   21743535.2824
      4845.0184
 -20237698.07848 -15765862.23845  19716779.6384   19716778.2984
      3930.7424
 -22903444.54349 -17812629.76645  19412266.8804   19412263.2784
      2970.2934
  -2110738.71948  -1643791.96545  19757560.6854   19757558.0794
      -428.3454
    295168.98446    228375.67243  21494519.8174   21494516.9704
      -507.4854
 -25137098.74649 -19570392.52346  18955454.9274   18955452.6224
      3532.9614
 04  9  1 16 11 59.9930000  0  6G20G 1G11G14G22G25
  -3083118.41847  -2394718.14142  21729708.9894   21729705.8374
      4844.7834
 -20296585.76248 -15811748.73045  19705573.7784   19705572.7324
      3925.8464
 -22947868.84448 -17847246.12145  19403812.9664   19403809.7984
      2961.6204
  -2104273.61748  -1638754.23045  19758791.2474   19758788.5174
      -431.0074
    302818.39147    234336.23443  21495975.3804   21495972.5244
      -509.9604
 -25189970.57049 -19611591.33646  18945394.1144   18945391.1304
      3524.7884
 04  9  1 16 12 14.9930000  0  6G20G 1G11G14G22G25
  -3155786.07047  -2451342.28142  21715880.3644   21715878.5754
      4844.5104
 -20355399.48448 -15857577.59445  19694381.7784   19694380.6534
      3920.9154
 -22992162.42648 -17881760.59845  19395384.0994   19395380.8294
      2952.9054
  -2097768.19948  -1633685.07845  19760029.1534   19760026.2474
      -433.6954
    310505.35547    240326.05143  21497438.2944   21497434.7984
      -512.4644
 -25242719.07848 -19652694.05146  18935356.0054   18935353.6424
      3516.5674
 04  9  1 16 12 29.9930000  0  6G20G 1G11G14G22G25
  -3228449.93747  -2507963.48442  21702052.4824   21702050.1264
      4844.2584
 -20414139.66848 -15903349.15645  19683204.1074   19683203.0014
      3916.0124
 -23036325.47348 -17916173.37145  19386980.3104   19386976.6924
      2944.2034
  -2091223.25848  -1628585.12944  19761274.0214   19761271.6144
      -436.3294
    318229.54747    246344.89142  21498907.7084   21498904.8334
      -514.9464
 -25295344.56649 -19693700.91446  18925341.8414   18925339.4314
      3508.3664
 04  9  1 16 12 44.9930000  0  6G20G 1G11G14G22G25
  -3301109.98047  -2564581.68442  21688226.2714   21688224.0324
      4844.0034
 -20472806.45348 -15949063.52045  19672040.5674   19672038.8604
      3911.1194
 -23080358.06249 -17950484.48845  19378600.8414   19378597.3024
      2935.5064
  -2084639.08248  -1623454.62945  19762527.2244   19762524.5214
      -438.9454
    325990.71946    252392.48842  21500385.3334   21500382.0604
      -517.4114
 -25347847.07849 -19734611.94946  18915351.0364   18915348.3294
      3500.1674
 04  9  1 16 12 59.9930000  0  6G20G 1G11G14G22G25
  -3373763.86747  -2621195.09442  21674400.7244   21674397.9934
      4843.5924
 -20531397.46948 -15994718.84845  19660890.9744   19660889.2824
      3906.0684
 -23124257.77049 -17984692.05945  19370247.1534   19370243.6144
      2926.6474
  -2078013.55148  -1618291.88744  19763788.1464   19763785.0524
      -441.7024
    333791.24647    258470.78142  21501869.8804   21501866.4034
      -520.0354
 -25400224.01249 -19775425.14146  18905383.8024   18905381.0794
      3491.7964
 04  9  1 16 13 14.9930000  0  6G20G 1G11G14G22G25
  -3446412.87946  -2677804.69942  21660575.6854   21660573.4664
      4843.2674
 -20589914.18749 -16040316.28145  19649755.7784   19649753.7784
      3901.1154
 -23168025.80949 -18018797.03545  19361918.6144   19361915.0404
      2917.8694
  -2071348.31248  -1613098.21144  19765056.9034   19765053.8214
      -444.3494
    341629.62947    264578.54742  21503361.7164   21503358.0484
      -522.5594
 -25452476.71149 -19816141.51246  18895440.5524   18895438.2904
      3483.5134
 04  9  1 16 13 29.9930000  0  6G20G 1G11G14G22G25
  -3519057.56246  -2734410.93442  21646752.4584   21646749.3844
      4842.9794
 -20648357.27049 -16085856.32845  19638634.1074   19638632.4584
      3896.2054
 -23211662.80549 -18052799.90245  19353614.4424   19353611.2324
      2909.1334
  -2064644.23449  -1607874.26245  19766332.3334   19766329.4544
      -446.9394
    349505.13747    270715.25842  21504860.1534   21504857.0674
      -525.0344
 -25504605.50049 -19856761.34046  18885520.8494   18885518.4354
      3475.2534
 04  9  1 16 13 44.9930000  0  6G20G 1G11G14G22G25
  -3591698.86746  -2791014.55542  21632929.2324   21632926.5244
      4842.7544
 -20706727.68749 -16131339.76245  19627526.3494   19627524.9784
      3891.3614
 -23255169.75849 -18086701.43045  19345335.3024   19345332.0644
      2900.4644
  -2057902.58249  -1602621.05144  19767615.3644   19767612.7594
      -449.4434
    357416.76247    276880.14342  21506365.9274   21506363.1184
      -527.4424
 -25556611.35549 -19897285.36746  18875624.4034   18875622.1654
      3467.0574
 04  9  1 16 13 59.9930000  0  6G20G 1G11G14G22G25
  -3664335.12947  -2847614.21542  21619107.3574   21619104.1074
      4842.4174
 -20765023.86349 -16176765.33245  19616433.0834   19616431.6964
      3886.4124
 -23298544.75049 -18120500.13745  19337081.0834   19337078.1384
      2891.6664
  -2051122.02049  -1597337.50044  19768905.7004   19768902.3414
      -452.0374
    365366.10946    283074.34842  21507878.4744   21507874.9074
      -529.9574
 -25608492.52049 -19937712.23046  18865751.5914   18865749.3254
      3458.7444
 04  9  1 16 14 14.9930000  0  6G20G 1G11G14G22G25
  -3736964.82446  -2904208.76642  21605286.1074   21605283.5674
      4841.9804
 -20823244.44949 -16222132.00445  19605353.5994   19605352.5364
      3881.3724
 -23341786.33649 -18154194.88745  19328852.7554   19328849.5874
      2882.7724
  -2044301.39849  -1592022.75044  19770203.7474   19770200.7674
      -454.7084
    373354.52746    289299.07442  21509398.6304   21509394.8414
      -532.5614
 -25660247.47749 -19978040.75446  18855902.9354   18855900.6654
      3450.3304
 04  9  1 16 14 29.9930000  0  6G20G 1G11G14G22G25
  -3809589.55546  -2960799.47742  21591466.3414   21591463.0284
      4841.6494
 -20881391.13348 -16267441.09045  19594288.7164   19594287.7744
      3876.4464
 -23384896.10949 -18187786.92245  19320649.4744   19320646.4664
      2873.9854
  -2037442.49249  -1586678.15244  19771508.8104   19771505.7204
      -457.2604
    381380.28146    295552.86742  21510925.8334   21510922.2204
      -535.0504
 -25711877.82049 -20018272.18046  18846077.9584   18846075.4854
      3442.0234
 04  9  1 16 14 44.9930000  0  6G20G 1G11G14G22G25
  -3882208.49246  -3017385.63742  21577647.5994   21577643.8644
      4841.2634
 -20939463.11748 -16312691.96145  19583238.0754   19583236.9934
      3871.4664
 -23427873.10249 -18221275.49645  19312471.4504   19312468.5094
      2865.1334
  -2030544.75049  -1581303.29344  19772821.4034   19772818.1074
      -459.8494
    389444.13347    301836.34842  21512460.2714   21512457.7124
      -537.5904
 -25763382.57849 -20058405.74646  18836277.0674   18836274.6264
      3433.6514
 04  9  1 16 14 59.9930000  0  6G20G 1G11G14G22G25
  -3954822.55547  -3073968.03542  21563829.1534   21563826.0874
      4840.9384
 -20997461.56648 -16357885.53945  19572201.2244   19572200.2244
      3866.5634
 -23470718.48049 -18254661.51245  19304317.9974   19304314.7744
      2856.3594
  -2023609.58649  -1575899.28144  19774141.1464   19774137.9704
      -462.3444
    397544.89846    308148.59842  21514001.6924   21513999.1494
      -540.0514
 -25814762.73849 -20098442.21946  18826499.6924   18826497.2554
      3425.3444
 04  9  1 16 15 14.9930000  0  6G20G 1G11G14G22G25
  -4027431.77347  -3130546.64842  21550012.2784   21550009.1814
      4840.6154
 -21055386.58649 -16403021.90645  19561178.8804   19561177.7864
      3861.6684
 -23513432.21549 -18287944.94945  19296190.0364   19296186.4424
      2847.5824
  -2016637.25849  -1570466.31644  19775467.9584   19775464.6534
      -464.8224
    405682.46947    314489.53942  21515550.4744   21515547.1894
      -542.5054
 -25866018.23049 -20138381.55546  18816746.4504   18816743.8414
      3417.0334
 04  9  1 16 15 29.9930000  0  6G20G 1G11G14G22G25
  -4100034.38747  -3187120.10242  21536196.3494   21536193.4274
      4840.1744
 -21113236.42649 -16448099.69145  19550170.3644   19550168.9194
      3856.6564
 -23556012.44149 -18321124.35245  19288087.2474   19288083.7634
      2838.6824
  -2009626.27749  -1565003.22744  19776801.9504   19776799.0324
      -467.3994
    413858.58647    320860.48042  21517106.5674   21517102.7394
      -545.0744
 -25917147.19949 -20178222.29346  18807016.4354   18807014.4234
      3408.5984
 04  9  1 16 15 44.9930000  0  6G20G 1G11G14G22G25
  -4172630.81646  -3243688.71542  21522381.0524   21522378.6574
      4839.7624
 -21171011.62148 -16493119.31245  19539176.1384   19539174.2744
      3851.6804
 -23598459.52749 -18354200.02045  19280009.5914   19280006.7784
      2829.8064
  -2002577.34048  -1559510.56244  19778143.8884   19778140.0714
      -469.9294
    422072.60246    327260.98842  21518670.0674   21518665.3064
      -547.6014
 -25968149.96149 -20217964.69546  18797310.8884   18797308.6854
      3400.1844
 04  9  1 16 15 59.9930000  0  6G20G 1G11G14G22G25
  -4245220.16847  -3300251.85542  21508568.2784   21508565.1894
      4839.2904
 -21228711.36748 -16538080.14145  19528196.3104   19528194.4074
      3846.6504
 -23640772.59848 -18387171.24645  19271957.8884   19271954.3804
      2820.8714
  -1995489.91048  -1553987.90244  19779492.0754   19779489.3924
      -472.4954
    430325.29346    333691.62542  21520240.1694   21520236.3804
      -550.1794
 -26019025.65649 -20257608.08246  18787629.9194   18787627.5364
      3391.7134
 04  9  1 16 16 14.9930000  0  6G20G 1G11G14G22G25
  -4317803.54747  -3356810.30542  21494756.0674   21494752.8574
      4838.8924
 -21286336.87548 -16582983.11745  19517230.6924   19517228.7164
      3841.7014
 -23682952.79749 -18420038.94945  19263931.3884   19263927.7634
      2812.0134
  -1988365.39549  -1548436.35244  19780847.9894   19780844.9784
      -474.9684
    438615.52346    340151.51642  21521817.7244   21521813.6144
      -552.6824
 -26069775.33249 -20297153.26646  18777972.3644   18777970.3064
      3383.3124
 04  9  1 16 16 29.9930000  0  6G20G 1G11G14G22G25
  -4390380.87947  -3413364.06642  21480945.3724   21480941.8454
      4838.4894
 -21343888.14548 -16627828.25445  19506278.9894   19506276.9784
      3836.7514
 -23724999.98048 -18452802.98845  19255930.1074   19255926.3994
      2803.1464
  -1981203.91049  -1542855.99244  19782210.8804   19782207.4974
      -477.4324
    446943.18846    346640.58242  21523402.3574   21523398.7244
      -555.1784
 -26120398.82049 -20336600.12946  18768338.9664   18768336.5714
      3374.8994
 04  9  1 16 16 44.9930000  0  6G20G 1G11G14G22G25
  -4462952.06247  -3469913.03142  21467135.0754   21467131.5794
      4838.0794
 -21401365.20748 -16672615.56245  19495341.5444   19495339.3294
      3831.8044
 -23766914.09449 -18485463.34845  19247954.1694   19247950.4584
      2794.2744
  -1974005.75849  -1537247.03144  19783580.1144   19783577.3334
      -479.8774
    455308.24646    353158.73042  21524993.5914   21524991.1224
      -557.6714
 -26170896.01249 -20375948.57846  18758729.8254   18758727.5174
      3366.4794
 04  9  1 16 16 59.9930000  0  6G20G 1G11G14G22G25
  -4535515.55147  -3526456.01242  21453326.8644   21453323.6424
      4837.5664
 -21458766.82448 -16717344.08245  19484417.8804   19484416.4424
      3826.7744
 -23808693.66849 -18518018.85945  19240003.6854   19240000.2474
      2785.3054
  -1966769.77348  -1531608.62544  19784957.4894   19784954.0054
      -482.3994
    463711.93846    359707.06342  21526593.0284   21526589.6034
      -560.2464
 -26221265.45349 -20415197.48046  18749144.6304   18749142.2084
      3357.9634
 04  9  1 16 17 14.9930000  0  6G20G 1G11G14G22G25
  -4608071.69946  -3582993.27042  21439520.1224   21439516.3844
      4837.0774
 -21516093.39848 -16762014.12145  19473509.0134   19473507.5014
      3821.7724
 -23850339.22749 -18550469.95345  19232078.6304   19232075.2674
      2776.3714
  -1959496.68748  -1525941.28944  19786341.2944   19786338.0794
      -484.8724
    472153.89146    366285.15242  21528199.7084   21528195.4274
      -562.7974
 -26271507.30549 -20454346.95746  18739584.2714   18739581.6534
      3349.4574
 04  9  1 16 17 29.9930000  0  6G20G 1G11G14G22G25
  -4680621.60547  -3639525.66842  21425714.0284   21425710.9824
      4836.6604
 -21573346.11748 -16806626.62145  19462614.2394   19462612.9274
      3816.8484
 -23891851.55149 -18582817.23045  19224178.8174   19224175.2354
      2767.4884
  -1952187.94148  -1520246.18444  19787732.0914   19787728.9544
      -487.2504
    480632.89147    372892.12942  21529813.5754   21529809.4234
      -565.2674
 -26321622.78149 -20493397.97346  18730047.4424   18730044.9704
      3341.0324
 04  9  1 16 17 44.9930000  0  6G20G 1G11G14G22G25
  -4753163.24247  -3696051.62142  21411910.3644   21411907.3374
      4836.1094
 -21630523.09048 -16851180.08245  19451733.7324   19451732.4544
      3811.7984
 -23933228.73048 -18615059.19145  19216305.3724   19216301.8964
      2758.4794
  -1944841.80549  -1514521.93044  19789130.0754   19789126.8684
      -489.7424
    489150.67647    379529.29742  21531434.7714   21531430.9504
      -567.8524
 -26371609.88349 -20532348.94546  18720535.1614   18720532.5214
      3332.4734
 04  9  1 16 17 59.9930000  0  6G20G 1G11G14G22G25
  -4825698.91447  -3752572.91842  21398106.8494   21398103.8994
      4835.7114
 -21687626.64548 -16895676.34845  19440867.4824   19440866.0214
      3806.9044
 -23974473.01649 -18647197.60545  19208456.7244   19208453.7204
      2749.6194
  -1937460.70749  -1508770.44944  19790534.5134   19790531.2554
      -492.0734
    497705.02347    386194.96542  21533062.2394   21533058.7904
      -570.2904
 -26421470.78549 -20571201.59046  18711046.6534   18711044.4894
      3324.0604
 04  9  1 16 18 14.9930000  0  6G20G 1G11G14G22G25
  -4898228.68047  -3809089.59042  21384304.4974   21384301.7284
      4835.3184
 -21744656.89848 -16940115.48445  19430014.4824   19430013.5524
      3802.0174
 -24015584.38749 -18679232.44945  19200633.3724   19200630.6104
      2740.7584
  -1930045.07449  -1502992.03944  19791945.9114   19791942.4424
      -494.3764
    506295.85947    392889.05542  21534697.4114   21534693.4504
      -572.7224
 -26471205.41449 -20609955.84046  18701582.6384   18701580.1384
      3315.6424
 04  9  1 16 18 29.9930000  0  6G20G 1G11G14G22G25
  -4970750.37547  -3865600.02342  21370504.2784   21370501.4114
      4834.7804
 -21801611.90648 -16984496.00045  19419176.9274   19419175.2394
      3797.0014
 -24056560.94949 -18711162.25045  19192836.0054   19192832.6814
      2731.7714
  -1922593.19949  -1497185.39544  19793364.0524   19793360.7004
      -496.7924
    514924.96147    399613.00442  21536339.2554   21536335.1494
      -575.2734
 -26520811.73049 -20648610.10246  18692142.6144   18692140.6494
      3307.0884
 04  9  1 16 18 44.9930000  0  6G20G 1G11G14G22G25
  -5043264.35547  -3922104.41442  21356705.4034   21356702.4704
      4834.2654
 -21858492.12949 -17028818.23845  19408353.0914   19408351.0914
      3792.0154
 -24097402.94949 -18742987.18745  19185064.0674   19185060.7324
      2722.8004
  -1915105.66048  -1491350.95344  19794788.3494   19794785.2944
      -499.1694
    523591.89147    406366.39842  21537988.4274   21537985.3024
      -577.7954
 -26570290.10549 -20687164.66046  18682727.7164   18682725.2204
      3298.5584
 04  9  1 16 18 59.9920000  0  6G20G 1G11G14G22G25
  -5115766.96147  -3978599.96142  21342908.9224   21342906.2424
      4833.5074
 -21915295.08649 -17073080.26645  19397543.7424   19397541.4304
      3786.8644
 -24138108.85949 -18774706.09445  19177317.8994   19177314.7584
      2713.7274
  -1907584.44548  -1485490.28544  19796220.1334   19796216.6174
      -501.4144
    532294.74247    413147.79342  21539644.4304   21539641.7154
      -580.1904
 -26619638.22749 -20725617.73046  18673337.1494   18673334.4224
      3289.8754
 04  9  1 16 19 14.9920000  0  6G20G 1G11G14G22G25
  -5188268.78547  -4035094.87942  21329112.0314   21329109.7194
      4833.4554
 -21972029.36349 -17117288.78545  19386747.4384   19386745.6954
      3782.2854
 -24178685.05149 -18806323.91045  19169596.4534   19169593.2584
      2705.0794
  -1900029.79348  -1479603.55544  19797657.6644   19797654.1844
      -503.6434
    541033.64847    419957.26642  21541307.6724   21541304.3244
      -582.5944
 -26668863.64849 -20763975.19146  18663969.8134   18663967.0164
      3281.6954
 04  9  1 16 19 29.9920000  0  6G20G 1G11G14G22G25
  -5260763.23847  -4091584.07842  21315316.4614   21315313.8444
      4832.9644
 -22028689.50049 -17161439.52345  19375965.3994   19375963.5824
      3777.3424
 -24219126.94549 -18837837.07045  19161900.6724   19161897.3324
      2696.1264
  -1892440.70348  -1473690.00044  19799101.9144   19799098.8284
      -505.9394
    549809.73047    426795.73442  21542977.4844   21542974.6684
      -585.0724
 -26717961.38749 -20802233.16046  18654626.5944   18654624.2384
      3273.1834
 04  9  1 16 19 44.9920000  0  6G20G 1G11G14G22G25
  -5333249.56247  -4148066.91842  21301523.3134   21301520.0664
      4832.4224
 -22085274.90249 -17205532.03145  19365197.5084   19365195.9304
      3772.3604
 -24259434.07449 -18869245.23845  19154230.3524   19154227.2854
      2687.1424
  -1884816.77749  -1467749.28144  19800552.6334   19800549.1764
      -508.2624
    558623.44546    433663.52342  21544653.9534   21544651.7154
      -587.5814
 -26766930.50849 -20840390.90246  18645308.0474   18645305.3634
      3264.6084
 04  9  1 16 19 59.9920000  0  6G20G 1G11G14G22G25
  -5405729.09447  -4204544.47742  21287730.6724   21287728.1994
      4831.9694
 -22141787.09449 -17249567.48445  19354443.2584   19354441.9844
      3767.4794
 -24299607.64149 -18900549.32445  19146585.8754   19146582.3444
      2678.2384
  -1877159.70349  -1461782.75444  19802009.9304   19802006.7234
      -510.4724
    567473.29747    440559.46942  21546338.5244   21546335.8954
      -589.9904
 -26815772.49649 -20878449.58246  18636013.7814   18636011.2344
      3256.1334
 04  9  1 16 20 14.9920000  0  6G20G 1G11G14G22G25
  -5478200.59447  -4261015.76642  21273939.7114   21273937.3204
      4831.4334
 -22198224.90649 -17293544.98845  19343703.7034   19343702.4024
      3762.5214
 -24339646.50449 -18931748.44545  19138966.6254   19138963.1134
      2669.2584
  -1869468.53148  -1455789.65244  19803473.6494   19803470.6454
      -512.7454
    576360.55546    447484.55942  21548029.8444   21548027.3204
      -592.4844
 -26864486.01649 -20916408.16446  18626743.9224   18626741.6764
      3247.5684
 04  9  1 16 20 29.9920000  0  6G20G 1G11G14G22G25
  -5550664.18047  -4317480.87542  21260149.8754   21260148.1684
      4830.9064
 -22254588.62149 -17337464.75045  19332977.7744   19332976.4384
      3757.5814
 -24379550.83649 -18962842.73845  19131373.1644   19131369.5634
      2660.2894
  -1861743.69549  -1449770.30544  19804943.5944   19804940.5124
      -514.9894
    585284.82446    454438.48042  21549727.5084   21549725.4694
      -594.9514
 -26913071.25049 -20954266.77346  18617498.4304   18617496.0314
      3239.0164
 04  9  1 16 20 44.9920000  0  6G20G 1G11G14G22G25
  -5623119.50047  -4373939.55542  21246362.6414   21246359.4814
      4830.3554
 -22310877.92249 -17381326.53545  19322266.7974   19322265.3564
      3752.6204
 -24419320.25449 -18993831.91445  19123805.4144   19123802.0664
      2651.2954
  -1853985.12548  -1443724.68444  19806420.0554   19806417.1134
      -517.2384
    594246.35546    461421.45342  21551433.4064   21551430.6604
      -597.4354
 -26961527.75449 -20992025.07446  18608277.2664   18608274.9024
      3230.4344
 04  9  1 16 20 59.9920000  0  6G20G 1G11G14G22G25
  -5695566.54747  -4430391.79342  21232576.4384   21232574.1764
      4829.8034
 -22367093.05949 -17425130.53945  19311569.3524   19311567.7034
      3747.6764
 -24458954.69149 -19024715.88745  19116262.9304   19116259.5164
      2642.2964
  -1846193.12549  -1437652.99644  19807902.7664   19807899.7074
      -519.4674
    603244.94946    468433.32042  21553146.0784   21553142.4224
      -599.9064
 -27009855.43749 -21029682.99646  18599081.2974   18599078.7664
      3221.8464
 04  9  1 16 21 14.9920000  0  6G20G 1G11G14G22G25
  -5768005.75847  -4486837.91042  21218791.4064   21218789.2504
      4829.2814
 -22423234.44949 -17468877.05145  19300885.8444   19300884.5704
      3742.7594
 -24498454.68749 -19055495.10945  19108746.3594   19108743.2274
      2633.3334
  -1838368.47749  -1431555.88744  19809391.2344   19809389.1134
      -521.6434
    612280.15246    475473.69542  21554865.4844   21554861.9614
      -602.3474
 -27058054.77049 -21067240.91046  18589908.9454   18589906.4344
      3213.2894
 04  9  1 16 21 29.9920000  0  6G20G 1G11G14G22G25
  -5840437.58647  -4543278.28142  21205008.5244   21205005.6954
      4828.7894
 -22479302.74249 -17512566.61345  19290216.0554   19290215.0824
      3737.8864
 -24537820.79749 -19086170.02045  19101255.2114   19101252.3164
      2624.4074
  -1830511.91048  -1425433.90644  19810886.5084   19810883.4344
      -523.7714
    621351.28146    482542.02042  21556592.0004   21556588.8444
      -604.7424
 -27106126.30949 -21104699.23446  18580761.2424   18580758.8564
      3204.7694
 04  9  1 16 21 44.9920000  0  6G20G 1G11G14G22G25
  -5912860.32447  -4599711.55942  21191226.1644   21191224.0664
      4828.1834
 -22535296.33249 -17556197.96545  19279560.9224   19279559.8914
      3732.9064
 -24577051.26649 -19116739.21945  19093789.9064   19093786.5784
      2615.3654
  -1822621.99648  -1419285.93444  19812387.5704   19812385.3364
      -525.9944
    630459.83646    489639.55542  21558325.3364   21558322.3834
      -607.2374
 -27154068.38749 -21142056.68746  18571638.1024   18571635.5744
      3196.1394
 04  9  1 16 21 59.9920000  0  6G20G 1G11G14G22G25
  -5985275.50048  -4656138.94542  21177446.8994   21177444.0514
      4827.6784
 -22591216.93449 -17599772.45745  19268919.5944   19268918.0004
      3728.0404
 -24616147.66449 -19147203.94545  19086350.1954   19086346.9814
      2606.4274
  -1814700.68048  -1413113.50844  19813895.4384   19813892.9024
      -528.0884
    639604.14145    496764.97341  21560064.7194   21560061.8564
      -609.6204
 -27201882.44149 -21179314.38346  18562539.3524   18562537.0824
      3187.6044
 04  9  1 16 22 14.9920000  0  6G20G 1G11G14G22G25
  -6057683.71948  -4712560.92642  21163667.9454   21163664.8564
      4827.2154
 -22647065.25449 -17643290.61345  19258292.0704   19258290.7744
      3723.2214
 -24655110.65249 -19177564.72345  19078935.7664   19078932.6064
      2597.5334
  -1806748.85249  -1406917.28944  19815408.8754   19815405.7934
      -530.1224
    648783.59045    503917.71541  21561811.2344   21561808.9454
      -611.9634
 -27249569.06649 -21216472.78546  18553465.0944   18553462.6454
      3179.1084
 04  9  1 16 22 29.9920000  0  6G20G 1G11G14G22G25
  -6130083.00048  -4768975.94542  21149890.3284   21149887.9064
      4826.6194
 -22702839.50849 -17686751.05545  19247678.6494   19247677.1764
      3718.2844
 -24693938.23849 -19207820.00045  19071547.4144   19071544.1334
      2588.5064
  -1798764.86349  -1400696.00444  19816927.8444   19816925.1564
      -532.2664
    657999.87946    511099.16041  21563565.9924   21563564.0394
      -614.4194
 -27297126.28949 -21253530.34846  18544415.1414   18544412.7934
      3170.4824
 04  9  1 16 22 44.9920000  0  6G20G 1G11G14G22G25
  -6202472.89548  -4825383.64142  21136115.5164   21136112.4454
      4825.9934
 -22758539.25849 -17730153.45345  19237079.1254   19237077.8714
      3713.3174
 -24732630.02049 -19237969.44145  19064184.4614   19064181.1064
      2579.4524
  -1790748.51248  -1394449.51644  19818453.0784   19818450.5554
      -534.4234
    667253.28945    518309.57841  21565326.5474   21565324.2894
      -616.8944
 -27344553.70349 -21290486.77046  18535390.1174   18535387.9694
      3161.8284
 04  9  1 16 22 59.9920000  0  6G20G 1G11G14G22G25
  -6274854.04748  -4881784.53142  21122341.9384   21122339.2814
      4825.4104
 -22814165.46949 -17773498.54345  19226493.9454   19226492.5314
      3708.4144
 -24771186.82449 -19268013.71545  19056847.2274   19056843.5514
      2570.4544
  -1782700.89848  -1388178.66844  19819984.3054   19819981.7234
      -536.5084
    676543.08246    525548.35941  21567094.2664   21567091.1294
      -619.3204
 -27391852.11749 -21327342.66846  18526389.6884   18526387.0394
      3153.2284
 04  9  1 16 23 14.9920000  0  6G20G 1G11G14G22G25
  -6347226.09447  -4938178.32442  21108569.7814   21108566.8634
      4824.8034
 -22869717.80549 -17816786.07045  19215922.7584   19215920.9814
      3703.4894
 -24809608.32449 -19297952.54345  19049536.2424   19049532.8284
      2561.4334
  -1774621.84849  -1381883.31244  19821522.3524   19821518.9224
      -538.6034
    685869.48045    532815.59841  21568868.4534   21568866.0084
      -621.7604
 -27439021.05149 -21364097.66846  18517413.6254   18517410.9494
      3144.5964
 04  9  1 16 23 29.9920000  0  6G20G 1G11G14G22G25
  -6419587.95347  -4994564.17242  21094800.1334   21094797.2234
      4824.1244
 -22925195.32849 -17860015.30145  19205365.8284   19205363.8874
      3698.5024
 -24847893.43749 -19327785.10945  19042250.4694   19042247.2424
      2552.3414
  -1766510.58248  -1375562.86344  19823065.6414   19823062.8754
      -540.7514
    695233.43445    540112.12941  21570650.8364   21570647.5434
      -624.2644
 -27486059.41049 -21400750.93046  18508462.3914   18508459.9614
      3135.8914
 04  9  1 16 23 44.9920000  0  6G20G 1G11G14G22G25
  -6491940.21947  -5050942.54342  21081031.3204   21081028.3754
      4823.4844
 -22980598.74249 -17903186.78145  19194822.7584   19194820.9184
      3693.5614
 -24886042.77749 -19357511.87945  19034991.0084   19034987.3994
      2543.2894
  -1758368.05148  -1369218.05144  19824615.0474   19824612.0664
      -542.8354
    704634.33245    547437.48841  21572440.1564   21572437.4304
      -626.7274
 -27532967.79349 -21437302.90246  18499536.0314   18499533.6604
      3127.2264
 04  9  1 16 23 59.9920000  0  6G20G 1G11G14G22G25
  -6564282.94548  -5107313.49242  21067265.1174   21067262.1564
      4822.8484
 -23035928.21949 -17946300.65245  19184293.8284   19184291.8324
      3688.6324
 -24924056.28549 -19387132.79746  19027757.1724   19027754.1724
      2534.2344
  -1750194.62948  -1362849.17244  19826170.4694   19826167.6884
      -544.8954
    714071.75047    554791.24642  21574236.6954   21574233.9384
      -629.1614
 -27579746.16849 -21473753.57846  18490634.2584   18490632.0164
      3118.5584
 04  9  1 16 24 14.9920000  0  6G20G 1G11G14G22G25
  -6636616.03947  -5163676.93442  21053500.8134   21053496.9534
      4822.2064
 -23091183.84449 -17989356.97345  19173779.1254   19173777.0314
      3683.7084
 -24961934.02749 -19416647.93445  19020549.4144   19020546.4614
      2525.1834
  -1741990.45348  -1356456.32044  19827732.1644   19827728.7974
      -546.9454
    723545.57846    562173.43042  21576039.4924   21576036.3164
      -631.5894
 -27626394.51649 -21510102.92246  18481757.1024   18481754.5984
      3109.8904
 04  9  1 16 24 29.9920000  0  6G20G 1G11G14G22G25
  -6708939.20748  -5220032.64542  21039738.0394   21039735.1804
      4821.5454
 -23146365.50849 -18032355.67245  19163278.4534   19163276.3794
      3678.7784
 -24999675.78149 -19446057.09045  19013367.2974   19013364.0864
      2516.1174
  -1733755.56248  -1350039.53944  19829298.8834   19829295.4734
      -548.9934
    733056.01246    569584.08242  21577848.5554   21577846.0824
      -634.0294
 -27672912.60249 -21546350.77746  18472905.3134   18472902.6804
      3101.2064
 04  9  1 16 24 44.9920000  0  6G20G 1G11G14G22G25
  -6781249.57048  -5276378.38742  21025977.6174   21025974.6494
      4820.6914
 -23201470.57449 -18075294.66845  19152792.1804   19152790.5204
      3673.6714
 -25037278.91849 -19475358.24645  19006212.0164   19006208.4614
      2506.8764
  -1725487.68748  -1343597.03944  19830872.5944   19830869.2974
      -551.1924
    742605.80545    577025.44541  21579665.4844   21579663.6844
      -636.6534
 -27719297.57849 -21582494.90246  18464078.4454   18464075.6414
      3092.3324
 04  9  1 16 24 59.9920000  0  6G20G 1G11G14G22G25
  -6853549.16048  -5332715.69142  21012219.8594   21012216.4224
      4819.9734
 -23256501.07849 -18118175.57045  19142320.2814   19142318.8484
      3668.7004
 -25074745.32849 -19504552.85545  18999081.8134   18999078.8564
      2497.7614
  -1717188.93748  -1337130.50844  19832451.5314   19832448.3754
      -553.2504
    752192.78545    584495.78141  21581490.0394   21581487.8524
      -639.1324
 -27765551.48449 -21618536.90246  18455276.3444   18455274.1374
      3083.5944
 04  9  1 16 25 14.9920000  0  6G20G 1G11G14G22G25
  -6925838.04348  -5389044.70742  20998463.2504   20998461.0164
      4819.2594
 -23311457.32449 -18160998.61345  19131862.2194   19131860.7664
      3663.7504
 -25112075.35249 -19533641.19145  18991978.1954   18991975.4614
      2488.6684
  -1708859.63748  -1330640.14844  19834036.5164   19834033.8244
      -555.2874
    761816.58646    591994.79741  21583321.6494   21583318.5124
      -641.5874
 -27811674.52049 -21654476.92246  18446500.0784   18446497.1174
      3074.8694
 04  9  1 16 25 29.9920000  0  6G20G 1G11G14G22G25
  -6998116.33248  -5445365.45343  20984709.7894   20984706.4964
      4818.5534
 -23366339.45349 -18203763.89145  19121418.5944   19121417.0944
      3658.8094
 -25149268.94149 -19562623.21545  18984900.7274   18984897.5434
      2479.5734
  -1700500.26248  -1324126.37544  19835626.8994   19835624.4224
      -557.2924
    771477.10947    599522.42242  21585160.8834   21585156.2854
      -644.0354
 -27857666.75849 -21690315.01646  18437747.6494   18437745.4264
      3066.1494
 04  9  1 16 25 44.9920000  0  6G20G 1G11G14G22G25
  -7070383.79348  -5501677.74243  20970957.1954   20970954.3014
      4817.8314
 -23421147.38749 -18246471.36745  19110989.1884   19110987.9304
      3653.8624
 -25186326.05549 -19591498.89545  18977848.8054   18977845.7194
      2470.4744
  -1692110.80148  -1317589.13743  19837223.2194   19837220.5984
      -559.2974
    781174.39146    607078.72342  21587006.3054   21587001.9494
      -646.4854
 -27903527.91049 -21726050.96946  18429020.3754   18429018.3914
      3057.4104
 04  9  1 16 25 59.9920000  0  6G20G 1G11G14G22G25
  -7142638.53548  -5557980.13342  20957207.8754   20957205.0004
      4816.9834
 -23475879.38749 -18289119.68045  19100573.8754   19100572.3524
      3648.8004
 -25223244.74249 -19620266.70345  18970823.5004   18970820.5514
      2461.2464
  -1683689.79348  -1311027.34044  19838826.6954   19838822.9104
      -561.4014
    790910.23046    614665.03941  21588858.6564   21588855.1764
      -649.0564
 -27949256.19549 -21761683.38746  18420319.0944   18420316.4884
      3048.5524
 04  9  1 16 26 14.9920000  0  6G20G 1G11G14G22G25
  -7214881.32448  -5614273.20342  20943460.7114   20943457.5124
      4816.1864
 -23530536.44549 -18331709.58645  19090172.8204   19090171.1884
      3643.8044
 -25260025.95749 -19648927.40245  18963824.2274   18963820.9104
      2452.0814
  -1675238.32448  -1304441.77744  19840434.5004   19840431.2544
      -563.4314
    800683.66446    622280.62541  21590718.4844   21590715.3874
      -651.5624
 -27994852.30949 -21797212.82446  18411642.1174   18411639.4344
      3039.7414
 04  9  1 16 26 29.9920000  0  6G20G 1G11G14G22G25
  -7287111.74248  -5670556.64542  20929715.1884   20929712.3634
      4815.3614
 -23585118.15649 -18374240.78945  19079786.5704   19079784.6954
      3638.7814
 -25296669.21549 -19677480.59445  18956851.4454   18956848.2384
      2442.8844
  -1666756.25848  -1297832.39544  19842048.9774   19842045.4734
      -565.4714
    810494.93845    629925.71941  21592585.9144   21592582.3094
      -654.0854
 -28040315.78949 -21832638.90646  18402990.7504   18402988.2314
      3030.8994
 04  9  1 16 26 44.9920000  0  6G20G 1G11G14G22G25
  -7359330.47748  -5726830.96542  20915972.6414   20915969.6454
      4814.5824
 -23639625.46149 -18416713.99645  19069414.2584   19069412.0354
      3633.8204
 -25333175.33249 -19705926.93445  18949904.8444   18949901.1604
      2433.7414
  -1658244.54348  -1291199.89844  19843668.0084   19843665.1564
      -567.4484
    820343.13746    637599.62141  21594459.3754   21594455.8404
      -656.5474
 -28085647.44149 -21867962.26246  18394364.4064   18394361.6374
      3022.1104
 04  9  1 16 26 59.9920000  0  6G20G 1G11G14G22G25
  -7431537.93048  -5783096.49242  20902232.0084   20902228.7974
      4813.8304
 -23694058.88349 -18459129.64145  19059055.6414   19059054.0204
      3628.8954
 -25369544.86749 -19734266.84445  18942983.5634   18942980.4264
      2424.6364
  -1649704.00448  -1284544.96144  19845293.2814   19845290.1994
      -569.3694
    830227.69145    645301.82841  21596340.3054   21596337.0594
      -658.9704
 -28130847.76649 -21903183.28946  18385763.0784   18385760.5824
      3013.3554
 04  9  1 16 27 14.9920000  0  6G20G 1G11G14G22G25
  -7503733.87548  -5839353.05542  20888493.0704   20888490.3564
      4813.0634
 -23748418.42649 -18501487.71145  19048711.2744   19048710.0784
      3623.9704
 -25405777.72349 -19762500.24645  18936088.7664   18936085.2314
      2415.5244
  -1641134.68448  -1277867.57443  19846924.2584   19846920.3244
      -571.2884
    840148.66445    653032.43041  21598227.6804   21598225.5944
      -661.3984
 -28175916.68049 -21938301.91046  18377186.5864   18377183.9454
      3004.5944
 04  9  1 16 27 29.9920000  0  6G20G 1G11G14G22G25
  -7575917.80947  -5895600.27342  20874756.8364   20874754.1564
      4812.2624
 -23802703.63349 -18543787.86345  19038380.9694   19038379.5864
      3619.0144
 -25441873.28149 -19790626.66445  18929220.1334   18929216.5594
      2406.3714
  -1632536.33248  -1271167.58244  19848560.4844   19848557.2194
      -573.2234
    850106.38745    660791.62141  21600122.5314   21600120.5204
      -663.8484
 -28220853.74649 -21973317.79346  18368635.5784   18368632.8564
      2995.8044
 04  9  1 16 27 44.9920000  0  6G20G 1G11G14G22G25
  -7648088.76647  -5951837.37542  20861023.3284   20861020.9104
      4811.3974
 -23856913.81649 -18586029.55145  19028065.5554   19028063.1844
      3614.0124
 -25477830.92649 -19818645.60945  18922377.5474   18922374.2504
      2397.1764
  -1623908.43048  -1264444.54344  19850202.2814   19850198.8674
      -575.1934
    860101.75045    668580.12141  21602025.7424   21602022.8244
      -666.3584
 -28265658.13749 -22008230.29746  18360109.5314   18360106.5864
      2986.9594
 04  9  1 16 27 59.9920000  0  6G20G 1G11G14G22G25
  -7720248.27048  -6008065.53542  20847292.1414   20847289.4024
      4810.6344
 -23911050.58649 -18628214.04345  19017763.3524   19017761.4024
      3609.1184
 -25513651.97749 -19846558.12945  18915561.0474   18915557.4964
      2388.0704
  -1615252.72348  -1257699.84844  19851849.4224   19851845.6994
      -577.0474
    870132.89845    676396.57441  21603935.0784   21603931.1684
      -668.7434
 -28310331.19149 -22043040.46546  18351608.6094   18351606.2384
      2978.2044
 04  9  1 16 28 14.9920000  0  6G20G 1G11G14G22G25
  -7792395.13348  -6064283.84842  20833562.8364   20833559.8564
      4809.7914
 -23965112.87949 -18670340.49645  19007475.6414   19007474.0204
      3604.1534
 -25549335.46949 -19874363.44945  18908770.8674   18908767.1604
      2378.8994
  -1606568.27348  -1250932.75844  19853502.2194   19853498.4964
      -578.9634
    880200.97745    684241.77041  21605849.5864   21605846.6214
      -671.2054
 -28354871.78149 -22077747.40646  18343132.6174   18343129.8994
      2969.3734
 04  9  1 16 28 29.9920000  0  6G20G 1G11G14G22G25
  -7864528.62547  -6120491.76642  20819836.3134   20819833.3914
      4808.8994
 -24019100.14549 -18712408.48845  18997202.4224   18997200.6454
      3599.1514
 -25584880.67649 -19902061.02045  18902006.6494   18902003.2624
      2369.6804
  -1597854.80148  -1244143.05144  19855159.7894   19855157.2854
      -580.8984
    890306.59845    692116.21141  21607772.9534   21607769.7384
      -673.7084
 -28399279.19949 -22112350.57846  18334682.1884   18334679.9884
      2960.4954
 04  9  1 16 28 44.9920000  0  6G20G 1G11G14G22G25
  -7936650.33248  -6176690.48443  20806112.3674   20806108.7154
      4808.1144
 -24073014.19149 -18754419.41445  18986942.9614   18986941.1764
      3594.2704
 -25620289.30949 -19929652.16445  18895268.4534   18895265.2704
      2360.5764
  -1589114.21948  -1237332.23844  19856823.4534   19856819.9814
      -582.7054
    900447.89545    700018.48441  21609703.5164   21609699.4964
      -676.0864
 -28443555.14149 -22146851.30546  18326256.8204   18326254.6844
      2951.7294
 04  9  1 16 28 59.9920000  0  6G20G 1G11G14G22G25
  -8008758.62947  -6232878.76243  20792390.4224   20792387.5594
      4807.2204
 -24126853.53549 -18796372.14145  18976697.3674   18976695.7854
      3589.2904
 -25655559.85949 -19957135.71945  18888556.8674   18888553.7034
      2351.3704
  -1580345.19148  -1230499.25044  19858491.9774   19858489.2114
      -584.6024
    910626.23845    707949.59841  21611640.2894   21611637.0594
      -678.5564
 -28487697.98849 -22181248.32046  18317856.8834   18317854.1494
      2942.8574
 04  9  1 16 29 14.9920000  0  6G20G 1G11G14G22G25
  -8080852.18047  -6289055.53542  20778671.6174   20778668.9884
      4806.2374
 -24180616.97749 -18838265.71145  18966466.5474   18966464.9344
      3584.2294
 -25690691.09049 -19984510.70745  18881871.5164   18881868.0944
      2342.0824
  -1571546.72748  -1223643.33244  19860166.6174   19860163.1884
      -586.5644
    920842.85945    715910.57041  21613584.1804   21613581.1954
      -681.1084
 -28531706.52349 -22215540.67646  18309482.0474   18309479.6064
      2933.9024
 04  9  1 16 29 29.9920000  0  6G20G 1G11G14G22G25
  -8152932.97747  -6345222.38743  20764954.8754   20764951.8634
      4805.3864
 -24234306.64549 -18880101.80545  18956249.8364   18956248.0354
      3579.3114
 -25725685.21549 -20011778.87145  18875212.6174   18875208.8754
      2332.9424
  -1562721.10548  -1216766.22343  19861846.0314   19861842.8444
      -588.3754
    931095.58645    723899.61342  21615535.7664   21615532.5984
      -683.5154
 -28575582.83249 -22249729.99646  18301132.8054   18301130.1334
      2925.0874
 04  9  1 16 29 44.9920000  0  6G20G 1G11G14G22G25
  -8225000.80147  -6401379.12142  20751240.7034   20751238.2624
      4804.5224
 -24287922.36349 -18921880.27345  18946047.1174   18946045.2114
      3574.3814
 -25760542.13349 -20038940.10945  18868579.1804   18868576.1134
      2323.7954
  -1553868.19548  -1209867.85543  19863530.1804   19863526.5474
      -590.1944
    941384.79345    731917.09442  21617494.1954   21617490.3054
      -685.9474
 -28619326.53149 -22283815.98846  18292808.5864   18292806.0004
      2916.2474
 04  9  1 16 29 59.9920000  0  6G20G 1G11G14G22G25
  -8297053.49247  -6457524.08243  20737529.3204   20737527.2774
      4803.5134
 -24341462.24249 -18963599.64845  18935859.1334   18935857.1684
      3569.3254
 -25795259.43749 -20065992.56245  18861972.7814   18861969.6844
      2314.4874
  -1544986.39548  -1202946.98844  19865220.5394   19865217.4304
      -592.1204
    951712.03946    739964.26242  21619458.7744   21619455.0634
      -688.4834
 -28662935.59449 -22317797.06246  18284509.6644   18284507.1644
      2907.2714
 04  9  1 16 30 14.9920000  0  6G20G 1G11G14G22G25
  -8369092.27347  -6513658.18443  20723820.8524   20723819.0594
      4802.5854
 -24394927.66049 -19005261.00445  18925684.8444   18925682.6294
      3564.3614
 -25829838.56649 -20092937.34845  18855392.8134   18855389.4844
      2305.2754
  -1536077.23848  -1196004.80143  19866915.8594   19866912.8244
      -593.9444
    962076.16446    748040.16441  21621431.3364   21621427.6764
      -690.9424
 -28706411.34849 -22351674.26646  18276236.7504   18276234.1914
      2898.3844
 04  9  1 16 30 29.9920000  0  6G20G 1G11G14G22G25
  -8441118.37147  -6569782.38343  20710114.8834   20710112.5004
      4801.7404
 -24448320.10949 -19046865.50045  18915524.6954   18915522.7074
      3559.4974
 -25864280.93049 -20119775.55945  18848838.5474   18848835.2584
      2296.1584
  -1527142.16448  -1189042.41444  19868616.4694   19868613.2194
      -595.6724
    972475.72345    756143.66841  21623410.0474   21623406.8484
      -693.3044
 -28749755.16849 -22385448.66446  18267988.4774   18267986.2584
      2889.5884
 04  9  1 16 30 44.9920000  0  6G20G 1G11G14G22G25
  -8513130.81647  -6625895.96942  20696410.9844   20696409.4694
      4800.8304
 -24501638.73049 -19088412.45745  18905378.3834   18905376.4694
      3554.5754
 -25898585.60949 -20146506.47745  18842310.3284   18842307.2544
      2286.9794
  -1518180.48448  -1182059.30943  19870321.6254   19870318.6064
      -597.4454
    982911.43045    764275.35541  21625395.2744   21625392.5704
      -695.7144
 -28792966.06649 -22419119.48446  18259765.7424   18259763.6024
      2880.7274
 04  9  1 16 30 59.9920000  0  6G20G 1G11G14G22G25
  -8585127.93048  -6681997.60542  20682710.4304   20682708.3594
      4799.8084
 -24554882.10549 -19129900.80145  18895246.2194   18895244.5124
      3549.5584
 -25932751.16049 -20173129.00845  18835809.2274   18835806.2664
      2277.7034
  -1509191.05548  -1175054.57844  19872032.7344   19872029.3634
      -599.2954
    993384.75445    772436.31341  21627388.0394   21627385.8204
      -698.2224
 -28836042.63749 -22452685.64546  18251568.9774   18251566.1024
      2871.7714
 04  9  1 16 31 14.9920000  0  6G20G 1G11G14G22G25
  -8657110.38747  -6738087.81242  20669012.4534   20669010.7934
      4798.8304
 -24608050.98849 -19171331.07845  18885128.4064   18885126.7544
      3544.5924
 -25966778.29749 -20199643.66445  18829333.8444   18829331.0984
      2268.4764
  -1500174.77348  -1168028.93444  19873748.0554   19873745.3134
      -601.0854
   1003895.00845    780626.04341  21629388.5394   21629386.1024
      -700.6844
 -28878985.51649 -22486147.61746  18243396.9454   18243394.2194
      2862.8594
 04  9  1 16 31 29.9920000  0  6G20G 1G11G14G22G25
  -8729078.43047  -6794166.81643  20655317.4614   20655315.5434
      4797.8704
 -24661145.79349 -19212703.64545  18875025.3204   18875023.1374
      3539.6544
 -26000667.40249 -20226050.76245  18822885.0864   18822882.4574
      2259.2744
  -1491132.00848  -1160982.64144  19875469.3524   19875466.2274
      -602.8514
   1014441.57845    788844.08241  21631396.0634   21631392.5084
      -703.1054
 -28921795.02049 -22519505.66046  18235250.6174   18235247.6844
      2853.9674
 04  9  1 16 31 44.9920000  0  6G20G 1G11G14G22G25
  -8801032.39547  -6850234.82843  20641625.5084   20641623.2344
      4796.9314
 -24714166.98049 -19254018.83645  18864935.2584   18864933.5274
      3534.7464
 -26034418.77049 -20252350.54745  18816462.3674   18816459.2854
      2250.0914
  -1482063.64148  -1153916.40243  19877194.8364   19877191.8634
      -604.5584
   1025024.20746    797090.18442  21633409.8834   21633406.5044
      -705.5094
 -28964471.39149 -22552759.96946  18227129.8054   18227126.8954
      2845.0914
 04  9  1 16 31 59.9920000  0  6G20G 1G11G14G22G25
  -8872972.64847  -6906292.17643  20627936.0864   20627933.7114
      4796.0174
 -24767115.14549 -19295277.14845  18854859.7194   18854858.0314
      3529.8784
 -26068032.98449 -20278543.44945  18810066.0784   18810062.7234
      2240.9484
  -1472970.32048  -1146830.71543  19878925.0394   19878921.6094
      -606.2214
   1035642.08647    805363.78542  21635431.1724   21635427.7194
      -707.8594
 -29007015.25049 -22585911.02046  18219033.8674   18219030.9344
      2836.2574
 04  9  1 16 32 14.9920000  0  6G20G 1G11G14G22G25
  -8944897.05547  -6962337.16043  20614248.9454   20614246.5904
      4794.9604
 -24819988.24249 -19336476.93745  18844798.5554   18844796.7274
      3524.8734
 -26101508.00449 -20304627.88745  18803695.6174   18803692.4964
      2231.6684
  -1463850.07848  -1139724.03143  19880660.6024   19880657.0904
      -608.0164
   1046297.30946    813666.54342  21637458.2894   21637455.4654
      -710.3484
 -29049424.45749 -22618957.12946  18210963.3994   18210960.9734
      2827.2804
 04  9  1 16 32 29.9910000  0  6G20G 1G11G14G22G25
  -9016802.20747  -7018367.14543  20600565.7304   20600563.0814
      4793.6774
 -24872784.28549 -19377616.69945  18834751.6984   18834750.0154
      3519.7364
 -26134843.10949 -20330603.29745  18797352.2304   18797349.0504
      2222.3404
  -1454705.30948  -1132598.25844  19882400.6754   19882397.6054
      -609.6514
   1056987.57847    821996.56641  21639492.2374   21639489.6874
      -712.6854
 -29091697.57449 -22651897.21546  18202919.1674   18202916.8434
      2818.2084
 04  9  1 16 32 44.9910000  0  6G20G 1G11G14G22G25
  -9088695.69148  -7074388.03543  20586885.1984   20586882.6634
      4792.8994
 -24925508.63749 -19418700.59845  18824718.5264   18824716.5774
      3514.9574
 -26168040.89149 -20356471.71545  18791034.9014   18791031.7694
      2213.1854
  -1445533.16848  -1125451.14144  19884146.2144   19884142.2334
      -611.4764
   1067716.07846    830356.34841  21641534.2614   21641532.2654
      -715.2334
 -29133838.42649 -22684734.24646  18194900.1364   18194897.4604
      2809.3904
 04  9  1 16 32 59.9910000  0  7G20G 1G11G14G23G22G25
  -9160574.27347  -7130397.30543  20573207.2844   20573204.5304
      4791.9054
 -24978159.47749 -19459727.21545  18814699.2064   18814697.6204
      3510.0564
 -26201100.89849 -20382232.76645  18784743.6754   18784740.6084
      2204.0014
  -1436336.11748  -1118284.60244  19885895.9954   19885892.8664
      -613.1374
   -172999.37556   -125480.78952  21600384.2224   21600380.6364

   1078480.37946    838744.09842  21643582.9254   21643579.4914
      -717.6204
 -29175845.85249 -22717467.28946  18186906.2304   18186903.7184
      2800.4954
 04  9  1 16 33 14.9910000  0  7G20G 1G11G14G23G22G25
  -9232438.48046  -7186395.39843  20559531.7614   20559528.9294
      4790.9474
 -25030737.48049 -19500697.07445  18804694.2144   18804692.4484
      3505.2004
 -26234023.66449 -20407886.87945  18778478.5424   18778475.5034
      2194.8514
  -1427115.00448  -1111099.36344  19887650.8784   19887649.0734
      -614.7414
   -245186.30947   -181730.32842  21586647.5734   21586643.6714
      4812.4624
   1089279.83645    847159.18441  21645637.2844   21645634.0544
      -719.9644
 -29217720.46549 -22750096.85246  18178937.7534   18178935.2224
      2791.6414
 04  9  1 16 33 29.9910000  0  6G20G 1G11G14G23G25
  -9304288.32847  -7242382.26643  20545858.6284   20545856.7104
      4789.9904
 -25083242.77749 -19541610.28545  18794702.5344   18794700.6014
      3500.3534
 -26266809.30149 -20433434.14145  18772240.0584   18772236.9444
      2185.7094
  -1417870.07448  -1103895.55143  19889410.5974   19889407.6204
      -616.3294
   -317338.66447   -237952.92642  21572916.9014   21572913.5854
      4810.1574
 -29259462.27749 -22782622.93746  18170994.6984   18170991.9294
      2782.7884
 04  9  1 16 33 44.9910000  0  6G20G 1G11G14G23G25
  -9376125.31647  -7298359.12543  20532188.2454   20532186.4134
      4789.1334
 -25135677.04349 -19582468.14145  18784724.6834   18784722.6874
      3495.6184
 -26299459.56249 -20458875.90245  18766026.3394   18766023.8434
      2176.6844
  -1408603.15648  -1096674.59444  19891173.9014   19891171.1484
      -617.7954
   -389457.96946   -294149.78142  21559193.3164   21559190.1754
      4807.9544
 -29301072.93749 -22815046.82046  18163076.4644   18163073.5344
      2774.0444
 04  9  1 16 33 59.9910000  0  6G20G 1G11G14G23G25
  -9447949.12947  -7354325.71943  20518521.6444   20518518.4054
      4788.2544
 -25188040.18749 -19623270.58245  18774760.2924   18774758.2694
      3490.8764
 -26331974.08649 -20484211.91045  18759839.4094   18759836.3944
      2167.6354
  -1399314.41848  -1089436.64144  19892941.3554   19892938.1874
      -619.2494
   -461544.16046   -350320.83642  21545474.9094   21545472.1444
      4805.7464
 -29342552.26649 -22847368.36746  18155183.0194   18155180.4604
      2765.2894
 04  9  1 16 34 14.9910000  0  6G20G 1G11G14G23G25
  -9519757.62147  -7410280.37543  20504857.1514   20504854.5464
      4787.2334
 -25240330.28149 -19664016.09045  18764809.5894   18764807.7764
      3486.0064
 -26364351.07449 -20509440.73446  18753678.1514   18753675.7884
      2158.4664
  -1390001.90648  -1082180.14844  19894713.3164   19894710.1404
      -620.8344
   -533595.09046   -406464.41442  21531764.9804   21531761.5114
      4803.3954
 -29383898.21549 -22879585.97746  18147315.4484   18147312.9874
      2756.3974
 04  9  1 16 34 29.9910000  0  6G20G 1G11G14G23G25
  -9591549.31647  -7466221.94143  20491194.6674   20491192.5504
      4786.1134
 -25292546.07449 -19704703.71145  18754873.7614   18754871.4054
      3481.0534
 -26396589.11749 -20534561.30145  18747543.6444   18747541.0814
      2149.2034
  -1380664.54348  -1074904.29343  19896490.6204   19896487.3704
      -622.4914
   -605609.62146   -462579.61342  21518060.7224   21518057.6084
      4800.9694
 -29425109.48049 -22911698.64546  18139473.3004   18139470.4134
      2747.4184
 04  9  1 16 34 44.9910000  0  6G20G 1G11G14G23G25
  -9663324.48847  -7522150.62943  20477536.9804   20477534.2144
      4785.0114
 -25344687.81249 -19745333.62945  18744951.0424   18744949.0464
      3476.1164
 -26428688.37549 -20559573.71945  18741435.3624   18741432.5154
      2139.9514
  -1371302.73048  -1067609.38344  19898272.2454   19898268.9054
      -624.1214
   -677587.82846   -518666.46542  21504363.2144   21504360.4724
      4798.5474
 -29466186.14149 -22943706.42646  18131656.2924   18131653.8234
      2738.4444
 04  9  1 16 34 59.9910000  0  6G20G 1G11G14G23G25
  -9735080.40647  -7578064.32843  20463882.0264   20463879.4254
      4783.7284
 -25396753.05149 -19785903.93745  18735043.4094   18735041.5814
      3471.0164
 -26460646.46949 -20584476.12945  18735354.0814   18735351.0934
      2130.5404
  -1361914.10248  -1060293.57043  19900058.4334   19900055.5114
      -625.9094
   -749527.18046   -574723.10242  21490674.2614   21490670.8784
      4795.9574
 -29507125.77349 -22975607.42246  18123865.9414   18123863.1284
      2729.3094
 04  9  1 16 35 14.9910000  0  6G20G 1G11G14G23G25
  -9806817.72747  -7633963.53143  20450230.9564   20450228.3274
      4782.4884
 -25448742.66049 -19826415.30945  18725149.8864   18725148.0264
      3465.9744
 -26492464.23449 -20609269.20745  18729299.3554   18729296.5544
      2121.1844
  -1352499.71148  -1052957.70744  19901850.3084   19901846.5344
      -627.6264
   -821428.46546   -630750.07442  21476991.7454   21476988.7454
      4793.4194
 -29547929.16849 -23007402.26646  18116101.0344   18116098.5194
      2720.2264
 04  9  1 16 35 29.9910000  0  6G20G 1G11G14G23G25
  -9878536.82047  -7689848.52742  20436583.3474   20436580.6834
      4781.2734
 -25500657.30949 -19866868.27045  18715271.0264   18715269.0974
      3460.9774
 -26524141.99249 -20633953.17645  18723271.0974   18723268.1914
      2111.8514
  -1343060.31648  -1045602.35544  19903645.9804   19903643.0974
      -629.2934
   -893292.12146   -686747.69942  21463316.0734   21463313.8434
      4790.9104
 -29588596.72749 -23039091.26246  18108362.3864   18108359.6324
      2711.1714
 04  9  1 16 35 44.9910000  0  6G20G 1G11G14G23G25
  -9950238.89147  -7745720.25842  20422938.7614   20422935.5694
      4780.1384
 -25552498.29349 -19907263.83645  18705406.1834   18705404.2694
      3456.0664
 -26555681.26649 -20658529.24645  18717269.8234   18717266.6444
      2102.6184
  -1333597.33248  -1038228.62144  19905446.7064   19905444.2964
      -630.8664
   -965119.34047   -742716.93442  21449648.3864   21449645.7734
      4788.4814
 -29629129.71949 -23070675.40246  18100649.2224   18100646.7614
      2702.1994
 04  9  1 16 35 59.9910000  0  6G20G 1G11G14G23G25
 -10021923.66048  -7801578.49643  20409297.7764   20409294.7924
      4778.9854
 -25604265.53549 -19947601.93446  18695555.3474   18695553.1794
      3451.1494
 -26587082.05549 -20682997.39845  18711294.1914   18711291.1084
      2093.3864
  -1324110.71948  -1030836.49244  19907252.6984   19907249.9914
      -632.4414
  -1036910.02747   -798657.68742  21435986.8234   21435984.8084
      4786.0464
 -29669528.02349 -23102154.59846  18092961.5664   18092959.2804
      2693.2204
 04  9  1 16 36 14.9910000  0  6G20G 1G11G14G23G25
 -10093591.12548  -7857423.28143  20395659.6124   20395656.4254
      4777.8314
 -25655959.17649 -19987882.68045  18685717.9174   18685716.1794
      3446.2434
 -26618344.30949 -20707357.60946  18705345.3864   18705342.2924
      2084.1504
  -1314600.84048  -1023426.21144  19909062.2144   19909058.7884
      -633.9924
  -1108664.30947   -854570.07842  21422331.5734   21422330.4484
      4783.6194
 -29709791.82049 -23133528.98046  18085299.8314   18085297.2264
      2684.2534
 04  9  1 16 36 29.9910000  0  6G20G 1G11G14G23G25
 -10165240.46548  -7913253.91443  20382024.9484   20382022.5194
      4776.6234
 -25707578.57049 -20028105.57446  18675895.5894   18675893.8554
      3441.2934
 -26649467.31649 -20731609.30545  18699422.5264   18699420.1014
      2074.8674
  -1305067.24648  -1015997.45344  19910876.2144   19910873.3824
      -635.5734
  -1180381.37547   -910453.49242  21408684.6054   21408682.3744
      4781.1384
 -29749920.30949 -23164797.92246  18077663.4414   18077661.0934
      2675.2334
 04  9  1 16 36 44.9910000  0  6G20G 1G11G14G23G25
 -10236872.48848  -7969071.05543  20368394.3394   20368391.5624
      4775.4684
 -25759124.72749 -20068271.40245  18666086.4414   18666084.7574
      3436.4104
 -26680452.10249 -20755753.30145  18693526.5734   18693523.6364
      2065.6524
  -1295510.98848  -1008551.03143  19912694.8084   19912691.1444
      -637.0844
  -1252062.23847   -966308.67242  21395044.6204   21395042.0624
      4778.7244
 -29789914.49649 -23195962.21546  18070052.6514   18070050.1084
      2666.2794
 04  9  1 16 36 59.9910000  0  6G20G 1G11G14G23G25
 -10308485.56648  -8024873.44943  20354766.8944   20354763.9444
      4774.2054
 -25810596.32849 -20108379.12946  18656291.7764   18656289.8394
      3431.4404
 -26711297.20349 -20779788.44945  18687657.0194   18687653.7454
      2056.3404
  -1285930.97348  -1001086.09843  19914517.6444   19914513.9834
      -638.6684
  -1323705.45347  -1022134.53142  21381411.1754   21381408.6164
      4776.2144
 -29829772.89149 -23227020.69146  18062468.1204   18062465.4334
      2657.2264
 04  9  1 16 37 14.9910000  0  6G20G 1G11G14G23G25
 -10380081.19548  -8080662.23443  20341141.5264   20341139.1834
      4773.0424
 -25861994.97749 -20148430.00445  18646510.7304   18646509.1054
      3426.5774
 -26742004.19949 -20803715.99245  18681813.5424   18681810.4834
      2047.1334
  -1276328.77348   -993603.86743  19916345.0814   19916341.1554
      -640.1474
  -1395312.51247  -1077932.21943  21367784.9874   21367782.3984
      4773.8044
 -29869496.92649 -23257974.48046  18054908.6514   18054906.2804
      2648.2694
 04  9  1 16 37 29.9910000  0  6G20G 1G11G14G23G25
 -10451657.32048  -8136435.81243  20327521.6444   20327518.9014
      4771.7424
 -25913318.81649 -20188422.60545  18636744.2304   18636742.2224
      3421.5894
 -26772571.28549 -20827534.50845  18675996.6674   18675993.6244
      2037.8064
  -1266702.77048   -986103.09443  19918176.5194   19918173.5894
      -641.7344
  -1466881.45347  -1133700.19943  21354166.6754   21354163.2694
      4771.2634
 -29909084.84049 -23288822.19546  18047375.3704   18047373.1284
      2639.1944
 04  9  1 16 37 44.9910000  0  6G20G 1G11G14G23G25
 -10523215.57048  -8192195.48043  20313904.2924   20313902.2454
      4770.5504
 -25964569.73849 -20228358.36745  18626991.5814   18626989.4874
      3416.7284
 -26803000.29349 -20851245.43045  18670206.2304   18670203.2804
      2028.6014
  -1257054.90648   -978585.30943  19920012.9094   19920009.8084
      -643.1914
  -1538413.98847  -1189439.80942  21340554.0194   21340551.0154
      4768.8364
 -29948538.23449 -23319565.09446  18039867.8784   18039865.1874
      2630.2264
 04  9  1 16 37 59.9910000  0  6G20G 1G11G14G23G25
 -10594756.21548  -8247941.42643  20300291.0344   20300288.5894
      4769.3764
 -26015748.06649 -20268237.57445  18617252.2224   18617250.6834
      3411.8894
 -26833291.52749 -20874848.99245  18664442.3234   18664439.0624
      2019.4164
  -1247385.70748   -971050.87943  19921852.7144   19921849.6164
      -644.6134
  -1609910.45347  -1245151.30543  21326948.1124   21326945.3194
      4766.4314
 -29987857.57049 -23350203.53146  18032385.3474   18032382.9914
      2621.2894
 04  9  1 16 38 14.9910000  0  6G20G 1G11G14G23G25
 -10666278.09048  -8303672.73443  20286681.0194   20286677.8824
      4768.1254
 -26066852.84849 -20308059.46945  18607527.4334   18607526.1244
      3406.9854
 -26863443.96949 -20898344.40645  18658704.4334   18658701.2374
      2010.1634
  -1237694.25048   -963499.11343  19923696.4414   19923694.4994
      -646.0974
  -1681369.88747  -1300833.95743  21313350.0814   21313347.3314
      4763.9624
 -30027041.69949 -23380736.60546  18024928.8554   18024926.4804
      2612.2754
 04  9  1 16 38 29.9910000  0  6G20G 1G11G14G23G25
 -10737780.10248  -8359388.57043  20273074.3944   20273071.8124
      4766.8014
 -26117883.18049 -20347823.35945  18597816.7614   18597814.9644
      3402.0224
 -26893456.69149 -20921730.95345  18652993.2694   18652990.0304
      2000.8484
  -1227979.74248   -955929.39543  19925545.8004   19925542.7534
      -647.6344
  -1752791.26647  -1356486.93442  21299759.1364   21299756.2414
      4761.4254
 -30066089.69549 -23411163.61746  18017498.5264   18017495.8314
      2603.2004
 04  9  1 16 38 44.9910000  0  6G20G 1G11G14G23G25
 -10809262.38348  -8415089.05943  20259471.8784   20259469.1754
      4765.4854
 -26168839.44949 -20387529.53945  18588120.3004   18588118.3434
      3397.0854
 -26923330.01249 -20945008.87145  18647308.1834   18647305.3434
      1991.5554
  -1218242.70348   -948342.10543  19927398.4484   19927395.3984
      -649.1364
  -1824174.90647  -1412110.54742  21286175.4954   21286172.1444
      4758.9094
 -30105001.87949 -23441484.78946  18010093.7844   18010091.1514
      2594.1464
 04  9  1 16 38 59.9910000  0  6G20G 1G11G14G23G25
 -10880724.89548  -8470774.10543  20245873.3474   20245870.2374
      4764.1674
 -26219721.73049 -20427178.05146  18578437.4334   18578435.5694
      3392.1524
 -26953063.97749 -20968178.20345  18641650.4644   18641647.0894
      1982.2644
  -1208483.41848   -940737.48443  19929255.6514   19929252.6554
      -650.6194
  -1895520.82847  -1467704.73442  21272598.7534   21272595.6514
      4756.3954
 -30143778.31249 -23471700.18746  18002714.7454   18002711.8904
      2585.0964
 04  9  1 16 39 14.9910000  0  6G20G 1G11G14G23G25
 -10952168.67648  -8526444.57843  20232277.7534   20232274.7654
      4762.9194
 -26270531.35949 -20466769.94946  18568769.0264   18568766.9914
      3387.3094
 -26982659.95749 -20991240.01645  18636018.4254   18636015.3194
      1973.0654
  -1198703.46548   -933116.77743  19931116.5664   19931113.8124
      -651.9974
  -1966830.24247  -1523270.46942  21259028.7144   21259025.5694
      4753.9614
 -30182420.18749 -23501810.73446  17995361.3164   17995358.6514
      2576.1254
 04  9  1 16 39 29.9910000  0  6G20G 1G11G14G23G25
 -11023594.36748  -8582100.95343  20218685.7374   20218683.1404
      4761.7134
 -26321269.26649 -20506305.97346  18559113.6754   18559111.9214
      3382.5274
 -27012118.80549 -21014194.97345  18630412.6754   18630409.7574
      1963.9234
  -1188903.64848   -925480.55543  19932981.3314   19932978.7844
      -653.3214
  -2038103.93747  -1578808.38742  21245465.8864   21245462.6914
      4751.5804
 -30220928.51649 -23531817.22346  17988033.5974   17988031.1204
      2567.2224
 04  9  1 16 39 44.9910000  0  6G20G 1G11G14G23G25
 -11094999.59048  -8637741.37543  20205098.0734   20205094.9994
      4760.3484
 -26371933.10249 -20545784.28146  18549472.9014   18549471.0854
      3377.5894
 -27041438.10949 -21037041.18746  18624833.2614   18624829.9254
      1954.6204
  -1179081.82447   -917827.18743  19934850.2764   19934847.5114
      -654.7884
  -2109339.37947  -1634316.48442  21231910.6444   21231906.5194
      4749.0294
 -30259300.77749 -23561717.67246  17980731.5424   17980729.2144
      2558.1514
 04  9  1 16 39 59.9910000  0  6G20G 1G11G14G23G25
 -11166384.37948  -8693365.87543  20191513.7454   20191510.8434
      4758.9864
 -26422523.11749 -20585205.05545  18539845.7454   18539843.6124
      3372.6684
 -27070618.13749 -21059778.87545  18619280.6124   18619277.4414
      1945.3354
  -1169238.33247   -910156.95343  19936724.0664   19936720.5584
      -656.2334
  -2180536.81246  -1689794.96142  21218361.2844   21218358.6714
      4746.4964
 -30297537.28149 -23591512.34046  17973455.0504   17973453.0264
      2549.1004
 04  9  1 16 40 14.9910000  0  6G20G 1G11G14G23G25
 -11237749.65648  -8748975.17243  20177933.2924   20177930.6444
      4757.6854
 -26473040.48849 -20624569.23045  18530232.6444   18530230.4134
      3367.8254
 -27099660.21149 -21082409.07446  18613754.2844   18613751.3744
      1936.1384
  -1159374.35548   -902470.75843  19938600.4094   19938597.7334
      -657.5984
  -2251697.30547  -1745244.67242  21204820.6204   21204817.5384
      4744.0334
 -30335638.95749 -23621201.94946  17966204.9954   17966202.0234
      2540.1124
 04  9  1 16 40 29.9910000  0  6G20G 1G11G14G23G25
 -11309094.71548  -8804568.71543  20164356.6284   20164353.8664
      4756.3374
 -26523484.64149 -20663876.35246  18520633.5344   18520631.5544
      3362.9434
 -27128563.58649 -21104931.19145  18608254.1284   18608251.1794
      1926.8924
  -1149489.61748   -894768.38343  19940481.5344   19940478.8704
      -658.9834
  -2322820.31647  -1800665.16442  21191285.9804   21191282.7964
      4741.5344
 -30373605.25049 -23650786.07446  17958980.2844   17958977.6834
      2531.0864
 04  9  1 16 40 44.9910000  0  6G20G 1G11G14G23G25
 -11380420.68048  -8860147.38343  20150783.8164   20150780.8744
      4755.0644
 -26573856.98049 -20703127.50846  18511048.0114   18511045.8314
      3358.1564
 -27157329.53949 -21127346.22345  18602779.6914   18602776.5934
      1917.7304
  -1139585.52747   -887050.91443  19942366.1444   19942363.7734
      -660.2734
  -2393907.07847  -1856057.40242  21177758.6204   21177755.6794
      4739.1174
 -30411437.45349 -23680265.70346  17951780.7374   17951777.9994
      2522.1474
 04  9  1 16 40 59.9910000  0  6G20G 1G11G14G23G25
 -11451726.87548  -8915710.64143  20137214.7374   20137211.5234
      4753.7464
 -26624157.03949 -20742322.34446  18501476.1914   18501474.1984
      3353.3374
 -27185957.72749 -21149653.90245  18597331.9414   18597328.7454
      1908.5464
  -1129661.72748   -879318.10243  19944254.5814   19944252.0114
      -661.5874
  -2464956.96947  -1911420.95342  21164238.2534   21164234.7494
      4736.6594
 -30449134.98849 -23709640.39846  17944607.3944   17944604.5894
      2513.1694
 04  9  1 16 41 14.9910000  0  6G20G 1G11G14G23G25
 -11523012.10248  -8971257.55943  20123649.8234   20123646.2734
      4752.3484
 -26674383.80149 -20781460.06646  18491918.1984   18491916.4874
      3348.4514
 -27214447.16849 -21171853.47345  18591910.6594   18591907.3664
      1899.2964
  -1119717.34048   -871569.24243  19946147.2614   19946144.1164
      -662.9594
  -2535969.02047  -1966754.98042  21150725.1364   21150721.8124
      4734.1374
 -30486696.80949 -23738909.34846  17937459.4954   17937456.7844
      2504.1214
 04  9  1 16 41 29.9910000  0  6G20G 1G11G14G23G25
 -11594277.21148  -9026788.79343  20110088.7064   20110085.4174
      4751.0074
 -26724538.28149 -20820541.47346  18482374.2614   18482372.7264
      3343.6324
 -27242798.69149 -21193945.58645  18586515.5894   18586512.1244
      1890.1024
  -1109753.58648   -863805.29343  19948043.5504   19948040.2764
      -664.2504
  -2606944.11746  -2022060.20742  21137218.5734   21137215.3124
      4731.6734
 -30524123.84449 -23768073.25846  17930337.4414   17930334.6054
      2495.1364
 04  9  1 16 41 44.9910000  0  6G20G 1G11G14G23G25
 -11665522.62548  -9082304.69143  20096530.6124   20096528.0774
      4749.6944
 -26774621.19549 -20859567.10546  18472843.7924   18472841.6164
      3338.8614
 -27271013.05149 -21215930.80145  18581146.6284   18581143.1404
      1880.9574
  -1099771.09448   -856026.74243  19949943.2764   19949940.2064
      -665.4994
  -2677882.80546  -2077337.06242  21123719.4954   21123716.0734
      4729.2464
 -30561416.73049 -23797132.64546  17923240.8944   17923238.1284
      2486.1924
 04  9  1 16 41 59.9910000  0  6G20G 1G11G14G23G25
 -11736746.91848  -9137804.12943  20082977.4564   20082974.0814
      4748.2864
 -26824631.29349 -20898536.00446  18463327.2454   18463325.2374
      3334.0074
 -27299088.84849 -21237808.05945  18575803.9804   18575800.6914
      1871.7204
  -1089768.85248   -848232.80543  19951846.8084   19951843.4174
      -666.8164
  -2748783.81646  -2132584.58642  21110227.3624   21110223.9374
      4726.7344
 -30598574.26249 -23826086.56246  17916170.1444   17916167.3744
      2477.1694
 04  9  1 16 42 14.9910000  0  6G20G 1G11G14G23G25
 -11807950.21948  -9193287.21143  20069427.8624   20069424.9994
      4746.8874
 -26874569.00049 -20937448.49246  18453824.4014   18453822.4724
      3329.1804
 -27327026.66449 -21259577.79345  18570487.8784   18570484.4724
      1862.5214
  -1079747.38748   -840423.88743  19953753.0584   19953750.8234
      -668.0984
  -2819647.42647  -2187802.93042  21096743.1984   21096738.8314
      4724.2414
 -30635596.75449 -23854935.25446  17909125.2144   17909122.3124
      2468.1664
 04  9  1 16 42 29.9910000  0  6G20G 1G11G14G23G25
 -11879132.04348  -9248753.57043  20055882.3944   20055879.0464
      4745.4554
 -26924433.89849 -20976304.25046  18444335.2844   18444333.2334
      3324.3274
 -27354826.10549 -21281239.71145  18565197.6594   18565194.4564
      1853.2964
  -1069706.31248   -832599.68443  19955663.6364   19955661.5234
      -669.4054
  -2890473.19146  -2242991.78542  21083264.5424   21083261.2804
      4721.7184
 -30672483.85249 -23883678.44146  17902105.3084   17902102.8664
      2459.1404
 04  9  1 16 42 44.9910000  0  6G20G 1G11G14G23G25
 -11950291.70348  -9304202.63743  20042341.0034   20042338.0114
      4743.9774
 -26974225.47749 -21015102.87946  18434859.8164   18434858.3474
      3319.4394
 -27382486.63349 -21302793.37145  18559933.8944   18559930.9914
      1844.0354
  -1059645.24648   -824759.92243  19957579.1514   19957575.2614
      -670.7384
  -2961260.55946  -2298150.73042  21069794.3704   21069790.9524
      4719.1584
 -30709234.96949 -23912315.67246  17895112.1364   17895109.3474
      2450.0744
 04  9  1 16 42 59.9910000  0  6G20G 1G11G14G23G25
 -12021430.25448  -9359635.25443  20028803.4014   20028800.9524
      4742.5704
 -27023945.09049 -21053845.42245  18425398.8624   18425397.0664
      3314.6414
 -27410009.50849 -21324239.77746  18554696.3474   18554693.2374
      1834.8584
  -1049565.61348   -816905.67243  19959496.2144   19959493.4834
      -671.9764
  -3032010.64846  -2353280.66042  21056330.9804   21056327.9484
      4716.6734
 -30745851.28949 -23940847.86346  17888144.2764   17888141.4294
      2441.0884
 04  9  1 16 43 14.9910000  0  6G20G 1G11G14G23G25
 -12092547.42248  -9415051.21943  20015270.6594   20015267.6514
      4741.1454
 -27073592.79349 -21092531.93446  18415950.8704   18415949.4874
      3309.8474
 -27437394.72349 -21345578.91445  18549485.1674   18549482.3164
      1825.6814
  -1039467.58247   -809037.09043  19961418.3704   19961415.7764
      -673.2024
  -3102723.47347  -2408381.49642  21042875.3944   21042871.5974
      4714.1884
 -30782333.04349 -23969275.19146  17881201.8004   17881199.2184
      2432.1174
 04  9  1 16 43 29.9910000  0  6G20G 1G11G14G23G25
 -12163641.64848  -9470449.31243  20001741.7304   20001738.5734
      4739.6154
 -27123167.09849 -21131161.26246  18406517.2844   18406515.7804
      3304.9544
 -27464640.91449 -21366809.72345  18544300.3164   18544297.3274
      1816.4134
  -1029349.94148   -801153.24243  19963343.8864   19963341.0034
      -674.5094
  -3173397.55948  -2463452.15642  21029426.5424   21029422.4994
      4711.6064
 -30818678.53949 -23997596.35246  17874285.2224   17874282.8164
      2423.0334
 04  9  1 16 43 44.9910000  0  6G20G 1G11G14G23G25
 -12234713.35248  -9525829.84443  19988217.3314   19988214.3004
      4738.1144
 -27172668.70749 -21169733.93746  18397097.3704   18397095.6484
      3300.1074
 -27491748.69549 -21387932.66846  18539141.9644   18539138.8744
      1807.1854
  -1019213.41047   -793254.66443  19965272.9644   19965269.7494
      -675.7694
  -3244033.27347  -2518492.94542  21015984.3704   21015980.6834
      4709.0484
 -30854888.42249 -24025811.84846  17867395.1514   17867392.4914
      2413.9924
 04  9  1 16 43 59.9910000  0  6G20G 1G11G14G23G25
 -12305763.54347  -9581193.63343  19974697.0814   19974693.8394
      4736.6794
 -27222098.74249 -21208250.84446  18387691.0344   18387689.5734
      3295.3364
 -27518719.10949 -21408948.59445  18534009.3944   18534006.3044
      1798.0284
  -1009059.14847   -785342.25843  19967204.9724   19967201.9604
      -676.9514
  -3314631.89547  -2573504.81643  21002550.0894   21002546.1794
      4706.5754
 -30890963.85249 -24053922.56246  17860530.2764   17860527.2414
      2405.0294
 04  9  1 16 44 14.9910000  0  6G20G 1G11G14G23G25
 -12376789.87548  -9636538.82443  19961181.3314   19961178.2454
      4735.0894
 -27271455.02349 -21246710.26646  18378299.0734   18378297.4724
      3290.4194
 -27545550.10249 -21429855.86745  18528903.7694   18528900.9134
      1788.7334
   -998885.17647   -777414.50043  19969141.2374   19969138.1944
      -678.2654
  -3385191.15247  -2628486.03543  20989123.6834   20989119.7064
      4703.9514
 -30926902.67249 -24081926.83246  17853691.6514   17853688.6364
      2395.9214
 04  9  1 16 44 29.9910000  0  6G20G 1G11G14G23G25
 -12447793.90648  -9691866.62943  19947669.5034   19947666.1674
      4733.6024
 -27320739.31249 -21285113.59846  18368920.5974   18368918.8234
      3285.6194
 -27572243.46149 -21450655.89845  18523824.4014   18523820.9724
      1779.5574
   -988693.30947   -769472.79743  19971080.4334   19971077.3044
      -679.4584
  -3455712.70747  -2683437.84043  20975702.9334   20975699.3164
      4701.4374
 -30962706.33649 -24109825.78946  17846877.9094   17846875.2374
      2386.9114
 04  9  1 16 44 44.9910000  0  6G20G 1G11G14G23G25
 -12518773.42248  -9747175.34043  19934162.5974   19934159.6754
      4731.9684
 -27369949.71549 -21323459.34846  18359556.3314   18359554.2574
      3280.6934
 -27598797.19949 -21471347.14145  18518771.6674   18518768.1204
      1770.2494
   -978481.68047   -761515.69943  19973023.9874   19973020.8124
      -680.7754
  -3526194.42647  -2738358.62543  20962291.7064   20962287.2144
      4698.7814
 -30998372.98849 -24137617.97346  17840090.7694   17840088.1164
      2377.7774
